     2.10           OBSERVATION DATA    M (MIXED)           RINEX VERSION / TYPE
teqc 2002Mar14 20050606 11:48:53UTC                         PGM / RUN BY / DATE
MSWin2000|IAx86-PII|bcc32 5.0|MSWin95/98/NT/2000|486/DX+    COMMENT
TPS2RIN 1.40 RUN BY 22-MAR-05 11:09                         COMMENT
build Feb 4 2004 (c) Topcon Positioning Systems             COMMENT
Use -p (profile) switch to override ANTENNA TYPE and DELTA  COMMENT
and other fields                                            COMMENT
C:\Geopro\MEGASE~1\geodata\working\ITRA_2~1.JPS             COMMENT
SE TPS 54addead                                             COMMENT
ITRA                                                        MARKER NAME
OBSERVER AGENCY                                             OBSERVER / AGENCY
AF2V9WHYEPS TPS E_GGD 2.2 Jun,13,2002 p3                    REC # / TYPE / VERS
-Unknown- TOP_CR3_GGD                                       ANT # / TYPE
  4558241.1150  1136646.9620  4299748.5624                  APPROX POSITION XYZ
        0.0000        0.0000        0.0000                  ANTENNA: DELTA H/E/N
     1     1                                                WAVELENGTH FACT L1/2
     7    C1    P1    P2    L1    L2    D1    D2            # / TYPES OF OBSERV
    15.0000                                                 INTERVAL
Forced Modulo Decimation to 15 seconds                      COMMENT
teqc windowed: start @ 2005 Mar 17 00:00:15.000             COMMENT
  2005     3    17     0     0   15.0000000     GPS         TIME OF FIRST OBS
    13                                                      LEAP SECONDS
                                                            END OF HEADER
 05  3 17  0  0 15.0000000  0 13G 7G 8G 9G10G18G26G28G29R 1R 2R 8R18
                                R21
  22501581.567    22501581.2134   22501584.8954  118246646.716 7  92140251.54444
      2107.359        1642.086
  23753293.860    23753293.7194   23753297.9884  124824543.994 6  97265892.23542
     -2581.837       -2011.797
  22617355.164    22617354.7034   22617358.0614  118855018.441 6  92614323.75643
      3246.540        2529.767
  24280505.756    24280504.3774   24280509.5214  127594991.074 5  99424669.89841
     -3231.781       -2518.280
  23724431.063    23724430.4204   23724432.6144  124672709.386 6  97147592.35242
      2216.112        1726.846
  20117716.141    20117716.0114   20117718.7304  105719392.303 8  82378725.37147
       783.649         610.633
  21570135.132    21570134.6164   21570136.9644  113351880.705 8  88326177.77745
     -1733.788       -1351.009
  20286060.661    20286060.2704   20286063.0944  106604028.100 8  83068092.81347
        93.069          72.519
  21122293.841    21122294.682    21122299.561   112950476.743 8  87850347.318 6
       265.838         206.760
  23532691.786    23532689.830    23532697.304   125795774.502 6  97841161.006 4
      3568.429        2775.441
  21703656.440    21703658.716    21703664.130   116222102.814 7  90394996.035 6
     -3198.343       -2487.600
  23923560.713    23923562.277    23923566.301   128289164.317 4  99780474.402 3
     -3009.723       -2340.894
  23246697.517    23246697.349    23246702.733   124441394.455 5  96787800.296 4
      4804.634        3736.937
 05  3 17  0  0 30.0000000  0 13G 7G 8G 9G10G18G26G28G29R 1R 2R 8R18
                                R21
  22495575.635    22495575.1564   22495579.4244  118215086.504 7  92115659.17444
      2100.279        1636.576
  23760666.458    23760665.5934   23760670.3274  124863281.914 6  97296077.62942
     -2583.605       -2013.211
  22608092.156    22608092.0644   22608095.2554  118806340.222 6  92576392.69343
      3243.512        2527.418
  24289730.983    24289730.2634   24289735.3274  127643469.723 5  99462445.42941
     -3232.402       -2518.741
  23718117.336    23718116.3894   23718119.5954  124639531.108 6  97121739.15842
      2207.330        1719.994
  20115491.507    20115491.4994   20115494.0844  105707701.926 8  82369615.98347
       774.704         603.667
  21575092.730    21575091.8714   21575094.1114  113377930.081 8  88346475.98545
     -1739.811       -1355.693
  20285806.352    20285806.1134   20285808.9304  106602692.619 8  83067052.17747
        84.629          65.941
  21121568.061    21121568.314    21121572.771   112946592.797 8  87847326.467 6
       251.687         195.754
  23522692.624    23522691.149    23522695.567   125742313.977 6  97799580.601 4
      3559.283        2768.329
  21712627.352    21712628.443    21712632.696   116270130.067 7  90432350.551 6
     -3205.624       -2493.263
  23931991.406    23931990.517    23931995.939   128334364.440 4  99815630.030 3
     -3017.379       -2346.859
  23233234.775    23233235.647    23233240.730   124369331.546 5  96731751.404 4
      4803.376        3735.977
 05  3 17  0  0 45.0000000  0 13G 7G 8G 9G10G18G26G28G29R 1R 2R 8R18
                                R21
  22489589.864    22489588.9764   22489592.9574  118183628.624 7  92091146.55044
      2093.067        1630.961
  23768043.133    23768042.1254   23768046.9864  124902042.300 6  97326280.48142
     -2585.442       -2014.640
  22598836.974    22598836.7044   22598840.1244  118757703.041 6  92538493.60843
      3240.404        2524.989
  24298956.912    24298957.8184   24298962.0934  127691952.091 5  99500223.85441
     -3233.005       -2519.218
  23711827.052    23711828.0954   23711829.7774  124606480.413 6  97095985.37842
      2198.445        1713.064
  20113291.747    20113291.5724   20113294.3274  105696141.713 8  82360608.02547
       765.649         596.614
  21580066.303    21580065.4984   21580067.8614  113404066.664 8  88366842.15045
     -1746.036       -1360.548
  20285575.960    20285575.5124   20285578.2374  106601480.114 8  83066107.36347
        76.030          59.242
  21120879.934    21120880.640    21120885.279   112942917.104 8  87844467.586 6
       237.441         184.678
  23512716.250    23512714.116    23512718.989   125688986.811 6  97758103.941 4
      3549.906        2761.040
  21721616.568    21721617.803    21721621.024   116318261.882 7  90469786.386 6
     -3212.971       -2498.975
  23940437.308    23940439.553    23940443.282   128379673.028 4  99850870.041 3
     -3024.781       -2352.594
  23219774.718    23219775.892    23219779.293   124297283.112 5  96675713.738 4
      4801.980        3734.881
 05  3 17  0  1  0.0000000  0 13G 7G 8G 9G10G18G26G28G29R 1R 2R 8R18
                                R21
  22483622.305    22483621.8524   22483626.3054  118152272.713 7  92066713.38744
      2087.057        1626.280
  23775422.255    23775422.3114   23775426.7254  124940824.210 6  97356500.11842
     -2586.105       -2015.145
  22589589.308    22589589.0144   22589592.6394  118709106.279 7  92500626.02344
      3238.454        2523.469
  24308184.008    24308183.4684   24308190.3354  127740437.031 5  99538004.31242
     -3232.385       -2518.745
  23705564.492    23705562.5084   23705564.8624  124573556.738 6  97070330.56342
      2190.749        1707.073
  20111116.457    20111116.3774   20111119.0904  105684711.047 9  82351701.01247
       757.775         590.471
  21585055.952    21585055.7244   21585057.8504  113430289.416 7  88387275.45345
     -1751.000       -1364.415
  20285368.394    20285368.1124   20285370.7774  106600390.065 8  83065257.96547
        68.599          53.451
  21120231.612    21120232.846    21120236.964   112939448.611 8  87841769.858 6
       224.394         174.527
  23502763.996    23502763.547    23502769.041   125635792.872 6  97716730.851 4
      3541.878        2754.797
  21730624.341    21730625.398    21730628.839   116366497.063 7  90507302.616 6
     -3219.052       -2503.706
  23948907.106    23948907.957    23948913.863   128425089.252 3  99886193.765 2
     -3031.406       -2357.769
  23206318.419    23206320.420    23206324.075   124225248.920 5  96619687.130 4
      4801.907        3734.809
 05  3 17  0  1 15.0000000  0 13G 7G 8G 9G10G18G26G28G29R 1R 2R 8R18
                                R21
  22477674.768    22477674.0194   22477677.7184  118121014.753 7  92042356.53044
      2079.823        1620.643
  23782806.280    23782804.7194   23782810.8894  124979623.500 6  97386733.32342
     -2587.980       -2016.601
  22580348.236    22580348.0574   22580352.3054  118660545.735 6  92462786.66044
      3235.367        2521.069
  24317410.833    24317410.6454   24317414.6714  127788920.002 6  99575783.20042
     -3232.948       -2519.180
  23699322.388    23699320.6074   23699322.7904  124540756.018 6  97044771.56442
      2181.833        1700.135
  20108965.164    20108965.0664   20108967.7074  105673405.690 8  82342891.64247
       748.719         583.418
  21590061.808    21590061.3374   21590063.4124  113456593.750 8  88407772.33345
     -1757.153       -1369.205
  20285183.297    20285183.0844   20285185.7584  106599418.178 8  83064500.64747
        60.040          46.784
  21119620.765    21119621.321    21119626.645   112936182.919 7  87839229.875 6
       210.136         163.438
  23492837.529    23492836.530    23492841.736   125582727.834 6  97675458.034 5
      3532.499        2747.497
  21739649.550    21739650.800    21739654.198   116414830.359 7  90544895.159 6
     -3226.290       -2509.340
  23957394.014    23957396.064    23957403.538   128470608.349 4  99921597.533 2
     -3038.941       -2363.636
  23192864.670    23192865.651    23192869.842   124153224.730 5  96563668.326 4
      4800.389        3733.642
 05  3 17  0  1 30.0000000  0 13G 7G 8G 9G10G18G26G28G29R 1R 2R 8R18
                                R21
  22471746.451    22471745.2734   22471750.4104  118089863.129 7  92018082.54944
      2073.653        1615.837
  23790193.364    23790192.9124   23790196.5814  125018448.144 6  97416986.28142
     -2588.719       -2017.169
  22571116.544    22571115.8284   22571119.8394  118612029.827 6  92424982.07444
      3233.390        2519.523
  24326638.460    24326636.9594   24326642.7364  127837408.848 6  99613566.69442
     -3232.372       -2518.735
  23693103.514    23693103.6324   23693106.1334  124508086.698 6  97019314.94442
      2173.980        1693.996
  20106839.437    20106839.2554   20106841.8584  105662234.247 8  82334186.61647
       740.733         577.195
  21595084.189    21595083.5564   21595086.0264  113482987.726 7  88428339.06145
     -1762.146       -1373.099
  20285022.345    20285022.1594   20285025.0034  106598572.683 8  83063841.81547
        52.582          40.972
  21119049.664    21119050.513    21119054.887   112933128.341 8  87836854.083 6
       197.059         153.267
  23482935.488    23482934.581    23482940.241   125529800.809 6  97634292.564 5
      3524.324        2741.136
  21748694.587    21748695.959    21748699.484   116463269.732 7  90582570.219 6
     -3232.351       -2514.053
  23965905.860    23965906.639    23965910.928   128516238.293 4  99957087.520 2
     -3045.198       -2368.479
  23179415.375    23179413.612    23179417.979   124081219.316 5  96507664.153 4
      4800.167        3733.454
 05  3 17  0  1 45.0000000  0 13G 7G 8G 9G10G18G26G28G29R 1R 2R 8R18
                                R21
  22465837.365    22465837.4884   22465841.9584  118058817.868 6  91993891.44344
      2066.148        1609.981
  23797586.049    23797585.7274   23797589.8944  125057297.849 6  97447258.77042
     -2590.829       -2018.829
  22561892.801    22561892.4664   22561896.2114  118563558.148 7  92387211.95944
      3229.941        2516.825
  24335866.103    24335864.8434   24335870.0804  127885902.844 6  99651354.17342
     -3233.008       -2519.227
  23686912.384    23686912.5334   23686915.0034  124475548.637 6  96993960.60042
      2164.861        1686.898
  20104738.823    20104738.7444   20104741.4304  105651196.193 8  82325585.53147
       731.428         569.944
  21600123.607    21600123.1584   21600125.5334  113509470.495 8  88448974.98245
     -1768.462       -1378.024
  20284885.444    20284885.2474   20284888.0384  106597853.445 8  83063281.36847
        43.748          34.088
  21118517.732    21118518.437    21118523.532   112930284.531 7  87834642.226 6
       182.561         141.991
  23473058.709    23473060.216    23473066.140   125477011.709 6  97593234.376 5
      3514.627        2733.590
  21757760.452    21757761.885    21757765.085   116511814.165 7  90620326.981 6
     -3239.788       -2519.837
  23974437.049    23974436.798    23974440.145   128561978.017 4  99992662.892 2
     -3053.032       -2374.578
  23165966.026    23165966.288    23165969.901   124009232.681 5  96451674.535 4
      4798.412        3732.095
 05  3 17  0  2  0.0000000  0 13G 7G 8G 9G10G18G26G28G29R 1R 2R 8R18
                                R21
  22459952.027    22459950.2364   22459955.1744  118027877.923 7  91969782.40844
      2059.692        1604.954
  23804984.123    23804981.8784   23804987.5314  125096171.237 6  97477549.70342
     -2591.824       -2019.589
  22552676.614    22552676.6914   22552680.0044  118515129.699 7  92349475.50744
      3227.681        2515.074
  24345095.655    24345093.7284   24345097.1414  127934400.458 6  99689144.49742
     -3232.742       -2519.035
  23680745.999    23680744.6824   23680747.4674  124443140.762 6  96968707.71742
      2156.726        1680.564
  20102663.814    20102663.4254   20102666.1414  105640290.562 8  82317087.62947
       723.183         563.522
  21605179.799    21605179.3944   21605181.7564  113536040.843 7  88469679.14045
     -1773.723       -1382.125
  20284772.350    20284772.1684   20284774.8954  106597259.149 8  83062818.27147
        35.997          28.052
  21118024.962    21118025.547    21118030.749   112927650.306 8  87832593.375 6
       169.200         131.602
  23463210.080    23463209.606    23463216.592   125424360.569 6  97552283.449 5
      3506.121        2726.985
  21766844.404    21766845.716    21766848.717   116560461.966 7  90658164.150 6
     -3246.055       -2524.707
  23982981.363    23982985.923    23982989.145   128607826.108 3 100028322.502 2
     -3059.674       -2379.735
  23152520.630    23152521.412    23152526.548   123937264.247 5  96395699.075 4
      4797.810        3731.642
 05  3 17  0  2 15.0000000  0 13G 7G 8G 9G10G18G26G28G29R 1R 2R 8R18
                                R21
  22454082.124    22454081.0954   22454086.0294  117997037.817 7  91945751.17144
      2052.432        1599.306
  23812384.481    23812383.6614   23812386.7584  125135062.610 6  97507854.70941
     -2593.560       -2020.968
  22543468.506    22543468.3494   22543471.3894  118466738.716 7  92311768.26644
      3224.587        2512.664
  24354322.605    24354320.9174   24354326.5764  127982895.414 5  99726932.76741
     -3233.136       -2519.321
  23674602.573    23674601.2654   23674604.6614  124410857.514 6  96943551.94542
      2147.836        1673.634
  20100612.353    20100612.3124   20100614.9884  105629511.631 8  82308688.46547
       714.161         556.493
  21610251.095    21610250.8594   21610253.5334  113562692.560 7  88490446.70545
     -1779.701       -1386.775
  20284681.934    20284681.8884   20284684.5314  106596784.112 8  83062448.11447
        27.477          21.410
  21117570.999    21117571.109    21117576.063   112925219.353 7  87830702.628 6
       155.086         120.626
  23453388.265    23453385.953    23453390.115   125371840.771 6  97511434.722 5
      3496.685        2719.644
  21775946.339    21775948.729    21775951.812   116609206.770 7  90696076.771 6
     -3253.076       -2530.167
  23991552.633    23991553.290    23991558.358   128653775.695 3 100064061.115 2
     -3067.040       -2385.475
  23139079.484    23139079.830    23139085.758   123865309.600 5  96339734.384 4
      4796.270        3730.427
 05  3 17  0  2 30.0000000  0 13G 7G 8G 9G10G18G26G28G29R 1R 2R 8R18
                                R21
  22448232.035    22448231.8744   22448237.5974  117966300.466 7  91921799.97944
      2045.590        1593.971
  23819790.444    23819789.0474   23819791.8664  125173974.518 6  97538175.63141
     -2594.941       -2022.038
  22534267.601    22534266.9764   22534270.6314  118418387.967 7  92274092.36344
      3221.873        2510.553
  24363550.949    24363549.8444   24363554.0674  128031390.176 5  99764720.86341
     -3233.133       -2519.327
  23668482.536    23668482.0204   23668484.5744  124378701.862 6  96918495.59342
      2139.241        1666.938
  20098586.046    20098585.7984   20098588.4854  105618862.250 8  82300390.24347
       705.505         549.745
  21615338.510    21615338.1904   21615340.6914  113589428.121 7  88511279.59845
     -1785.328       -1391.160
  20284614.928    20284614.6144   20284617.4984  106596431.073 8  83062173.01547
        19.298          15.038
  21117154.840    21117155.638    21117159.981   112922994.734 8  87828972.361 6
       141.278         109.884
  23443587.525    23443585.718    23443591.634   125319456.610 6  97470691.485 5
      3487.566        2712.553
  21785068.556    21785070.304    21785073.020   116658050.232 7  90734066.125 6
     -3259.689       -2535.314
  24000147.003    24000143.955    24000146.949   128699829.263 3 100099880.576 2
     -3073.746       -2390.686
  23125640.394    23125641.499    23125646.726   123793371.143 5  96283782.281 4
      4795.115        3729.542
 05  3 17  0  2 45.0000000  0 13G 7G 8G 9G10G18G26G28G29R 1R 2R 8R18
                                R21
  22442403.369    22442402.5184   22442406.4794  117935663.674 7  91897927.17944
      2039.021        1588.848
  23827197.287    23827196.4014   23827201.8054  125212904.381 5  97568510.59842
     -2595.990       -2022.847
  22525073.532    22525073.1034   22525076.4724  118370075.121 7  92236446.01144
      3219.482        2508.678
  24372778.968    24372777.8504   24372781.3164  128079881.952 5  99802506.63141
     -3232.773       -2519.015
  23662387.861    23662387.7014   23662389.2654  124346671.641 5  96893536.98342
      2131.075        1660.561
  20096583.612    20096583.5484   20096586.1764  105608340.135 8  82292191.19247
       697.158         543.238
  21620441.887    21620441.5254   21620443.8234  113616244.743 7  88532175.65845
     -1790.546       -1395.227
  20284570.529    20284570.3034   20284573.1014  106596197.760 8  83061991.21047
        11.479           8.944
  21116777.264    21116777.242    21116782.069   112920973.380 8  87827400.194 6
       127.900          99.475
  23433811.120    23433810.948    23433818.011   125267205.673 6  97430051.861 5
      3478.813        2705.742
  21794207.953    21794209.617    21794212.045   116706989.927 7  90772130.319 6
     -3265.922       -2540.156
  24008748.286    24008748.739    24008753.880   128745983.546 3 100135778.394 2
     -3080.483       -2395.919
  23112204.261    23112206.133    23112209.915   123721446.939 5  96227841.255 4
      4794.394        3728.977
 05  3 17  0  3  0.0000000  0 12G 7G 8G 9G10G18G26G28G29R 1R 2R 8R21
  22436592.929    22436592.7894   22436596.8864  117905131.822 7  91874136.12944
      2032.001        1583.380
  23834607.880    23834608.6324   23834613.6784  125251856.230 5  97598862.67241
     -2597.522       -2024.047
  22515888.355    22515888.0344   22515890.7524  118321804.436 7  92198832.48843
      3216.675        2506.495
  24382006.301    24382004.8034   24382009.2904  128128374.426 5  99840292.96941
     -3232.781       -2519.026
  23656317.573    23656317.4504   23656319.7364  124314771.066 6  96868679.39342
      2122.404        1653.820
  20094606.404    20094606.2354   20094608.8224  105597949.433 8  82284094.53747
       688.357         536.383
  21625561.316    21625560.8614   21625563.2154  113643146.403 7  88553137.98945
     -1796.233       -1399.666
  20284549.531    20284549.4564   20284552.1914  106596088.316 8  83061905.92547
         3.212           2.504
  21116437.793    21116438.323    21116442.391   112919159.959 8  87825989.738 6
       114.024          88.687
  23424064.529    23424063.115    23424067.606   125215092.338 6  97389519.282 5
      3469.771        2698.708
  21803365.369    21803366.736    21803370.117   116756029.040 7  90810271.841 6
     -3272.521       -2545.294
  23098771.064    23098773.946    23098776.984   123649542.165 5  96171915.301 4
      4792.885        3727.807
 05  3 17  0  3 15.0000000  0 12G 7G 8G 9G10G18G26G28G29R 1R 2R 8R21
  22430803.010    22430802.8304   22430806.8694  117874704.867 7  91850426.81444
      2025.258        1578.120
  23842026.513    23842025.7534   23842030.6624  125290829.694 5  97629231.55842
     -2598.600       -2024.903
  22506710.642    22506710.2334   22506713.0664  118273575.646 7  92161251.63443
      3214.131        2504.515
  24391235.410    24391232.4154   24391238.9534  128176867.000 6  99878079.38141
     -3232.501       -2518.831
  23650272.145    23650271.8724   23650274.2704  124282999.958 6  96843922.70242
      2114.025        1647.274
  20092654.001    20092653.8604   20092656.5164  105587689.984 8  82276100.16047
       679.907         529.796
  21630696.219    21630696.0014   21630698.5194  113670132.545 7  88574166.15345
     -1801.587       -1403.837
  20284552.104    20284552.0954   20284554.9124  106596102.361 8  83061916.86847
        -4.761          -3.711
  21116136.821    21116138.098    21116142.595   112917553.591 8  87824740.340 6
       100.502          78.171
  23414339.908    23414337.618    23414344.492   125163116.573 6  97349093.687 5
      3460.690        2691.648
  21812540.791    21812542.352    21812546.411   116805166.630 7  90848489.966 6
     -3278.825       -2550.194
  23085342.300    23085344.425    23085348.276   123577656.109 5  96116003.940 4
      4792.006        3727.108
 05  3 17  0  3 30.0000000  0 12G 7G 8G 9G10G18G26G28G29R 1R 2R 8R21
  22425032.211    22425031.6214   22425035.8984  117844377.285 7  91826794.94544
      2018.515        1572.871
  23849444.039    23849444.3394   23849451.4694  125329819.058 5  97659612.85342
     -2599.767       -2025.799
  22497539.890    22497539.2094   22497542.1194  118225383.166 6  92123699.06143
      3211.634        2502.570
  24400461.456    24400460.7934   24400465.1154  128225353.572 6  99915861.07841
     -3232.210       -2518.614
  23644248.988    23644247.9414   23644251.1394  124251352.975 6  96819262.69642
      2105.726        1640.817
  20090725.635    20090725.5284   20090728.1624  105577556.247 8  82268203.73747
       671.433         523.194
  21635846.493    21635845.8114   21635848.7544  113697197.140 7  88595255.44145
     -1806.880       -1407.960
  20284577.602    20284577.2144   20284580.0084  106596234.331 8  83062019.70047
       -12.660          -9.866
  21115874.759    21115875.289    21115879.853   112916148.447 8  87823647.444 6
        87.014          67.678
  23404642.641    23404641.427    23404647.105   125111273.817 6  97308771.542 5
      3451.772        2684.710
  21821734.563    21821735.954    21821740.173   116854396.360 7  90886779.744 6
     -3285.006       -2555.003
  23071916.218    23071917.782    23071921.399   123505784.559 5  96060103.880 4
      4790.985        3726.328
 05  3 17  0  3 45.0000000  0 12G 7G 8G 9G10G18G26G28G29R 1R 2R 8R21
  22419280.874    22419279.8824   22419284.3824  117814155.529 7  91803245.52844
      2011.260        1567.211
  23856869.916    23856869.6514   23856873.4614  125368830.368 6  97690011.25942
     -2601.473       -2027.132
  22488377.532    22488376.8514   22488380.2314  118177233.216 7  92086179.61844
      3208.617        2500.227
  24409687.517    24409687.7664   24409690.9834  128273839.791 6  99953642.50742
     -3232.373       -2518.739
  23638252.249    23638251.5484   23638253.8804  124219836.426 6  96794704.35242
      2096.759        1633.833
  20088822.217    20088822.1734   20088824.8784  105567554.244 8  82260409.97147
       662.441         516.189
  21641012.921    21641012.4974   21641014.8254  113724345.866 7  88616410.28645
     -1812.703       -1412.497
  20284626.198    20284625.9924   20284628.7634  106596490.411 8  83062219.23547
       -21.171         -16.493
  21115649.606    21115650.786    21115655.857   112914950.922 7  87822716.032 6
        72.942          56.738
  23394969.092    23394968.121    23394973.982   125059570.165 6  97268557.601 5
      3442.250        2677.305
  21830947.077    21830947.519    21830952.083   116903724.101 7  90925145.745 6
     -3291.736       -2560.240
  23058493.729    23058495.337    23058498.330   123433933.207 5  96004219.492 4
      4789.444        3725.124
 05  3 17  0  4  0.0000000  0 13G 5G 7G 8G 9G10G18G26G28G29R 1R 2R 8
                                R21
  25101836.621                                   131911032.957 5
      4034.596
  22413551.075    22413549.8814   22413553.2774  117784037.341 7  91779776.81644
      2004.884        1562.255
  23864296.568    23864295.9404   23864301.4684  125407861.062 5  97720424.77142
     -2602.199       -2027.715
  22479221.561    22479221.9864   22479224.8464  118129123.429 7  92048691.48944
      3206.457        2498.534
  24418914.333    24418914.3464   24418919.5374  128322323.045 5  99991421.62342
     -3231.633       -2518.136
  23632279.518    23632277.7694   23632281.0854  124188447.857 6  96770245.72742
      2088.811        1627.646
  20086943.638    20086943.4964   20086946.2414  105557681.870 9  82252717.20747
       654.306         509.850
  21646195.067    21646194.6194   21646196.5364  113751576.165 7  88637628.69845
     -1817.574       -1416.292
  20284698.280    20284697.8794   20284700.7214  106596868.244 8  83062513.64247
       -28.748         -22.401
  21115464.884    21115465.558    21115470.106   112913958.068 8  87821943.807 6
        59.878          46.570
  23385322.925    23385322.751    23385327.595   125008003.927 6  97228450.514 5
      3433.631        2670.601
  21840174.343    21840176.214    21840181.528   116953146.580 7  90963585.429 6
     -3297.466       -2564.699
  23045073.337    23045075.822    23045079.449   123362101.101 5  95948350.093 4
      4788.617        3724.479
 05  3 17  0  4 15.0000000  0 13G 5G 7G 8G 9G10G18G26G28G29R 1R 2R 8
                                R21
  25090325.291                                   131850534.500 5
      4032.608
  22407839.277    22407838.4854   22407842.2334  117754026.298 7  91756391.60044
      1997.193        1556.263
  23871728.161    23871728.3474   23871733.3614  125446914.503 5  97750855.97242
     -2604.314       -2029.330
  22470074.703    22470075.2644   22470078.0844  118081057.149 7  92011237.25044
      3203.023        2495.862
  24428141.166    24428139.4674   24428145.2634  128370806.299 6 100029200.75042
     -3232.165       -2518.541
  23626331.284    23626330.4004   23626333.4844  124157191.121 6  96745889.85842
      2079.418        1620.316
  20085090.488    20085090.1764   20085092.8844  105547942.490 8  82245128.07847
       644.888         502.511
  21651392.777    21651392.3584   21651394.5734  113778891.133 7  88658913.09745
     -1823.760       -1421.114
  20284793.773    20284793.5874   20284796.3664  106597371.183 8  83062905.54147
       -37.630         -29.320
  21115318.070    21115318.729    21115323.643   112913173.215 8  87821333.359 6
        45.421          35.328
  23375703.591    23375702.401    23375707.991   124956579.037 6  97188453.387 5
      3423.630        2662.826
  21849421.581    21849423.976    21849428.778   117002666.690 7  91002101.053 6
     -3304.561       -2570.209
  23031661.918    23031662.073    23031665.610   123290291.423 5  95892498.109 4
      4786.567        3722.896
 05  3 17  0  4 30.0000000  0 13G 5G 7G 8G 9G10G18G26G28G29R 1R 2R 8
                                R21
  25078819.424    25078817.3954   25078821.3604  131790058.987 5 102693581.02541
      4031.392        3141.355
  22402148.577    22402148.2464   22402152.6284  117724125.425 7  91733092.21244
      1990.230        1550.834
  23879163.930    23879163.5184   23879169.3894  125485993.249 5  97781306.95442
     -2605.618       -2030.350
  22460937.537    22460937.5314   22460940.6834  118033037.223 7  91973819.14244
      3200.298        2493.735
  24437367.381    24437367.6444   24437371.2044  128419291.952 6 100066981.75041
     -3231.891       -2518.342
  23620407.985    23620409.0624   23620410.5234  124126068.934 6  96721638.79942
      2070.848        1613.644
  20083262.715    20083262.7454   20083265.3734  105538338.880 8  82237644.74147
       636.235         495.768
  21656606.607    21656606.1354   21656609.1174  113806293.235 7  88680265.37845
     -1829.184       -1425.333
  20284913.782    20284913.5794   20284916.4974  106598002.013 8  83063397.09647
       -45.803         -35.691
  21115210.433    21115211.114    21115216.287   112912599.121 8  87820886.846 6
        31.808          24.739
  23366108.696    23366108.041    23366115.059   124905297.820 6  97148567.974 5
      3414.456        2655.693
  21858688.553    21858690.139    21858694.813   117052286.581 7  91040694.290 6
     -3310.781       -2575.047
  23018252.398    23018253.243    23018256.997   123218508.597 5  95836667.043 4
      4785.180        3721.804
 05  3 17  0  4 45.0000000  0 13G 5G 7G 8G 9G10G18G26G28G29R 1R 2R 8
                                R21
  25067313.760    25067312.1594   25067317.5834  131729600.195 5 102646470.32341
      4029.807        3140.130
  22396478.754    22396478.4424   22396482.3364  117694328.481 7  91709873.83144
      1982.806        1545.039
  23886604.370    23886604.2104   23886609.1394  125525090.578 5  97811772.38242
     -2607.295       -2031.657
  22451807.923    22451807.1514   22451810.8684  117985057.281 7  91936432.19344
      3197.136        2491.281
  24446592.765    24446590.4474   24446596.9744  128467772.986 5 100104759.13541
     -3232.120       -2518.518
  23614510.964    23614510.7644   23614513.0664  124095074.939 6  96697487.63542
      2061.798        1606.583
  20081459.928    20081459.6854   20081462.5094  105528864.605 8  82230262.19047
       627.106         488.654
  21661836.550    21661836.0234   21661838.8614  113833775.664 7  88701680.24545
     -1835.002       -1429.868
  20285057.027    20285056.7714   20285059.6494  106598754.258 8  83063983.25647
       -54.335         -42.340
  21115141.685    21115142.221    21115147.129   112912228.804 8  87820598.812 6
        17.675          13.748
  23356544.120    23356543.006    23356547.445   124854155.075 6  97108790.293 5
      3404.732        2648.129
  21867973.058    21867974.808    21867978.409   117101998.913 7  91079359.423 6
     -3317.440       -2580.227
  23004845.938    23004848.206    23004850.822   123146745.636 5  95780851.436 4
      4783.290        3720.344
 05  3 17  0  5  0.0000000  0 13G 5G 7G 8G 9G10G18G26G28G29R 1R 2R 8
                                R21
  25055813.067    25055811.3464   25055814.4454  131669156.140 5 102599371.08241
      4029.088        3139.507
  22390828.125    22390827.6284   22390831.5104  117664633.350 7  91686734.76844
      1976.158        1539.860
  23894048.200    23894046.6334   23894052.7504  125564204.421 5  97842250.64442
     -2608.209       -2032.400
  22442683.808    22442683.8044   22442687.4324  117937115.192 7  91899074.72644
      3194.780        2489.438
  24455818.075    24455817.3114   24455820.1924  128516246.899 6 100142530.99041
     -3231.432       -2518.016
  23608637.429    23608636.1744   23608638.0304  124064207.157 6  96673434.83542
      2053.574        1600.180
  20079681.284    20079681.1534   20079683.8784  105519517.742 8  82222978.92047
       618.813         482.187
  21667081.642    21667080.8464   21667083.2024  113861335.885 7  88723155.73845
     -1840.021       -1433.785
  20285222.857    20285222.4794   20285225.4894  106599625.730 8  83064662.31847
       -62.127         -48.412
  21115109.699    21115110.840    21115115.095   112912060.326 8  87820467.771 6
         4.433           3.448
  23347001.180    23346998.946    23347005.703   124803148.730 6  97069118.683 5
      3395.743        2641.141
  21877272.738    21877274.741    21877278.159   117151801.099 7  91118094.444 6
     -3323.179       -2584.693
  22991444.674    22991445.291    22991448.688   123075000.763 5  95725049.879 4
      4782.370        3719.611
 05  3 17  0  5 15.0000000  0 13G 5G 7G 8G 9G10G18G26G28G29R 1R 2R 8
                                R21
  25044313.515    25044312.2704   25044315.7724  131608727.247 5 102552283.71941
      4028.167        3138.807
  22385196.505    22385196.0774   22385199.9984  117635040.707 7  91663675.56744
      1969.545        1534.710
  23901495.213    23901493.7454   23901497.7934  125603334.766 5  97872741.80642
     -2609.141       -2033.089
  22433568.184    22433567.7394   22433571.7594  117889211.365 7  91861747.08444
      3192.415        2487.599
  24465040.713    24465038.9114   24465043.7034  128564713.741 6 100180297.35341
     -3230.737       -2517.449
  23602786.155    23602787.2384   23602788.9734  124033466.079 6  96649480.76642
      2045.279        1593.711
  20077926.886    20077926.7084   20077929.5034  105510298.468 9  82215795.06847
       610.479         475.700
  21672340.604    21672340.1614   21672342.8084  113888973.947 8  88744691.89445
     -1845.005       -1437.665
  20285411.442    20285411.1564   20285414.0484  106600616.884 8  83065434.64447
       -69.982         -54.529
  21115115.880    21115116.908    21115121.591   112912093.736 8  87820493.760 6
        -8.823          -6.862
  23337485.543    23337484.289    23337489.479   124752279.724 6  97029553.893 5
      3386.856        2634.222
  21886591.082    21886592.384    21886595.847   117201692.546 7  91156898.896 6
     -3328.939       -2589.175
  22978044.282    22978045.678    22978049.795   123003274.390 5  95669262.724 4
      4781.152        3718.673
 05  3 17  0  5 30.0000000  0 13G 5G 7G 8G 9G10G18G26G28G29R 1R 2R 8
                                R21
  25032818.430    25032814.4654   25032821.2894  131548313.433 5 102505208.12641
      4027.016        3137.941
  22379584.543    22379584.0624   22379588.6244  117605550.496 7  91640696.20344
      1962.556        1529.260
  23908942.294    23908939.9404   23908945.7844  125642481.402 5  97903245.66241
     -2610.384       -2034.076
  22424459.121    22424459.5524   22424463.6514  117841345.691 7  91824449.17644
      3189.733        2485.510
  24474262.778    24474261.2394   24474262.8474  128613172.805 6 100218057.64241
     -3230.409       -2517.207
  23596960.380    23596960.4734   23596963.0634  124002851.684 6  96625625.38042
      2036.693        1587.014
  20076196.793    20076196.7784   20076199.3664  105501206.850 9  82208710.69447
       601.818         468.950
  21677614.910    21677614.1204   21677616.6894  113916689.407 8  88766288.35245
     -1850.329       -1441.806
  20285622.549    20285622.5114   20285625.3994  106601727.485 8  83066300.04147
       -78.090         -60.846
  21115160.398    21115161.131    21115165.566   112912328.604 8  87820676.428 6
       -22.424         -17.444
  23327994.570    23327993.536    23327999.242   124701548.040 6  96990095.925 5
      3377.439        2626.899
  21895923.390    21895924.583    21895928.540   117251672.523 7  91195772.202 6
     -3334.967       -2593.861
  22964648.336    22964649.766    22964653.883   122931566.540 5  95613489.975 4
      4779.736        3717.557
 05  3 17  0  5 45.0000000  0 13G 5G 7G 8G 9G10G18G26G28G29R 1R 2R 8
                                R21
  25021327.048    25021322.7374   25021329.6434  131487920.572 5 102458148.80641
      4025.992        3137.151
  22373992.830    22373992.5404   22373997.6114  117576168.665 7  91617801.27944
      1955.605        1523.844
  23916395.828    23916394.9014   23916398.4834  125681650.018 5  97933766.64741
     -2611.531       -2034.950
  22415359.825    22415359.1034   22415362.5654  117793523.884 6  91787185.45744
      3187.083        2483.440
  24483483.339    24483481.2704   24483486.4634  128661629.486 5 100255816.10141
     -3229.911       -2516.847
  23591162.011    23591161.3044   23591163.0204  123972369.869 6  96601873.31742
      2028.130        1580.368
  20074492.381    20074492.0884   20074494.7104  105492248.520 8  82201730.17447
       593.208         462.242
  21682904.716    21682903.8784   21682906.3274  113944487.676 7  88787949.34045
     -1855.529       -1445.867
  20285858.217    20285857.7614   20285860.5334  106602963.331 8  83067263.03147
       -86.130         -67.112
  21115243.161    21115243.884    21115248.627   112912770.603 8  87821020.202 6
       -35.915         -27.930
  23318530.626    23318529.327    23318535.548   124650960.431 6  96950749.986 5
      3368.231        2619.739
  21905274.353    21905275.762    21905280.038   117301746.490 7  91234718.609 6
     -3340.891       -2598.468
  22951257.483    22951259.549    22951261.545   122859885.521 5  95557738.082 4
      4778.302        3716.458
 05  3 17  0  6  0.0000000  0 13G 5G 7G 8G 9G10G18G26G28G29R 1R 2R 8
                                R21
  25309628.967    25309626.1464   25309630.9904  133002968.151 5 103638705.42941
      4024.549        3136.042
  22668214.499    22668214.5364   22668218.4834  119122312.754 7  92822588.88144
      1948.353        1518.198
  24223644.559    24223645.3284   24223647.3194  127296253.108 5  99191898.98741
     -2613.007       -2036.097
  22706059.820    22706059.4004   22706062.8124  119321164.559 7  92977554.81744
      3184.113        2481.133
  24792494.684    24792494.1974   24792496.8494  130285495.439 6 101521166.16741
     -3229.710       -2516.650
  23885177.663    23885176.8004   23885179.5444  125517438.207 6  97805822.67742
      2019.262        1573.453
  20372604.212    20372604.3804   20372607.0794  107058839.512 8  83422450.42147
       584.302         455.303
  21988001.377    21988000.8314   21988003.1774  115547781.953 7  90037269.54845
     -1861.032       -1450.155
  20585908.706    20585908.3264   20585911.1924  108179739.554 8  84295919.81847
       -94.487         -73.625
  21415155.387    21415156.033    21415161.151   114516539.770 8  89068396.216 6
       -49.721         -38.672
  23608889.956    23608886.250    23608891.213   126203077.754 6  98157952.367 5
      3358.523        2612.181
  22214433.164    22214435.134    22214439.297   118957280.369 7  92522356.064 6
     -3347.166       -2603.354
  23237663.448    23237666.273    23237667.978   124393042.592 5  96750193.575 4
      4776.651        3715.179
 05  3 17  0  6 15.0000000  0 13G 5G 7G 8G 9G10G18G26G28G29R 1R 2R 8
                                R21
  25298142.272    25298140.5364   25298145.0854  132942607.334 5 103591671.18041
      4023.209        3134.937
  22662662.464    22662662.1964   22662666.7624  119093138.044 7  92799855.35544
      1941.260        1512.661
  24231104.650    24231104.3794   24231108.4734  127335455.143 5  99222446.00841
     -2614.234       -2037.082
  22696974.443    22696973.9234   22696977.7274  119273420.428 6  92940351.62444
      3181.353        2478.978
  24801711.238    24801711.1254   24801716.4884  130333935.853 5 101558911.94141
     -3229.348       -2516.385
  23879425.175    23879424.6094   23879427.4674  125487211.786 6  97782269.61642
      2010.518        1566.645
  20370948.525    20370948.5044   20370951.1454  107050137.837 8  83415669.89847
       575.563         448.491
  21993320.677    21993320.3344   21993322.5334  115575734.617 7  90059050.84345
     -1866.328       -1454.280
  20586189.367    20586189.1744   20586191.9954  108181215.396 8  84297069.82347
      -102.684         -80.014
  21415314.467    21415315.192    21415319.255   114517384.974 8  89069053.593 6
       -63.373         -49.286
  23599474.918    23599472.978    23599479.926   126152767.922 6  98118822.486 5
      3349.005        2604.784
  22223818.435    22223819.595    22223822.745   119007529.618 7  92561438.811 6
     -3353.113       -2607.980
  23224283.151    23224282.989    23224286.665   124321403.567 5  96694474.356 4
      4774.984        3713.870
 05  3 17  0  6 30.0000000  0 13G 5G 7G 8G 9G10G18G26G28G29R 1R 2R 8
                                R21
  25286659.964    25286658.3204   25286661.0134  132882268.033 5 103544653.50341
      4022.141        3134.168
  22657130.660    22657131.1344   22657136.0724  119064072.521 7  92777206.90244
      1934.329        1507.265
  24238569.867    24238568.2284   24238573.3814  127374678.966 5  99253009.99241
     -2615.377       -2037.922
  22687897.599    22687897.3294   22687900.9844  119225720.542 6  92903182.87544
      3178.750        2476.945
  24810927.228    24810927.2964   24810930.9914  130382372.973 5 101596655.13241
     -3228.756       -2515.915
  23873699.463    23873698.4224   23873701.6894  125457118.609 6  97758820.40242
      2002.025        1560.019
  20369318.069    20369318.0214   20369320.8274  107041569.865 8  83408993.55347
       566.955         441.782
  21998655.484    21998655.1054   21998657.5034  115603769.330 7  90080896.07645
     -1871.496       -1458.311
  20586494.339    20586493.9414   20586496.7114  108182816.779 8  84298317.64647
      -110.731         -86.284
  21415510.579    21415511.310    21415515.695   114518437.135 8  89069871.929 6
       -76.782         -59.718
  23590092.722    23590090.369    23590094.699   126102603.355 6  98079805.611 5
      3339.723        2597.558
  22233217.639    22233219.717    22233224.632   119057870.873 7  92600593.103 6
     -3358.908       -2612.488
  23210904.242    23210905.463    23210909.045   124249791.256 5  96638775.901 4
      4773.568        3712.771
 05  3 17  0  6 45.0000000  0 13G 5G 7G 8G 9G10G18G26G28G29R 1R 2R 8
                                R21
  25275179.356    25275177.5984   25275184.8254  132821944.728 5 103497648.42941
      4020.708        3132.987
  22651621.241    22651620.5824   22651624.8494  119035110.530 7  92754639.12544
      1927.076        1501.617
  24246036.872    24246036.0614   24246040.4244  127413918.746 6  99283586.41941
     -2616.817       -2039.069
  22678827.880    22678827.5074   22678831.2184  119178059.152 7  92866044.14744
      3175.899        2474.729
  24820142.690    24820142.5054   24820152.5074  130430800.629 5 101634390.91041
     -3228.479       -2515.667
  23867997.208    23867996.6584   23867998.2254  125427153.183 6  97735470.72542
      1993.158        1553.104
  20367711.804    20367711.9184   20367714.6684  107033129.907 9  83402416.95947
       558.136         434.915
  22004004.552    22004004.1234   22004006.6084  115631880.023 8  90102800.50945
     -1876.834       -1462.464
  20586821.601    20586821.4794   20586824.2184  108184537.794 8  84299658.69347
      -119.005         -92.732
  21415744.746    21415745.540    21415750.304   114519689.897 8  89070846.296 6
       -90.487         -70.378
  23580730.164    23580731.135    23580736.361   126052578.242 6  98040897.213 5
      3330.064        2590.058
  22242634.482    22242636.188    22242641.182   119108297.888 7  92639814.102 6
     -3364.920       -2617.162
  23197530.270    23197531.943    23197535.662   124178200.455 5  96583094.186 4
      4771.757        3711.367
 05  3 17  0  7  0.0000000  0 13G 5G 7G 8G 9G10G18G26G28G29R 1R 2R 8
                                R21
  25263705.328    25263702.3724   25263706.6604  132761638.716 5 103450656.77741
      4019.341        3132.035
  22646130.182    22646128.8444   22646133.3054  119006253.614 7  92732153.22144
      1919.877        1496.010
  24253507.358    24253507.2834   24253511.2924  127453175.420 6  99314176.04741
     -2618.108       -2040.083
  22669765.602    22669765.6934   22669768.8714  119130437.492 7  92828936.37244
      3173.030        2472.486
  24829358.599    24829357.0224   24829362.1314  130479219.561 5 101672119.88041
     -3228.107       -2515.400
  23862319.017    23862318.9074   23862320.4324  125397316.742 6  97712221.55042
      1984.367        1546.268
  20366130.638    20366130.5304   20366133.1624  107024819.206 8  83395941.08447
       549.284         428.016
  22009368.591    22009368.3394   22009370.5514  115660067.664 7  90124764.89445
     -1882.188       -1466.638
  20587172.000    20587171.9904   20587174.6944  108186379.683 8  84301093.92647
      -127.267         -99.166
  21416016.871    21416017.339    21416022.234   114521144.545 8  89071977.681 6
      -104.154         -81.004
  23571401.275    23571400.012    23571405.669   126002694.971 6  98002099.120 5
      3320.400        2582.528
  22252069.120    22252070.028    22252074.508   119158810.996 7  92679102.033 6
     -3370.860       -2621.774
  23184161.201    23184161.686    23184166.049   124106633.036 5  96527430.635 4
      4769.950        3709.966
 05  3 17  0  7 15.0000000  0 13G 5G 7G 8G 9G10G18G26G28G29R 1R 2R 8
                                R21
  25252234.491    25252229.4604   25252237.1414  132701355.721 5 103403683.06541
      4018.064        3130.966
  22640659.686    22640658.5734   22640662.8234  118977507.383 7  92709753.57544
      1912.739        1490.451
  24260982.360    24260980.4564   24260986.3184  127492454.622 6  99344783.15842
     -2619.400       -2041.099
  22660711.713    22660711.5514   22660715.7234  119082861.121 6  92791863.89044
      3170.249        2470.313
  24838571.772    24838569.8834   24838575.6744  130527634.806 5 101709846.00341
     -3227.549       -2514.971
  23856666.851    23856666.4664   23856668.7654  125367614.905 6  97689077.26342
      1975.636        1539.447
  20364574.954    20364574.7504   20364577.3914  107016643.311 9  83389570.25747
       540.568         421.220
  22014748.425    22014747.9034   22014750.0594  115688337.376 7  90146793.23745
     -1887.397       -1470.696
  20587546.440    20587546.5254   20587549.2744  108188347.936 8  84302627.63047
      -135.432        -105.530
  21416327.566    21416328.492    21416333.039   114522806.385 8  89073270.230 6
      -117.706         -91.550
  23562097.738    23562096.481    23562100.935   125952958.743 6  97963415.420 5
      3310.823        2575.090
  22261517.177    22261519.307    22261524.433   119209415.285 7  92718460.927 6
     -3376.684       -2626.305
  23170794.923    23170797.114    23170802.869   124035095.545 5  96471790.386 4
      4768.137        3708.550
 05  3 17  0  7 30.0000000  0 13G 5G 7G 8G 9G10G18G26G28G29R 1R 2R 8
                                R21
  25240763.755    25240762.6974   25240768.0814  132641085.182 5 103356719.08641
      4017.541        3130.505
  22635208.684    22635207.9744   22635211.9564  118948861.527 7  92687432.14244
      1906.271        1485.410
  24268459.018    24268459.0994   24268464.0744  127531745.541 6  99375399.43742
     -2619.873       -2041.455
  22651665.008    22651665.0414   22651669.0124  119035319.557 7  92754818.53244
      3168.177        2468.714
  24847782.070    24847780.8314   24847784.7564  130576035.433 5 101747560.79441
     -3226.309       -2514.017
  23851039.808    23851037.0344   23851040.8264  125338037.261 6  97666029.74842
      1967.619        1533.217
  20363042.698    20363042.5644   20363045.2184  107008591.794 8  83383296.34347
       532.531         414.959
  22020141.210    22020141.0624   22020142.9994  115716678.235 7  90168877.01545
     -1891.853       -1474.173
  20587943.133    20587943.0774   20587945.8624  108190431.912 8  84304251.50147
      -142.898        -111.348
  21416675.189    21416676.200    21416680.726   114524664.510 8  89074715.428 6
      -130.535        -101.526
  23552817.508    23552816.080    23552822.266   125903359.340 6  97924838.118 5
      3301.935        2568.179
  22270982.845    22270984.922    22270988.812   119260099.400 7  92757881.894 6
     -3381.717       -2630.223
  23157435.670    23157436.586    23157442.759   123963577.385 5  96416165.179 4
      4767.195        3707.815
 05  3 17  0  7 45.0000000  0 13G 5G 7G 8G 9G10G18G26G28G29R 1R 2R 8
                                R21
  25229296.157    25229296.3444   25229301.8114  132580829.971 5 103309767.03241
      4016.596        3129.816
  22629776.586    22629776.3404   22629780.5364  118920318.709 7  92665190.99244
      1899.437        1480.084
  24275937.810    24275936.2414   24275941.9584  127571050.531 5  99406026.69442
     -2620.791       -2042.152
  22642625.555    22642625.0644   22642629.0124  118987815.428 7  92717802.33844
      3165.705        2466.788
  24856988.796    24856988.8204   24856994.9024  130624423.660 5 101785265.86641
     -3225.411       -2513.301
  23845434.509    23845433.6334   23845437.1214  125308586.473 6  97643081.10443
      1959.161        1526.623
  20361534.638    20361534.5634   20361537.2014  107000667.078 8  83377121.24047
       524.094         408.386
  22025548.419    22025548.0034   22025550.1754  115745092.512 7  90191018.01345
     -1896.693       -1477.946
  20588362.388    20588362.1464   20588364.9844  108192634.201 8  84305967.56747
      -150.759        -117.473
  21417059.742    21417060.461    21417065.397   114526721.196 7  89076315.060 6
      -143.742        -111.798
  23543566.741    23543565.219    23543570.855   125853899.889 6  97886369.660 5
      3292.628        2560.930
  22280464.262    22280465.586    22280469.718   119310865.364 7  92797366.520 6
     -3387.064       -2634.381
  23144080.241    23144081.155    23144086.136   123892080.982 5  96360556.877 4
      4765.676        3706.631
 05  3 17  0  8  0.0000000  0 13G 5G 7G 8G 9G10G18G26G28G29R 1R 2R 8
                                R21
  25217833.929    25217832.6484   25217838.4634  132520594.329 5 103262830.22041
      4015.266        3128.782
  22624365.700    22624365.2234   22624369.5994  118891883.395 7  92643033.60544
      1892.327        1474.539
  24283420.874    24283421.3734   24283424.4154  127610373.773 6  99436668.15542
     -2621.944       -2043.075
  22633594.658    22633593.4894   22633597.3144  118940353.061 7  92680818.68044
      3162.959        2464.644
  24866196.086    24866192.8874   24866201.0834  130672803.323 5 101822964.26941
     -3224.791       -2512.795
  23839853.487    23839854.3924   23839856.6204  125279267.013 6  97620234.76542
      1950.488        1519.854
  20360051.425    20360051.4664   20360054.1134  106992873.610 8  83371048.40047
       515.401         401.614
  22030970.084    22030969.6954   22030971.9624  115773584.103 7  90213219.23945
     -1901.806       -1481.923
  20588804.590    20588804.4984   20588807.4264  108194959.028 8  84307779.11647
      -158.849        -123.775
  21417481.370    21417482.906    21417487.749   114528981.002 8  89078072.681 6
      -157.183        -122.251
  23534338.836    23534339.352    23534345.129   125804585.303 6  97848013.880 5
      3283.057        2553.491
  22289960.309    22289961.117    22289965.747   119361716.623 7  92836917.477 6
     -3392.675       -2638.746
  23130728.402    23130730.440    23130734.452   123820612.027 5  96304969.925 4
      4763.913        3705.277
 05  3 17  0  8 15.0000000  0 13G 5G 7G 8G 9G10G18G26G28G29R 1R 2R 8
                                R21
  25206375.029    25206376.0204   25206379.0084  132460376.424 5 103215907.25841
      4014.022        3127.775
  22618975.199    22618974.1494   22618978.6294  118863553.613 7  92620958.47044
      1885.224        1469.000
  24290905.838    24290907.0824   24290912.2414  127649713.199 6  99467322.24142
     -2623.083       -2043.960
  22624569.641    22624569.3344   22624573.0954  118892930.379 7  92643865.96244
      3160.273        2462.557
  24875400.719    24875399.3034   24875403.4044  130721171.898 5 101860654.06241
     -3224.099       -2512.290
  23834300.020    23834300.1614   23834301.9894  125250076.844 6  97597489.19243
      1941.773        1513.072
  20358592.764    20358592.9284   20358595.7174  106985209.242 8  83365076.17247
       506.746         394.869
  22036406.246    22036405.8764   22036407.9944  115802150.707 7  90235478.93045
     -1906.830       -1485.842
  20589270.351    20589269.8824   20589272.6704  108197404.473 8  84309684.65847
      -166.955        -130.092
  21417942.511    21417943.495    21417947.565   114531440.969 8  89079985.984 6
      -170.570        -132.663
  23525139.864    23525140.374    23525146.142   125755413.573 6  97809769.188 5
      3273.403        2545.985
  22299471.522    22299473.350    22299477.017   119412650.486 7  92876532.706 6
     -3398.230       -2643.063
  23117385.078    23117384.597    23117386.595   123749168.799 5  96249402.973 4
      4762.082        3703.847
 05  3 17  0  8 30.0000000  0 13G 5G 7G 8G 9G10G18G26G28G29R 1R 2R 8
                                R21
  25194920.245    25194918.3484   25194923.8164  132400180.931 5 103169001.72741
      4012.407        3126.549
  22613605.528    22613604.4584   22613608.3184  118835334.176 7  92598969.30244
      1877.744        1463.185
  24298396.164    24298395.3464   24298401.5334  127689073.437 6  99497992.51442
     -2624.555       -2045.098
  22615553.876    22615553.9344   22615556.8444  118845552.000 7  92606947.75744
      3157.217        2460.165
  24884603.927    24884602.9794   24884609.5984  130769533.539 5 101898338.45541
     -3223.704       -2511.958
  23828770.836    23828770.5974   23828773.1864  125221020.545 6  97574847.92942
      1932.753        1506.056
  20357159.846    20357159.9094   20357162.6384  106977678.633 8  83359208.16347
       497.714         387.831
  22041857.801    22041857.1214   22041859.0624  115830796.479 7  90257800.30345
     -1912.225       -1490.043
  20589759.204    20589758.9224   20589761.7534  108199974.931 8  84311687.61147
      -175.436        -136.704
  21418441.137    21418441.076    21418446.260   114534105.884 8  89082058.689 6
      -184.331        -143.370
  23515969.769    23515969.852    23515975.713   125706389.736 6  97771639.548 5
      3263.416        2538.210
  22308999.709    22309001.289    22309004.305   119463671.201 7  92916215.464 6
     -3404.113       -2647.640
  23104041.162    23104043.840    23104047.604   123677756.348 5  96193859.944 4
      4759.958        3702.181
 05  3 17  0  8 45.0000000  0 13G 5G 7G 8G 9G10G18G26G28G29R 1R 2R 8
                                R21
  25183468.560    25183468.7914   25183472.8034  132340006.691 5 103122112.73141
      4010.885        3125.382
  22608256.131    22608255.0804   22608258.9824  118807224.009 7  92577065.29044
      1870.332        1457.407
  24305890.734    24305889.7844   24305894.1964  127728452.700 5  99528677.65342
     -2625.924       -2046.149
  22606546.828    22606546.0924   22606549.0604  118798216.754 7  92570063.15144
      3154.204        2457.826
  24893804.988    24893803.2014   24893810.5484  130817886.588 5 101936016.13041
     -3223.235       -2511.597
  23823266.926    23823266.4574   23823269.9444  125192097.131 6  97552310.21242
      1923.760        1499.012
  20355752.225    20355752.1654   20355754.8304  106970280.574 8  83353443.44047
       488.769         380.859
  22047323.897    22047323.2664   22047325.1034  115859519.942 8  90280182.22145
     -1917.495       -1494.148
  20590271.887    20590271.6424   20590274.5364  108202669.171 8  84313787.01647
      -183.739        -143.173
  21418977.002    21418977.890    21418982.591   114536974.129 7  89084289.537 6
      -198.029        -154.024
  23506826.214    23506825.427    23506832.545   125657513.010 6  97733624.293 5
      3253.512        2530.515
  22318542.209    22318544.195    22318547.589   119514776.559 7  92955964.074 6
     -3409.848       -2652.101
  23090707.793    23090709.082    23090714.162   123606373.999 5  96138340.371 4
      4757.770        3700.479
 05  3 17  0  9  0.0000000  0 13G 5G 7G 8G 9G10G18G26G28G29R 1R 2R 8
                                R21
  25172020.745    25172020.3314   25172025.0944  132279849.897 5 103075237.38941
      4009.648        3124.395
  22602926.733    22602926.0694   22602930.1164  118779219.342 7  92555243.48045
      1863.280        1451.905
  24313386.272    24313386.2224   24313391.1614  127767846.941 5  99559374.43242
     -2626.925       -2046.931
  22597545.893    22597545.6704   22597548.9714  118750920.709 7  92533209.09144
      3151.585        2455.779
  24903002.889    24903003.1864   24903007.0944  130866226.769 5 101973683.72641
     -3222.447       -2511.021
  23817787.929    23817787.5974   23817790.5344  125163302.898 6  97529873.14443
      1915.095        1492.288
  20354368.840    20354368.8054   20354371.5424  106963011.252 8  83347779.02647
       480.139         374.138
  22052803.613    22052802.9434   22052804.8384  115888316.899 7  90302621.40645
     -1922.409       -1497.979
  20590807.689    20590807.2114   20590810.0474  108205483.284 8  84315979.82647
      -191.787        -149.444
  21419551.271    21419551.664    21419556.290   114540041.609 8  89086675.349 6
      -211.325        -164.363
  23497710.923    23497710.483    23497715.357   125608780.258 6  97695721.061 5
      3243.870        2523.007
  22328100.828    22328102.445    22328106.336   119565961.925 7  92995774.905 6
     -3415.193       -2656.262
  23077377.095    23077379.075    23077383.708   123535017.107 5  96082840.594 4
      4756.134        3699.212
 05  3 17  0  9 15.0000000  0 13G 5G 7G 8G 9G10G18G26G28G29R 1R 2R 8
                                R21
  25160578.351    25160577.0234   25160582.8874  132219714.095 5 103028378.37441
      4008.723        3123.685
  22597617.821    22597617.5734   22597621.8884  118751323.763 7  92533506.67644
      1856.447        1446.578
  24320886.763    24320885.8594   24320890.1484  127807259.588 5  99590085.62141
     -2627.777       -2047.631
  22588553.452    22588553.4024   22588557.3354  118703667.244 7  92496388.22044
      3149.189        2453.910
  24912202.933    24912200.1304   24912205.0294  130914557.044 6 102011343.63641
     -3221.280       -2510.069
  23812334.080    23812333.1984   23812336.0514  125134641.142 6  97507539.31343
      1906.726        1485.749
  20353010.755    20353010.6274   20353013.4274  106955873.913 8  83342217.46447
       471.801         367.637
  22058297.531    22058296.9554   22058299.3224  115917190.192 7  90325120.08145
     -1927.041       -1501.590
  20591366.774    20591366.1584   20591368.8904  108208420.517 8  84318268.57647
      -199.538        -155.482
  21420161.775    21420162.612    21420167.644   114543311.507 7  89089218.597 6
      -224.367        -174.503
  23488619.430    23488619.723    23488625.677   125560194.458 6  97657932.127 5
      3234.489        2515.721
  22337674.704    22337676.217    22337679.976   119617230.034 7  93035650.094 6
     -3420.256       -2660.197
  23064051.329    23064055.121    23064059.469   123463690.974 5  96027364.714 4
      4754.421        3697.876
 05  3 17  0  9 30.0000000  0 13G 5G 7G 8G 9G10G18G26G28G29R 1R 2R 8
                                R21
  25149141.631    25149141.0674   25149144.2114  132159601.776 5 102981537.65441
      4006.965        3122.298
  22592331.563    22592330.6244   22592334.8044  118723539.890 7  92511856.90845
      1848.758        1440.588
  24328390.096    24328390.1794   24328395.3434  127846692.864 5  99620812.79541
     -2629.315       -2048.809
  22579570.994    22579570.4664   22579574.2884  118656458.882 7  92459602.49544
      3145.981        2451.417
  24921397.564    24921395.8554   24921400.6404  130962879.547 5 102048997.51041
     -3221.014       -2509.885
  23806904.894    23806905.3234   23806907.7124  125106114.535 6  97485310.79643
      1897.508        1478.572
  20351678.301    20351678.0454   20351680.8174  106948871.213 8  83336760.81147
       462.613         360.478
  22063807.137    22063806.3554   22063808.4634  115946142.194 7  90347680.07445
     -1932.490       -1505.838
  20591949.405    20591949.0074   20591951.8824  108211483.369 8  84320655.21247
      -208.122        -162.172
  21420811.625    21420812.595    21420817.585   114546786.276 7  89091921.195 6
      -238.192        -185.261
  23479560.657    23479560.784    23479565.622   125511759.103 6  97620260.184 5
      3224.254        2507.753
  22347264.996    22347265.866    22347270.630   119668583.141 7  93075591.368 6
     -3426.107       -2664.749
  23050735.137    23050736.650    23050740.457   123392398.132 5  95971914.735 4
      4752.009        3696.021
 05  3 17  0  9 45.0000000  0 13G 5G 7G 8G 9G10G18G26G28G29R 1R 2R 8
                                R21
  25137706.875    25137703.3784   25137709.0444  132099512.310 5 102934714.74141
      4005.443        3121.088
  22587064.959    22587064.5094   22587068.8714  118695866.985 7  92490293.61744
      1841.408        1434.864
  24335898.977    24335898.7874   24335900.3414  127886145.796 5  99651555.32441
     -2630.564       -2049.770
  22570595.237    22570595.3254   22570598.4304  118609294.870 7  92422851.32444
      3143.031        2449.113
  24930592.227    24930587.2174   24930592.2594  131011192.953 5 102086644.29741
     -3220.384       -2509.421
  23801501.528    23801502.0564   23801504.1944  125077722.388 6  97463187.04843
      1888.577        1471.618
  20350371.142    20350370.9904   20350373.6214  106942002.142 8  83331408.28147
       453.714         353.545
  22069331.151    22069330.7534   22069332.6074  115975171.564 7  90370300.36045
     -1937.612       -1509.827
  20592555.790    20592555.4904   20592558.4174  108214671.024 8  84323139.09347
      -216.418        -168.636
  21421499.333    21421500.329    21421505.258   114550464.605 7  89094782.111 6
      -251.778        -195.827
  23470527.063    23470527.536    23470532.485   125463473.569 6  97582704.780 5
      3214.307        2500.019
  22356869.869    22356871.189    22356875.491   119720019.630 7  93115597.521 6
     -3431.596       -2669.020
  23037424.153    23037425.072    23037429.745   123321137.805 5  95916490.076 4
      4749.722        3694.229
 05  3 17  0 10  0.0000000  0 13G 5G 7G 8G 9G10G18G26G28G29R 1R 2R 8
                                R21
  25126274.170    25126272.6814   25126276.7664  132039441.226 5 102887906.16541
      4003.687        3119.747
  22581819.222    22581818.3894   22581822.7174  118668300.772 7  92468813.45345
      1833.825        1428.959
  24343409.570    24343408.1444   24343412.9594  127925613.675 5  99682309.54241
     -2631.982       -2050.888
  22561627.914    22561627.7294   22561631.0074  118562170.673 7  92386131.16244
      3139.938        2446.707
  24939782.432    24939780.1404   24939786.7754  131059492.315 5 102124280.11341
     -3219.730       -2508.874
  23796124.601    23796123.5504   23796125.7214  125049460.225 6  97441164.56743
      1879.495        1464.559
  20349088.437    20349088.4074   20349091.0464  106935262.367 8  83326156.50247
       444.669         346.502
  22074869.040    22074868.6064   22074870.6134  116004273.421 7  90392977.12745
     -1942.885       -1513.931
  20593185.148    20593185.0524   20593187.8904  108217978.817 8  84325716.58647
      -224.870        -175.222
  21422223.859    21422225.567    21422230.388   114554341.477 8  89097797.444 6
      -265.452        -206.460
  23461521.982    23461520.740    23461526.303   125415333.559 6  97545262.544 5
      3204.095        2492.072
  22366488.782    22366490.329    22366495.849   119771533.895 7  93155664.161 6
     -3437.239       -2673.404
  23024117.799    23024117.611    23024122.412   123249905.840 5  95861087.471 4
      4747.582        3692.562
 05  3 17  0 10 15.0000000  0 13G 5G 7G 8G 9G10G18G26G28G29R 1R 2R 8
                                R21
  25114849.014    25114846.1774   25114850.6334  131979392.677 5 102841115.10741
      4002.633        3118.922
  22576595.386    22576594.5024   22576598.2604  118640845.320 7  92447419.60945
      1826.873        1423.537
  24350923.957    24350922.8654   24350926.0514  127965100.471 6  99713078.47441
     -2632.898       -2051.598
  22552668.609    22552668.4834   22552671.8614  118515090.284 7  92349445.15544
      3137.435        2444.752
  24948970.737    24948969.7964   24948974.5204  131107781.333 5 102161907.88841
     -3218.705       -2508.050
  23790771.736    23790771.7384   23790773.8384  125021332.270 6  97419246.69843
      1870.935        1457.886
  20347831.401    20347831.2204   20347833.8364  106928655.765 8  83321008.50147
       436.196         339.895
  22080421.835    22080420.7924   22080423.1514  116033451.460 7  90415713.26345
     -1947.541       -1517.560
  20593838.465    20593838.0244   20593840.9704  108221410.813 8  84328390.86947
      -232.740        -181.356
  21422987.764    21422988.426    21422992.809   114558420.986 7  89100970.393 6
      -278.544        -216.638
  23452547.546    23452545.782    23452550.014   125367343.725 6  97507937.144 5
      3194.544        2484.648
  22376124.768    22376126.528    22376130.718   119823129.633 7  93195794.169 6
     -3442.191       -2677.261
  23010815.372    23010816.971    23010821.228   123178707.201 5  95805710.777 4
      4745.621        3691.049
 05  3 17  0 10 30.0000000  0 13G 5G 7G 8G 9G10G18G26G28G29R 1R 2R 8
                                R21
  25103425.407    25103423.0694   25103427.3534  131919362.983 6 102794338.76141
      4001.126        3117.792
  22571390.333    22571389.9034   22571394.4614  118613497.115 7  92426109.32144
      1819.428        1417.735
  24358440.619    24358440.6914   24358443.9784  128004602.249 6  99743859.09741
     -2634.172       -2052.606
  22543717.773    22543717.4564   22543720.8994  118468049.970 7  92312790.37444
      3134.497        2442.472
  24958156.769    24958154.4794   24958162.0994  131156055.575 5 102199524.15241
     -3217.965       -2507.457
  23785444.193    23785443.3074   23785445.5314  124993334.757 6  97397430.46543
      1861.888        1450.822
  20346598.686    20346598.6794   20346601.3124  106922178.661 8  83315961.40747
       427.279         332.946
  22085987.597    22085986.7874   22085988.9024  116062701.599 7  90438505.57645
     -1952.610       -1521.513
  20594514.174    20594514.0254   20594517.0404  108224963.105 8  84331158.88547
      -241.026        -187.811
  21423788.253    21423788.268    21423792.947   114562699.229 8  89104297.912 6
      -292.041        -227.145
  23443594.287    23443593.350    23443600.257   125319499.946 6  97470725.300 5
      3184.560        2476.884
  22385774.061    22385775.194    22385779.739   119874802.165 7  93235983.911 6
     -3447.607       -2681.473
  22997520.236    22997522.642    22997526.406   123107537.657 5  95750356.711 4
      4743.472        3689.370
 05  3 17  0 10 45.0000000  0 13G 5G 7G 8G 9G10G18G26G28G29R 1R 2R 8
                                R21
  25092005.067    25092004.1384   25092007.7564  131859354.685 5 102747579.09841
      4000.174        3117.028
  22566206.594    22566206.3304   22566211.0774  118586258.612 7  92404884.52444
      1812.596        1412.415
  24365961.090    24365961.0524   24365964.5954  128044121.325 6  99774653.15641
     -2634.769       -2053.061
  22534774.555    22534773.2594   22534777.4084  118421052.230 7  92276168.77544
      3132.134        2440.620
  24967341.485    24967341.6464   24967341.9164  131204317.290 5 102237130.64541
     -3216.629       -2506.479
  23780141.491    23780140.8534   23780143.7264  124965470.143 6  97375717.76343
      1853.607        1444.380
  20345391.307    20345391.2084   20345393.9154  106915833.484 8  83311017.11347
       418.994         326.490
  22091567.723    22091567.3664   22091569.4454  116092025.915 7  90461355.68845
     -1957.026       -1524.960
  20595213.655    20595213.3274   20595216.3384  108228638.068 8  84334022.49047
      -248.714        -193.804
  21424624.980    21424626.268    21424630.569   114567177.938 7  89107781.350 6
      -304.867        -237.116
  23434675.866    23434672.001    23434676.969   125271805.841 6  97433629.886 5
      3175.054        2469.485
  22395439.323    22395440.559    22395444.492   119926553.394 7  93276234.852 6
     -3452.306       -2685.126
  22984233.608    22984233.770    22984237.613   123036400.772 5  95695028.033 4
      4741.711        3687.996
 05  3 17  0 11  0.0000000  0 13G 5G 7G 8G 9G10G18G26G28G29R 1R 2R 8
                                R21
  25080591.008    25080589.7184   25080594.1064  131799374.001 5 102700840.93541
      3997.721        3115.084
  22561045.832    22561045.1934   22561049.7294  118559136.111 7  92383750.11545
      1804.239        1405.902
  24373486.470    24373486.3464   24373489.3214  128083663.697 6  99805465.34942
     -2636.991       -2054.784
  22525839.903    22525839.3814   22525843.0644  118374103.160 7  92239585.09244
      3128.275        2437.615
  24976523.985    24976522.1984   24976526.7414  131252572.160 5 102274731.80141
     -3216.812       -2506.561
  23774866.154    23774864.7234   23774867.3904  124937744.711 6  97354113.54242
      1843.641        1436.589
  20344210.384    20344210.0164   20344212.7594  106909626.317 8  83306180.35647
       409.152         318.820
  22097163.628    22097162.9844   22097164.9634  116121430.206 7  90484268.11745
     -1962.993       -1529.608
  20595937.284    20595937.2534   20595940.1674  108232441.969 8  84336986.56347
      -257.952        -201.001
  21425501.324    21425502.190    21425507.144   114571863.377 8  89111425.570 6
      -319.313        -248.352
  23425779.095    23425779.302    23425784.049   125224267.823 6  97396655.901 5
      3163.905        2460.818
  22405117.927    22405119.351    22405123.470   119978389.020 7  93316551.442 6
     -3458.557       -2689.986
  22970950.781    22970952.604    22970955.771   122965303.689 5  95639730.311 4
      4738.417        3685.430
 05  3 17  0 11 15.0000000  0 13G 5G 7G 8G 9G10G18G26G28G29R 1R 2R 8
                                R21
  25069180.643    25069181.1384   25069184.8944  131739419.884 5 102654123.50441
      3995.539        3113.388
  22555907.414    22555905.9904   22555910.1294  118532128.777 7  92362705.45145
      1796.109        1399.560
  24381015.094    24381013.9774   24381018.4634  128123228.041 6  99836294.68742
     -2638.869       -2056.260
  22516914.680    22516914.1644   22516917.8964  118327201.614 7  92203038.44144
      3124.679        2434.811
  24985703.720    24985703.9124   24985708.2844  131300818.622 5 102312326.45341
     -3216.676       -2506.489
  23769615.884    23769615.8624   23769617.7494  124910157.376 6  97332616.91943
      1834.014        1429.109
  20343054.899    20343054.9724   20343057.6464  106903556.099 8  83301450.32147
       399.601         311.377
  22102773.675    22102773.0114   22102775.3314  116150913.033 7  90507241.75145
     -1968.639       -1534.003
  20596685.599    20596685.2654   20596688.2764  108236373.510 8  84340050.09747
      -266.869        -207.949
  21426415.911    21426416.586    21426421.368   114576753.988 7  89115229.377 6
      -333.402        -259.315
  23416916.572    23416914.208    23416921.288   125176885.125 6  97359802.669 5
      3153.139        2452.445
  22414813.869    22414815.410    22414820.151   120030307.030 7  93356932.103 6
     -3464.425       -2694.548
  22957674.157    22957677.229    22957681.582   122894245.062 5  95584462.528 5
      4735.410        3683.093
 05  3 17  0 11 30.0000000  0 13G 5G 7G 8G 9G10G18G26G28G29R 1R 2R 8
                                R21
  25057777.541    25057778.2094   25057781.2084  131679493.990 5 102607428.11141
      3994.476        3112.572
  22550789.574    22550788.6804   22550793.6244  118505238.045 7  92341751.64045
      1789.251        1394.216
  24388547.903    24388547.5464   24388550.9164  128162815.699 6  99867142.20042
     -2639.520       -2056.786
  22507999.322    22507998.8434   22508002.2874  118280349.148 7  92166530.02944
      3122.311        2432.973
  24994883.604    24994883.2164   24994884.6324  131349057.610 5 102349915.24141
     -3215.172       -2505.294
  23764391.682    23764391.9204   23764394.6804  124882709.732 6  97311229.14742
      1825.592        1422.548
  20341926.086    20341926.0504   20341928.8504  106897624.203 8  83296828.06347
       391.272         304.887
  22108399.158    22108398.4394   22108400.8994  116180475.517 7  90530277.45445
     -1973.079       -1537.464
  20597458.133    20597458.0784   20597460.9914  108240434.108 8  84343214.19547
      -274.595        -213.969
  21427369.212    21427370.122    21427374.782   114581851.105 7  89119193.791 6
      -346.252        -269.304
  23408082.849    23408081.390    23408086.550   125129659.404 6  97323071.557 5
      3143.604        2445.023
  22424523.993    22424525.652    22424529.962   120082308.225 7  93397377.467 6
     -3469.080       -2698.168
  22944408.775    22944410.782    22944415.581   122823227.766 5  95529226.876 4
      4733.511        3681.620
 05  3 17  0 11 45.0000000  0 13G 5G 7G 8G 9G10G18G26G28G29R 1R 2R 8
                                R21
  25046377.110    25046375.9124   25046383.4984  131619590.168 5 102560749.77441
      3992.425        3110.982
  22545693.022    22545692.8514   22545697.2894  118478457.782 7  92320883.91145
      1781.193        1387.944
  24396084.595    24396084.1304   24396088.2314  128202420.118 6  99898002.78842
     -2641.300       -2058.145
  22499091.271    22499091.0634   22499094.4474  118233539.459 7  92130054.95844
      3118.791        2430.220
  25004061.217    25004059.5214   25004064.4914  131397282.584 5 102387493.11741
     -3214.993       -2505.183
  23759195.636    23759194.4494   23759197.0384  124855395.548 6  97289945.38042
      1816.076        1415.130
  20340822.324    20340822.3704   20340825.2344  106891824.367 8  83292308.70947
       381.815         297.516
  22114038.672    22114038.0874   22114040.2774  116210110.957 7  90553370.00345
     -1978.560       -1541.734
  20598254.451    20598254.1984   20598256.9754  108244617.329 8  84346473.83847
      -283.400        -220.832
  21428359.859    21428360.502    21428365.213   114587147.941 7  89123313.544 6
      -360.266        -280.209
  23399274.191    23399273.601    23399279.369   125082584.708 6  97286457.926 5
      3132.739        2436.573
  22434249.868    22434250.997    22434255.544   120134385.591 7  93437882.066 6
     -3474.827       -2702.641
  22931149.928    22931150.697    22931155.048   122752244.575 5  95474017.769 4
      4730.677        3679.405
 05  3 17  0 12  0.0000000  0 13G 5G 7G 8G 9G10G18G26G28G29R 1R 2R 8
                                R21
  25034982.565    25034984.0744   25034989.5564  131559710.292 5 102514090.24741
      3991.273        3110.117
  22540618.221    22540618.1184   22540622.5244  118451789.959 7  92300103.79445
      1774.172        1382.472
  24403624.566    24403623.6624   24403628.5214  128242043.099 6  99928877.84842
     -2642.034       -2058.731
  22490192.900    22490191.8884   22490195.7024  118186774.418 7  92093614.67844
      3116.229        2428.230
  25013236.150    25013235.6364   25013238.1284  131445494.804 5 102425061.01741
     -3213.645       -2504.136
  23754023.889    23754022.5064   23754024.7864  124828216.750 6  97268767.09242
      1807.471        1408.420
  20339743.971    20339744.2134   20339746.9754  106886158.380 8  83287893.65247
       373.346         290.923
  22119692.547    22119691.7574   22119694.0624  116239820.863 7  90576520.57745
     -1983.062       -1545.246
  20599074.320    20599073.9964   20599076.8054  108248925.154 8  84349830.57247
      -291.286        -226.972
  21429387.960    21429388.941    21429393.510   114592646.344 8  89127590.072 6
      -373.236        -290.288
  23390497.928    23390496.245    23390502.247   125035663.170 6  97249963.395 5
      3123.042        2429.038
  22443989.502    22443990.891    22443995.171   120186540.455 7  93478446.946 6
     -3479.480       -2706.261
  22917896.616    22917897.731    22917901.459   122681298.233 5  95418837.287 4
      4728.616        3677.810
 05  3 17  0 12 15.0000000  0 13G 5G 7G 8G 9G10G18G26G28G29R 1R 2R 8
                                R21
  25023592.857    25023590.4994   25023597.0214  131499853.027 5 102467448.23341
      3990.019        3109.119
  22535564.699    22535564.6414   22535568.9884  118425233.289 7  92279410.29745
      1767.014        1376.894
  24411167.309    24411166.3254   24411171.7604  128281683.077 5  99959766.08241
     -2643.043       -2059.512
  22481301.671    22481301.4174   22481304.3114  118140052.590 7  92057208.06644
      3113.596        2426.178
  25022408.018    25022406.4564   25022411.4454  131493692.537 5 102462617.63441
     -3212.441       -2503.183
  23748875.808    23748876.0754   23748878.8184  124801172.096 6  97247693.34643
      1798.749        1401.614
  20338691.182    20338691.2334   20338694.0514  106880624.905 8  83283581.85547
       364.744         284.220
  22125359.893    22125359.2034   22125361.4324  116269603.459 7  90599727.79445
     -1987.665       -1548.825
  20599917.541    20599917.1484   20599919.9674  108253355.825 8  84353283.03947
      -299.214        -233.150
  21430454.067    21430454.528    21430459.042   114598344.124 8  89132021.675 6
      -386.226        -300.392
  23381747.837    23381747.843    23381752.737   124988893.471 6  97213586.979 5
      3113.183        2421.365
  22453743.195    22453744.894    22453748.405   120238770.520 7  93519070.322 6
     -3484.275       -2709.991
  22904649.852    22904650.948    22904655.006   122610388.248 5  95363685.103 5
      4726.414        3676.100
 05  3 17  0 12 30.0000000  0 13G 5G 7G 8G 9G10G18G26G28G29R 1R 2R 8
                                R21
  25012205.741    25012206.4194   25012209.5504  131440018.759 5 102420824.17841
      3988.350        3107.792
  22530532.757    22530532.4184   22530536.6454  118398788.211 7  92258803.75045
      1759.440        1370.990
  24418714.480    24418712.8604   24418718.6044  128321340.061 5  99990667.62242
     -2644.235       -2060.432
  22472418.861    22472418.8564   22472421.7804  118093374.267 7  92020835.35544
      3110.575        2423.830
  25031575.783    25031573.1404   25031578.8554  131541875.456 5 102500162.74541
     -3211.545       -2502.503
  23743756.087    23743755.5754   23743757.8354  124774261.846 6  97226724.33043
      1789.711        1394.580
  20337663.824    20337663.4624   20337666.2374  106875224.156 8  83279373.47947
       355.751         277.208
  22131040.737    22131040.4134   22131042.7684  116299458.581 7  90622991.52845
     -1992.608       -1552.687
  20600784.036    20600783.6914   20600786.4984  108257909.677 8  84356831.49247
      -307.571        -239.666
  21431556.923    21431557.373    21431561.954   114604241.876 8  89136608.817 6
      -399.681        -310.864
  23373027.524    23373026.095    23373031.813   124942276.613 6  97177329.429 5
      3102.760        2413.258
  22463511.374    22463513.055    22463515.765   120291075.301 7  93559751.815 6
     -3489.319       -2713.916
  22891409.696    22891410.871    22891415.489   122539514.738 5  95308561.287 4
      4723.892        3674.129
 05  3 17  0 12 45.0000000  0 13G 5G 7G 8G 9G10G18G26G28G29R 1R 2R 8
                                R21
  25000826.131    25000824.1824   25000828.9024  131380211.221 5 102374220.93641
      3986.696        3106.505
  22525522.957    22525522.1054   22525526.0804  118372458.525 7  92238287.11745
      1751.886        1365.105
  24426264.647    24426262.9784   24426269.2884  128361017.573 5 100021585.14042
     -2645.452       -2061.400
  22463545.173    22463545.1064   22463548.6314  118046743.211 7  91984499.48144
      3107.529        2421.453
  25040743.831    25040742.8014   25040744.6444  131590047.057 5 102537699.03141
     -3210.619       -2501.764
  23738661.291    23738660.3844   23738663.9894  124747489.746 6  97205862.95043
      1780.638        1387.513
  20336661.849    20336661.7174   20336664.4894  106869959.803 8  83275271.37947
       346.823         270.255
  22136736.588    22136736.2464   22136738.2494  116329389.703 7  90646314.48045
     -1997.511       -1556.496
  20601674.582    20601674.4174   20601677.2124  108262590.413 8  84360478.80947
      -315.843        -246.109
  21432697.995    21432698.307    21432702.718   114610342.691 8  89141353.894 6
      -413.074        -321.279
  23364334.969    23364335.119    23364340.472   124895816.604 6  97141193.875 5
      3092.489        2405.274
  22473292.799    22473294.122    22473298.457   120343458.305 7  93600494.135 6
     -3494.322       -2717.803
  22878176.637    22878178.254    22878182.960   122468681.212 5  95253468.551 4
      4721.229        3672.068
 05  3 17  0 13  0.0000000  0 13G 5G 7G 8G 9G10G18G26G28G29R 1R 2R 8
                                R21
  24989450.476    24989450.2374   24989455.1204  131320428.777 5 102327637.26641
      3984.467        3104.785
  22520534.405    22520533.5844   22520537.4574  118346242.667 7  92217859.18545
      1743.839        1358.837
  24433817.525    24433816.8804   24433822.2424  128400713.851 5 100052517.28741
     -2647.251       -2062.793
  22454681.009    22454680.4214   22454683.5664  118000157.606 7  91948199.01844
      3104.055        2418.747
  25049905.292    25049904.7464   25049911.5844  131638205.027 5 102575224.64341
     -3210.191       -2501.472
  23733591.445    23733592.1404   23733595.0204  124720854.229 6  97185108.02043
      1771.004        1379.991
  20335685.538    20335685.5484   20335688.2854  106864830.080 8  83271274.18647
       337.373         262.892
  22142446.545    22142445.7494   22142448.1984  116359394.701 8  90669694.99145
     -2002.889       -1560.694
  20602588.999    20602588.9084   20602591.6524  108267396.156 8  84364223.53947
      -324.672        -252.991
  21433876.025    21433876.582    21433881.043   114616644.410 8  89146255.218 6
      -426.902        -332.031
  23355672.546    23355672.475    23355678.566   124849511.892 6  97105179.104 5
      3081.682        2396.867
  22483088.313    22483090.468    22483094.210   120395916.491 7  93641294.940 5
     -3499.817       -2722.076
  22864952.058    22864952.945    22864958.401   122397888.352 5  95198407.450 4
      4718.164        3669.689
 05  3 17  0 13 15.0000000  0 13G 5G 7G 8G 9G10G18G26G28G29R 1R 2R 8
                                R21
  24978076.073    24978075.7024   24978081.6424  131260667.590 5 102281070.13641
      3983.219        3103.785
  22515566.393    22515565.5924   22515569.7214  118320136.908 7  92197517.04445
      1736.584        1353.176
  24441372.973    24441372.6814   24441380.1514  128440424.661 5 100083460.75541
     -2647.999       -2063.375
  22445824.177    22445823.4934   22445826.5724  117953613.650 7  91911931.01844
      3101.409        2416.683
  25059064.089    25059065.9024   25059070.0514  131686345.074 5 102612736.32341
     -3208.855       -2500.418
  23728549.794    23728548.2354   23728551.2584  124694351.298 6  97164456.37443
      1762.323        1373.252
  20334734.251    20334734.2114   20334736.9484  106859831.048 8  83267378.83647
       328.764         256.181
  22148169.191    22148168.6144   22148171.1764  116389469.276 7  90693129.72445
     -2007.413       -1564.222
  20603526.780    20603526.4034   20603529.2044  108272322.972 8  84368062.61247
      -332.615        -259.177
  21435091.119    21435092.040    21435096.767   114623142.945 8  89151309.625 6
      -439.919        -342.155
  23347039.793    23347039.699    23347044.494   124803359.031 6  97069282.446 5
      3071.659        2389.074
  22492897.922    22492899.920    22492903.366   120448445.729 7  93682151.000 5
     -3504.434       -2725.666
  22851733.634    22851735.120    22851740.269   122327130.761 5  95143373.790 4
      4715.784        3667.833
 05  3 17  0 13 30.0000000  0 13G 5G 7G 8G 9G10G18G26G28G29R 1R 2R 8
                                R21
  24966708.923    24966707.8234   24966713.5084  131200931.415 5 102234522.48241
      3981.402        3102.364
  22510620.085    22510619.4454   22510623.6384  118294144.788 7  92177263.44945
      1728.827        1347.135
  24448934.417    24448933.4374   24448938.8044  128480153.818 5 100114418.50141
     -2649.435       -2064.482
  22436974.539    22436975.1604   22436977.7274  117907114.904 7  91875698.23644
      3098.247        2414.219
  25068226.047    25068221.7694   25068229.2504  131734470.266 5 102650236.42841
     -3207.979       -2499.737
  23723531.329    23723531.4394   23723534.1484  124667984.806 6  97143911.06643
      1753.071        1366.022
  20333808.439    20333808.5294   20333811.3474  106854966.410 8  83263588.21047
       319.661         249.088
  22153906.577    22153905.7644   22153907.8304  116419616.680 7  90716621.20745
     -2012.440       -1568.139
  20604487.958    20604487.6504   20604490.5064  108277374.424 8  84371998.80247
      -341.074        -265.771
  21436344.342    21436344.752    21436349.171   114629841.738 7  89156519.793 6
      -453.445        -352.675
  23338435.134    23338434.055    23338440.108   124757362.190 6  97033507.124 5
      3061.052        2380.818
  22502721.106    22502722.344    22502726.662   120501048.609 7  93723064.353 5
     -3509.458       -2729.580
  22838521.711    22838523.481    22838529.114   122256413.264 5  95088371.329 5
      4712.930        3665.601
 05  3 17  0 13 45.0000000  0 13G 5G 7G 8G 9G10G18G26G28G29R 1R 2R 8
                                R21
  24955346.738    24955345.4534   24955352.8054  131141219.958 5 102187994.17641
      3980.156        3101.443
  22505695.508    22505694.8334   22505699.0474  118268266.178 7  92157098.30945
      1721.623        1341.523
  24456497.368    24456496.7534   24456502.3954  128519900.439 5 100145389.87641
     -2650.219       -2065.086
  22428135.260    22428134.3024   22428138.5114  117860661.002 7  91839500.40744
      3095.598        2412.155
  25077379.726    25077378.8514   25077385.8014  131782579.847 5 102687724.33541
     -3206.704       -2498.711
  23718540.260    23718539.7034   23718542.0924  124641754.312 6  97123471.72143
      1744.356        1359.229
  20332908.511    20332908.3364   20332911.1104  106850235.682 8  83259901.92747
       311.075         242.396
  22159657.278    22159656.4394   22159658.7934  116449836.196 7  90740168.88645
     -2016.858       -1571.579
  20605472.717    20605472.5334   20605475.4454  108282550.051 8  84376031.75747
      -349.021        -271.965
  21437633.936    21437634.578    21437639.557   114636739.945 8  89161885.056 6
      -466.365        -362.731
  23329859.542    23329858.332    23329864.415   124711520.923 6  96997852.803 5
      3051.095        2373.075
  22512558.596    22512560.163    22512563.865   120553724.301 7  93764034.320 5
     -3513.963       -2733.080
  22825320.973    22825322.002    22825325.678   122185736.195 5  95033400.308 5
      4710.583        3663.784
 05  3 17  0 14  0.0000000  0 13G 5G 7G 8G 9G10G18G26G28G29R 1R 2R 8
                                R21
  24943988.602    24943986.9194   24943992.0894  131081531.532 5 102141483.74241
      3978.479        3100.112
  22500792.002    22500791.2974   22500795.4614  118242499.389 7  92137020.29445
      1714.115        1335.678
  24464065.147    24464063.7994   24464069.9484  128559662.688 5 100176373.44941
     -2651.291       -2065.950
  22419303.387    22419303.2354   22419306.5454  117814250.167 7  91803336.12744
      3092.653        2409.852
  25086530.169    25086531.1464   25086537.1274  131830671.717 5 102725198.50341
     -3205.536       -2497.807
  23713574.212    23713573.8564   23713576.2074  124615658.082 6  97103137.00342
      1735.330        1352.202
  20332033.369    20332033.3084   20332036.0494  106845637.132 8  83256318.63947
       302.207         235.483
  22165420.558    22165419.9444   22165422.7614  116480125.749 7  90763771.13045
     -2021.598       -1575.272
  20606480.905    20606480.7394   20606483.5164  108287847.950 8  84380159.98547
      -357.209        -278.346
  21438960.699    21438961.278    21438966.541   114643835.660 8  89167403.935 6
      -479.570        -373.001
  23321313.315    23321312.189    23321317.821   124665833.666 6  96962318.274 5
      3040.711        2364.996
  22522407.386    22522410.007    22522413.973   120606470.249 7  93805058.936 5
     -3518.693       -2736.759
  22812123.663    22812126.309    22812129.505   122115097.962 5  94978459.451 4
      4707.938        3661.727
 05  3 17  0 14 15.0000000  0 13G 5G 7G 8G 9G10G18G26G28G29R 1R 2R 8
                                R21
  24932634.881    24932632.2284   24932636.6864  131021861.086 5 102094987.35041
      3977.175        3099.129
  22495909.875    22495908.7394   22495912.7924  118216839.270 7  92117025.40445
      1706.862        1330.025
  24471634.080    24471632.8764   24471637.0134  128599435.140 5 100207365.00941
     -2652.146       -2066.604
  22410478.536    22410478.7094   22410481.8124  117767877.193 7  91767201.35944
      3090.004        2407.795
  25095678.579    25095676.5364   25095683.6784  131878740.032 5 102762654.26441
     -3204.008       -2496.618
  23708633.728    23708632.7834   23708635.2364  124589690.963 6  97082902.88343
      1726.604        1345.413
  20331182.220    20331182.2784   20331185.1334  106841165.419 8  83252834.18747
       293.620         228.797
  22171196.802    22171196.0774   22171198.6704  116510479.597 7  90787423.47145
     -2025.995       -1578.695
  20607511.397    20607511.0494   20607513.8684  108293262.782 8  84384379.33047
      -365.185        -284.559
  21440323.663    21440324.251    21440329.165   114651122.919 7  89173071.794 6
      -492.479        -383.040
  23312792.790    23312792.756    23312798.993   124620295.859 6  96926899.983 5
      3030.616        2357.145
  22532269.970    22532271.857    22532276.031   120659280.470 7  93846133.540 6
     -3523.097       -2740.184
  22798936.549    22798937.034    22798940.562   122044494.090 5  94923545.340 4
      4705.487        3659.823
 05  3 17  0 14 30.0000000  0 13G 5G 7G 8G 9G10G18G26G28G29R 1R 2R 8
                                R21
  24921284.617    24921283.7834   24921285.9104  130962219.468 5 102048513.35441
      3974.928        3097.369
  22491048.368    22491048.0624   22491052.1694  118191296.826 7  92097122.20845
      1698.705        1323.666
  24479207.019    24479205.3824   24479207.7674  128639228.533 6 100238372.84941
     -2653.791       -2067.891
  22401663.708    22401663.2404   22401666.7304  117721552.971 7  91731104.56244
      3086.426        2405.009
  25104822.680    25104820.5964   25104826.3584  131926795.535 5 102800100.09441
     -3203.463       -2496.146
  23703717.228    23703717.4344   23703720.3764  124563863.850 6  97062777.85642
      1716.919        1337.850
  20330357.564    20330357.4724   20330360.3594  106836831.389 8  83249457.02247
       284.131         221.402
  22176987.035    22176986.8324   22176988.9594  116540908.254 7  90811134.11545
     -2031.284       -1582.821
  20608566.213    20608565.9514   20608568.7084  108298805.483 8  84388698.31247
      -374.007        -291.433
  21441724.368    21441725.039    21441729.059   114658612.586 8  89178897.092 6
      -506.279        -393.770
  23304307.175    23304305.165    23304309.819   124574918.175 6  96891606.225 5
      3019.603        2348.580
  22542144.766    22542147.029    22542152.516   120712165.358 7  93887266.216 6
     -3528.380       -2744.285
  22785754.283    22785756.125    22785759.765   121973936.173 5  94868666.970 4
      4702.063        3657.152
 05  3 17  0 14 45.0000000  0 13G 5G 7G 8G 9G10G18G26G28G29R 1R 2R 8
                                R21
  24909941.745    24909939.2264   24909946.5754  130902607.950 5 102002062.89441
      3972.976        3095.842
  22486210.436    22486209.7764   22486214.4794  118165873.247 7  92077311.63845
      1690.794        1317.503
  24486782.663    24486783.1294   24486786.4494  128679043.690 6 100269397.66741
     -2655.190       -2069.004
  22392858.046    22392857.8124   22392860.9784  117675278.491 7  91695046.52744
      3083.162        2402.472
  25113963.728    25113964.4054   25113968.1044  131974838.592 5 102837536.23541
     -3202.607       -2495.490
  23698829.609    23698829.6174   23698832.5074  124538177.831 6  97042762.77142
      1707.550        1330.555
  20329559.488    20329559.2564   20329561.9734  106832636.057 8  83246187.93447
       274.931         214.233
  22182792.066    22182791.8664   22182793.7724  116571412.521 7  90834903.67345
     -2036.285       -1586.711
  20609645.509    20609645.1564   20609647.8834  108304476.917 8  84393117.60747
      -382.510        -298.057
  21443163.376    21443163.757    21443167.859   114666305.561 7  89184880.503 6
      -519.752        -404.251
  23295847.806    23295846.447    23295851.711   124529702.528 6  96856438.512 5
      3008.804        2340.183
  22552036.274    22552038.352    22552042.384   120765125.282 7  93928457.259 6
     -3533.244       -2748.076
  22772583.022    22772582.869    22772587.500   121903424.728 5  94813824.754 5
      4699.076        3654.830
 05  3 17  0 15  0.0000000  0 13G 5G 7G 8G 9G10G18G26G28G29R 1R 2R 8
                                R21
  24898601.442    24898601.6004   24898606.0434  130843020.763 5 101955631.33741
      3971.987        3095.060
  22481394.128    22481393.5234   22481397.8464  118140562.978 7  92057589.35245
      1683.753        1312.012
  24494362.312    24494362.1264   24494365.6384  128718874.946 6 100300434.98341
     -2655.778       -2069.461
  22384060.627    22384060.4044   22384063.7244  117629048.161 7  91659022.89844
      3080.700        2400.547
  25123104.414    25123104.5704   25123108.2014  132022863.080 5 102874957.81941
     -3200.847       -2494.183
  23693969.225    23693967.4224   23693970.0114  124512627.499 6  97022853.42642
      1698.992        1323.881
  20328786.195    20328786.2084   20328788.8464  106828573.812 8  83243022.54447
       266.572         207.718
  22188610.002    22188609.6914   22188611.7824  116601986.412 7  90858727.48845
     -2040.388       -1589.912
  20610748.105    20610747.8024   20610750.6404  108310271.316 8  84397632.71847
      -390.202        -304.054
  21444638.172    21444639.169    21444643.092   114674195.450 7  89191017.085 6
      -532.372        -414.063
  23287417.908    23287416.245    23287422.215   124484643.569 6  96821392.642 5
      2998.886        2332.469
  22561939.118    22561940.355    22561945.102   120818153.602 7  93969701.496 5
     -3537.287       -2751.219
  22759417.123    22759419.188    22759423.157   121832954.364 5  94759014.496 5
      4696.825        3653.079
 05  3 17  0 15 15.0000000  0 13G 5G 7G 8G 9G10G18G26G28G29R 1R 2R 8
                                R21
  24887269.249    24887267.5304   24887272.6004  130783461.831 5 101909221.87741
      3969.650        3093.251
  22476599.446    22476599.2784   22476603.6564  118115369.895 7  92037958.39045
      1675.680        1305.723
  24501944.953    24501945.1914   24501950.0794  128758725.867 6 100331487.61242
     -2657.329       -2070.650
  22375272.318    22375272.4144   22375275.4404  117582865.623 7  91623036.52044
      3077.271        2397.873
  25132239.459    25132241.2234   25132242.3954  132070872.363 5 102912367.58741
     -3200.062       -2493.542
  23689132.302    23689132.3264   23689134.4394  124487216.461 6  97003052.62443
      1689.429        1316.430
  20328039.354    20328039.1634   20328041.9654  106824648.199 8  83239963.62847
       257.176         200.396
  22194441.896    22194441.5014   22194443.6854  116632633.201 7  90882608.10445
     -2045.504       -1593.906
  20611874.960    20611874.6364   20611877.4474  108316192.325 8  84402246.49247
      -398.943        -310.866
  21446152.173    21446152.002    21446156.500   114682286.075 8  89197309.795 6
      -546.042        -424.701
  23279019.374    23279018.588    23279023.770   124439745.090 6  96786471.615 5
      2987.834        2323.875
  22571854.379    22571855.201    22571860.369   120871253.798 7  94011001.645 5
     -3542.377       -2755.184
  22746261.529    22746262.906    22746266.772   121762530.351 5  94704240.267 5
      4693.338        3650.369
 05  3 17  0 15 30.0000000  0 13G 5G 7G 8G 9G10G18G26G28G29R 1R 2R 8
                                R21
  24875938.047    24875939.6124   24875942.5554  130723931.040 5 101862834.21641
      3967.906        3091.880
  22471828.034    22471827.7774   22471831.9684  118090293.762 7  92018418.55245
      1667.891        1299.660
  24509532.110    24509531.6784   24509535.4164  128798595.914 5 100362555.16242
     -2658.612       -2071.625
  22366493.573    22366492.6614   22366496.2804  117536730.685 7  91587087.22044
      3074.115        2395.420
  25141371.647    25141370.2314   25141379.1784  132118865.728 5 102949764.96041
     -3198.993       -2492.743
  23684324.610    23684323.0084   23684325.6394  124461944.589 6  96983360.24642
      1680.115        1309.198
  20327318.283    20327318.1654   20327320.9014  106820859.016 8  83237011.01847
       248.104         193.328
  22200287.755    22200287.3344   22200289.2294  116663352.328 7  90906545.08845
     -2050.301       -1597.634
  20613025.652    20613025.3744   20613028.1764  108322239.696 8  84406958.72347
      -407.338        -317.404
  21447701.332    21447702.430    21447707.070   114690576.721 7  89203758.058 6
      -559.323        -435.025
  23270650.122    23270648.659    23270654.426   124395007.281 6  96751675.555 5
      2977.238        2315.629
  22581784.907    22581785.439    22581789.715   120924424.732 7  94052356.813 5
     -3547.045       -2758.809
  22733114.612    22733116.284    22733120.331   121692152.675 5  94649502.072 5
      4690.356        3648.049
 05  3 17  0 15 45.0000000  0 13G 5G 7G 8G 9G10G18G26G28G29R 1R 2R 8
                                R21
  24864615.754    24864616.0954   24864621.8234  130664427.216 5 101816467.67741
      3965.860        3090.256
  22467078.274    22467077.6574   22467081.9444  118065333.556 7  91998969.05645
      1660.026        1293.524
  24517123.088    24517121.5364   24517126.3344  128838483.777 5 100393636.58141
     -2659.903       -2072.649
  22357723.100    22357722.5244   22357726.1334  117490642.198 7  91551174.12344
      3070.917        2392.924
  25150502.889    25150502.5464   25150504.9934  132166841.684 5 102987148.78441
     -3197.887       -2491.857
  23679541.542    23679540.6594   23679543.0304  124436810.727 6  96963775.43042
      1670.861        1301.969
  20326622.928    20326622.8774   20326625.6084  106817205.125 8  83234163.82647
       238.993         186.229
  22206146.996    22206146.4124   22206148.5914  116694142.213 8  90930537.20445
     -2055.112       -1601.387
  20614200.122    20614199.8224   20614202.7004  108328412.036 8  84411768.33547
      -415.741        -323.954
  21449289.198    21449289.983    21449294.438   114699065.907 7  89210360.758 6
      -572.678        -445.414
  23262309.238    23262308.408    23262314.711   124350428.958 6  96717003.534 5
      2966.520        2307.292
  22591725.259    22591726.630    22591731.460   120977664.533 7  94093765.549 5
     -3551.700       -2762.434
  22719975.262    22719976.892    22719981.711   121621819.284 5  94594798.340 5
      4687.305        3645.677
 05  3 17  0 16  0.0000000  0 13G 5G 7G 8G 9G10G18G26G28G29R 1R 2R 8
                                R21
  24853298.043    24853297.3894   24853303.0694  130604953.766 5 101770124.72941
      3963.936        3088.783
  22462351.224    22462350.6314   22462355.0274  118040492.710 7  91979612.55945
      1652.059        1287.315
  24524716.628    24524716.0924   24524721.9714  128878392.552 5 100424734.30841
     -2661.368       -2073.810
  22348961.536    22348961.2634   22348965.0214  117444603.501 7  91515299.81544
      3067.531        2390.284
  25159631.019    25159631.1364   25159632.0254  132214803.150 5 103024521.32841
     -3196.944       -2491.160
  23674784.854    23674784.8734   23674786.9704  124411818.322 6  96944300.82642
      1661.337        1294.552
  20325954.067    20325953.9004   20325956.6044  106813689.665 9  83231424.50547
       229.706         178.990
  22212020.189    22212019.3704   22212021.6684  116725005.873 7  90954586.80545
     -2060.067       -1605.249
  20615398.890    20615398.7804   20615401.8104  108334712.680 8  84416677.91847
      -424.340        -330.654
  21450914.278    21450914.793    21450919.923   114707756.492 7  89217120.092 6
      -586.142        -455.890
  23254004.071    23254001.037    23254005.747   124306013.791 6  96682458.413 5
      2955.446        2298.677
  22601681.754    22601683.241    22601687.542   121030975.766 7  94135229.824 5
     -3556.491       -2766.165
  22706845.440    22706847.742    22706850.825   121551534.851 5  94540132.678 4
      4683.993        3643.114
 05  3 17  0 16 15.0000000  0 13G 5G 7G 8G 9G10G18G26G28G29R 1R 2R 8
                                R21
  24841984.657    24841984.6514   24841992.4744  130545509.308 5 101723804.45541
      3962.115        3087.371
  22457646.482    22457646.1204   22457650.0404  118015769.905 7  91960348.04145
      1644.323        1281.291
  24532315.107    24532314.6224   24532319.9924  128918320.753 5 100455847.20341
     -2662.458       -2074.625
  22340210.080    22340210.0274   22340213.1284  117398613.123 7  91479463.17544
      3064.477        2387.907
  25168754.533    25168753.0784   25168758.0964  132262748.176 5 103061880.99041
     -3195.744       -2490.183
  23670056.514    23670055.3584   23670057.9204  124386965.878 6  96924935.28943
      1652.239        1287.439
  20325311.286    20325311.0664   20325313.6914  106810311.320 8  83228792.03247
       220.726         171.994
  22217906.641    22217906.1064   22217908.2684  116755941.422 7  90978692.43445
     -2064.715       -1608.873
  20616622.170    20616621.8554   20616624.9204  108341140.151 8  84421686.33447
      -432.643        -337.126
  21452577.195    21452577.789    21452582.372   114716646.875 7  89224034.822 6
      -599.308        -466.128
  23245724.539    23245722.410    23245728.030   124261762.166 6  96648040.483 5
      2944.756        2290.369
  22611649.761    22611651.063    22611655.977   121084356.308 7  94176748.018 6
     -3560.928       -2769.609
  22693725.358    22693726.647    22693729.915   121481299.006 5  94485504.778 4
      4680.829        3640.644
 05  3 17  0 16 30.0000000  0 13G 5G 7G 8G 9G10G18G26G28G29R 1R 2R 8
                                R21
  24830679.318    24830680.0684   24830683.5394  130486090.503 5 101677504.10641
      3960.179        3085.873
  22452963.772    22452963.2304   22452967.4194  117991161.705 7  91941172.83045
      1636.483        1275.177
  24539917.375    24539916.4664   24539920.4294  128958264.649 5 100486972.27241
     -2663.709       -2075.654
  22331466.890    22331466.6744   22331469.7634  117352667.623 7  91443661.48944
      3061.298        2385.423
  25177873.196    25177873.3914   25177876.1424  132310672.758 5 103099224.76141
     -3194.498       -2489.268
  23665352.481    23665352.3154   23665354.0814  124362250.019 6  96905676.18443
      1642.994        1280.246
  20324693.853    20324693.5964   20324696.2274  106807066.353 9  83226263.48447
       211.624         164.898
  22223806.241    22223805.7294   22223808.3954  116786945.051 7  91002851.10145
     -2069.418       -1612.533
  20617868.542    20617868.4054   20617871.4904  108347690.735 8  84426790.68347
      -441.051        -343.676
  21454276.314    21454276.887    21454281.380   114725733.158 7  89231101.935 6
      -612.454        -476.352
  23237474.294    23237473.978    23237479.417   124217669.788 6  96613746.400 5
      2933.910        2281.929
  22621630.850    22621632.228    22621637.627   121137802.284 7  94218317.092 6
     -3565.458       -2773.125
  22680614.300    22680613.066    22680619.232   121411109.132 5  94430912.653 5
      4677.548        3638.091
 05  3 17  0 16 45.0000000  0 13G 5G 7G 8G 9G10G18G26G28G29R 1R 2R 8
                                R21
  24819376.979    24819376.2124   24819383.1134  130426698.361 5 101631224.56441
      3958.914        3084.898
  22448303.020    22448302.7104   22448306.6344  117966669.092 7  91922087.68345
      1629.346        1269.621
  24547520.097    24547520.0624   24547524.5634  128998225.037 5 100518110.23641
     -2664.253       -2076.052
  22322732.872    22322732.4604   22322735.3984  117306767.936 7  91407895.51144
      3058.796        2383.475
  25186988.722    25186986.7524   25186993.2384  132358577.393 5 103136553.01441
     -3192.700       -2487.798
  23660675.032    23660675.1574   23660677.2304  124337671.656 6  96886524.22042
      1634.309        1273.489
  20324101.746    20324101.6814   20324104.3944  106803955.875 8  83223839.73247
       203.220         158.354
  22229719.204    22229718.7164   22229720.6524  116818017.279 7  91027063.22545
     -2073.409       -1615.646
  20619138.881    20619138.4924   20619141.6014  108354365.370 8  84431991.68947
      -448.757        -349.678
  21456012.204    21456012.734    21456016.937   114735015.606 7  89238321.599 6
      -625.050        -486.153
  23229257.840    23229255.721    23229261.262   124173737.711 6  96579577.023 5
      2923.874        2274.126
  22631622.545    22631624.928    22631630.190   121191313.595 7  94259936.985 6
     -3569.244       -2776.080
  22667509.975    22667511.334    22667515.338   121340965.032 5  94376356.155 5
      4675.037        3636.132
 05  3 17  0 17  0.0000000  0 13G 5G 7G 8G 9G10G18G26G28G29R 1R 2R 8
                                R21
  24808080.908    24808079.9644   24808084.4264  130367332.043 5 101584965.12141
      3956.912        3083.307
  22443664.275    22443663.6964   22443667.9884  117942291.414 7  91903092.10145
      1621.327        1263.368
  24555127.177    24555127.9624   24555132.2904  129038200.884 5 100549260.22441
     -2665.538       -2077.044
  22314007.167    22314006.7374   22314009.9874  117260913.207 7  91372164.56144
      3055.440        2380.866
  25196102.382    25196099.4504   25196106.0844  132406460.738 5 103173864.67141
     -3191.495       -2486.916
  23656024.407    23656023.8744   23656026.1924  124313230.023 6  96867478.77742
      1624.775        1266.046
  20323535.080    20323535.1694   20323537.8294  106800978.778 8  83221519.91247
       194.003         151.170
  22235645.293    22235644.2484   22235646.6574  116849156.891 7  91051327.85745
     -2078.219       -1619.390
  20620432.323    20620431.9564   20620435.0994  108361163.007 8  84437288.54347
      -457.285        -356.323
  21457785.039    21457785.261    21457789.564   114744493.295 7  89245693.122 6
      -638.371        -496.512
  23221068.518    23221066.938    23221072.187   124129965.122 6  96545531.667 5
      2912.778        2265.492
  22641628.104    22641629.769    22641634.762   121244888.583 7  94301606.408 6
     -3573.801       -2779.622
  22654415.787    22654416.862    22654421.071   121270866.499 6  94321835.046 5
      4671.658        3633.514
 05  3 17  0 17 15.0000000  0 13G 5G 7G 8G 9G10G18G26G28G29R 1R 2R 8
                                R21
  24796790.533    24796787.4394   24796794.6924  130307992.785 5 101538726.80941
      3954.995        3081.772
  22439047.517    22439046.9304   22439050.9554  117918029.710 7  91884186.88545
      1613.485        1257.260
  24562737.139    24562737.2674   24562744.4194  129078193.033 5 100580422.91741
     -2666.711       -2077.959
  22305289.323    22305289.5394   22305292.4664  117215104.464 7  91336469.44844
      3052.322        2378.438
  25205209.980    25205207.5834   25205213.3034  132454323.551 5 103211160.33341
     -3190.201       -2485.837
  23651399.275    23651398.6284   23651400.7104  124288926.073 6  96848540.62543
      1615.665        1258.981
  20322994.424    20322994.2014   20322996.8844  106798136.124 8  83219304.86047
       184.959         144.124
  22241583.550    22241583.1534   22241585.5654  116880364.536 7  91075645.50745
     -2082.825       -1622.977
  20621749.336    20621749.2124   20621752.2754  108368084.611 8  84442681.99647
      -465.634        -362.828
  21459593.300    21459594.120    21459598.465   114754166.850 7  89253217.002 6
      -651.515        -506.729
  23212908.978    23212908.515    23212913.878   124086353.720 6  96511611.690 5
      2901.953        2257.076
  22651645.589    22651646.782    22651651.788   121298527.783 7  94343325.769 6
     -3578.163       -2783.006
  22641326.544    22641329.334    22641335.073   121200815.234 5  94267350.757 5
      4668.362        3630.944
 05  3 17  0 17 30.0000000  0 13G 5G 7G 8G 9G10G18G26G28G29R 1R 2R 8
                                R21
  24785502.206    24785502.2054   24785505.6714  130248682.837 5 101492511.26741
      3953.439        3080.616
  22434452.909    22434452.6664   22434456.9434  117893886.470 7  91865373.97945
      1606.007        1251.434
  24570351.532    24570352.0294   24570356.3684  129118203.520 5 100611599.91741
     -2667.594       -2078.654
  22296581.829    22296581.4774   22296584.9504  117169344.117 7  91300812.03844
      3049.492        2376.227
  25214311.426    25214310.3114   25214319.8594  132502167.748 5 103248441.46841
     -3188.662       -2484.658
  23646801.132    23646800.2804   23646802.9384  124264762.232 6  96829711.66843
      1606.610        1251.906
  20322479.433    20322479.3104   20322481.8654  106795430.249 8  83217196.38747
       176.228         137.321
  22247535.119    22247534.6634   22247537.5244  116911642.270 7  91100017.76545
     -2087.110       -1626.316
  20623090.589    20623090.3434   20623093.4944  108375132.349 8  84448173.73847
      -473.662        -369.086
  21461439.508    21461440.512    21461444.729   114764038.320 7  89260894.801 6
      -664.301        -516.680
  23204782.172    23204780.339    23204786.837   124042906.141 6  96477819.131 5
      2891.475        2248.920
  22661674.429    22661675.481    22661680.363   121352232.854 7  94385096.375 6
     -3582.110       -2786.090
  22628251.586    22628253.177    22628257.371   121130813.999 5  94212905.370 5
      4665.399        3628.645
 05  3 17  0 17 45.0000000  0 13G 5G 7G 8G 9G10G18G26G28G29R 1R 2R 8
                                R21
  24774222.704    24774221.5884   24774225.0334  130189399.376 5 101446316.39741
      3951.097        3078.742
  22429881.013    22429880.5364   22429884.4474  117869858.750 7  91846651.08445
      1597.734        1244.987
  24577968.284    24577968.5204   24577973.3434  129158229.583 5 100642789.02841
     -2669.183       -2079.902
  22287882.195    22287882.2564   22287885.1494  117123629.000 7  91265189.87844
      3045.898        2373.423
  25223412.579    25223410.7354   25223419.1344  132549989.803 5 103285705.32241
     -3187.629       -2483.861
  23642228.555    23642228.4724   23642231.0804  124240735.504 6  96810989.54742
      1596.953        1244.351
  20321990.091    20321989.8014   20321992.4104  106792858.086 8  83215192.10247
       166.756         129.941
  22253499.678    22253499.2634   22253501.9094  116942986.633 7  91124441.94445
     -2092.100       -1630.206
  20624455.449    20624455.0064   20624458.0174  108382303.267 8  84453761.46047
      -482.411        -375.905
  21463321.837    21463322.612    21463326.667   114774104.393 7  89268723.971 6
      -677.825        -527.193
  23196683.847    23196683.066    23196688.527   123999619.314 6  96444151.609 5
      2880.066        2240.049
  22671715.175    22671716.866    22671721.167   121405999.954 7  94426915.222 6
     -3586.785       -2789.720
  22615184.843    22615185.094    22615188.646   121060860.479 5  94158497.066 5
      4661.755        3625.813
 05  3 17  0 18  0.0000000  0 13G 5G 7G 8G 9G10G18G26G28G29R 1R 2R 8
                                R21
  24762945.815    24762945.0494   24762949.9194  130130144.243 5 101400143.58641
      3949.307        3077.370
  22425330.964    22425330.2114   22425334.0954  117845948.424 7  91828019.66745
      1589.990        1238.949
  24585589.635    24585588.9324   24585592.7464  129198272.615 5 100673991.33741
     -2670.191       -2080.656
  22279192.080    22279191.7624   22279194.7584  117077960.954 7  91229604.39344
      3042.858        2371.063
  25232510.242    25232509.6084   25232514.4324  132597791.157 5 103322953.04941
     -3186.169       -2482.718
  23637682.451    23637682.4814   23637685.2594  124216847.686 6  96792375.66743
      1587.768        1237.208
  20321526.046    20321526.0324   20321528.7514  106790421.275 8  83213293.28147
       157.809         122.966
  22259477.692    22259477.0054   22259479.3934  116974399.038 7  91148919.14445
     -2096.530       -1633.665
  20625843.484    20625843.4654   20625846.3474  108389599.017 8  84459446.45347
      -490.656        -382.332
  21465240.805    21465241.814    21465246.207   114784366.358 7  89276705.493 6
      -690.768        -537.266
  23188615.682    23188615.430    23188621.552   123956496.259 6  96410611.442 5
      2869.323        2231.696
  22681768.122    22681768.831    22681774.271   121459830.438 7  94468783.369 6
     -3590.902       -2792.918
  22602124.336    22602126.304    22602131.035   120990956.231 5  94104127.094 5
      4658.518        3623.293
 05  3 17  0 18 15.0000000  0 13G 5G 7G 8G 9G10G18G26G28G29R 1R 2R 8
                                R21
  24751674.621    24751674.1714   24751678.2604  130070914.226 5 101353990.35541
      3947.926        3076.308
  22420802.430    22420801.9814   22420806.1784  117822152.237 7  91809477.19845
      1582.708        1233.276
  24593210.906    24593211.2374   24593213.7844  129238329.173 5 100705204.25541
     -2670.748       -2081.108
  22270510.224    22270509.9034   22270513.0734  117032336.714 7  91194053.05144
      3040.292        2369.059
  25241601.291    25241602.6764   25241607.2444  132645568.019 5 103360181.73841
     -3184.120       -2481.153
  23633163.249    23633162.7484   23633165.4134  124193095.590 6  96773867.53543
      1579.161        1230.515
  20321087.606    20321087.4474   20321090.1974  106788116.501 8  83211497.34947
       149.390         116.406
  22265467.819    22265466.9034   22265469.1774  117005875.959 7  91173446.62645
     -2100.454       -1636.720
  20627254.956    20627254.8664   20627257.8204  108397016.012 8  84465225.92847
      -498.379        -388.349
  21467195.310    21467196.365    21467200.809   114794820.501 7  89284836.495 6
      -703.191        -546.924
  23180579.334    23180578.406    23180583.995   123913532.600 6  96377195.251 5
      2859.043        2223.698
  22691831.053    22691832.491    22691837.527   121513720.014 7  94510697.468 6
     -3594.459       -2795.690
  22589077.272    22589077.218    22589080.257   120921098.549 6  94049793.339 5
      4655.699        3621.106
 05  3 17  0 18 30.0000000  0 13G 5G 7G 8G 9G10G18G26G28G29R 1R 2R 8
                                R21
  24740408.398    24740407.3544   24740412.8474  130011711.293 5 101307858.20741
      3945.756        3074.589
  22416297.344    22416296.0734   22416300.0724  117798472.267 7  91791025.28545
      1574.625        1226.980
  24600836.520    24600836.0774   24600839.3774  129278400.898 5 100736428.95341
     -2672.107       -2082.177
  22261837.005    22261836.4344   22261839.5634  116986758.098 7  91158537.25344
      3036.881        2366.396
  25250688.493    25250687.4014   25250693.7524  132693321.909 5 103397392.51541
     -3183.005       -2480.256
  23628668.901    23628668.7664   23628671.7524  124169481.311 6  96755466.78842
      1569.524        1223.002
  20320674.390    20320674.3484   20320677.0944  106785945.686 8  83209805.80247
       140.085         109.158
  22271469.936    22271469.1124   22271472.0804  117037418.835 7  91198025.49145
     -2105.231       -1640.436
  20628690.080    20628689.8194   20628692.6564  108404556.331 8  84471101.50147
      -506.991        -395.058
  21469187.489    21469187.933    21469192.094   114805468.557 7  89293118.314 6
      -716.494        -557.278
  23172574.952    23172572.624    23172577.258   123870731.168 6  96343905.252 5
      2847.823        2214.976
  22701906.517    22701907.168    22701912.030   121567670.284 7  94552658.778 6
     -3598.866       -2799.120
  22576034.418    22576036.339    22576039.448   120851289.834 6  93995497.669 5
      4652.018        3618.238
 05  3 17  0 18 45.0000000  0 13G 5G 7G 8G 9G10G18G26G28G29R 1R 2R 8
                                R21
  24729146.399    24729147.0304   24729149.6554  129952533.622 5 101261745.74841
      3944.591        3073.726
  22411812.354    22411811.5144   22411815.5444  117774906.735 7  91772662.53945
      1567.392        1221.340
  24608462.634    24608464.5084   24608468.5234  129318485.802 5 100767663.98841
     -2672.548       -2082.530
  22253172.167    22253171.5844   22253174.8174  116941223.216 7  91123055.53644
      3034.368        2364.444
  25259774.215    25259772.2764   25259777.7144  132741050.493 5 103434583.49141
     -3180.871       -2478.557
  23624202.129    23624201.2814   23624203.5474  124146002.860 6  96737171.89242
      1560.929        1216.315
  20320286.623    20320286.3744   20320289.0434  106783906.851 8  83208217.09847
       131.689         102.614
  22277483.803    22277483.5094   22277486.6134  117069025.379 7  91222653.95845
     -2109.040       -1643.404
  20630148.039    20630147.7694   20630150.5084  108412217.882 8  84477071.53647
      -514.629        -401.012
  21471214.669    21471215.657    21471219.570   114816308.040 7  89301549.010 6
      -728.830        -566.863
  23164594.594    23164594.085    23164600.642   123828090.708 6  96310740.449 5
      2837.583        2207.012
  22711990.938    22711992.740    22711998.165   121621678.268 7  94594664.977 5
     -3602.300       -2801.781
  22563003.161    22563004.233    22563008.151   120781530.102 5  93941240.114 5
      4649.264        3616.099
 05  3 17  0 19  0.0000000  0 13G 5G 7G 8G 9G10G18G26G28G29R 1R 2R 8
                                R21
  24717891.123    24717887.9844   24717895.6574  129893383.664 5 101215654.90241
      3942.042        3071.699
  22407349.695    22407349.5564   22407353.4084  117751457.999 7  91754390.80445
      1559.058        1214.849
  24616095.897    24616094.8564   24616099.0224  129358586.016 5 100798910.89941
     -2674.185       -2083.770
  22244515.426    22244515.2774   22244518.6174  116895734.421 7  91087609.72444
      3030.725        2361.607
  25268848.780    25268848.9414   25268856.2754  132788755.520 5 103471756.19641
     -3179.769       -2477.714
  23619760.061    23619759.7434   23619762.5594  124122662.412 6  96718984.54442
      1551.083        1208.632
  20319923.826    20319924.0244   20319926.6774  106782002.139 8  83206732.90047
       122.163          95.191
  22283511.436    22283510.8384   22283513.5664  117100697.561 7  91247333.57545
     -2113.990       -1647.258
  20631629.199    20631629.1474   20631631.9584  108420002.727 8  84483137.64147
      -523.418        -407.859
  21473277.701    21473277.822    21473282.858   114827341.055 7  89310130.244 6
      -742.318        -577.361
  23156649.502    23156649.245    23156654.475   123785613.548 6  96277702.645 5
      2826.000        2197.997
  22722087.533    22722089.302    22722094.178   121675745.911 7  94636717.561 6
     -3606.773       -2805.268
  22549979.588    22549981.185    22549985.328   120711819.732 6  93887020.941 5
      4645.383        3613.077
 05  3 17  0 19 15.0000000  0 13G 5G 7G 8G 9G10G18G26G28G29R 1R 2R 8
                                R21
  24706639.799    24706639.9124   24706643.8704  129834261.998 5 101169586.13641
      3940.556        3070.552
  22402909.688    22402909.5494   22402913.4404  117728126.701 7  91736210.57545
      1551.481        1208.948
  24623730.116    24623727.3724   24623730.8444  129398701.793 5 100830169.98741
     -2674.892       -2084.317
  22235868.475    22235868.0634   22235870.9614  116850292.414 7  91052200.37244
      3027.898        2359.407
  25277925.242    25277922.0284   25277929.8884  132836437.324 5 103508910.71941
     -3177.925       -2476.310
  23615344.628    23615344.9764   23615347.1174  124099460.759 6  96700905.33742
      1542.127        1201.640
  20319587.152    20319587.1524   20319589.8324  106780232.313 8  83205353.81747
       113.505          88.445
  22289551.172    22289550.5514   22289552.3824  117132435.627 7  91272064.54145
     -2118.064       -1650.437
  20633134.513    20633134.1534   20633136.9884  108427911.531 8  84489300.34647
      -531.395        -414.075
  21475376.489    21475377.316    21475382.078   114838567.794 7  89318862.151 6
      -754.934        -587.172
  23148733.391    23148734.050    23148739.032   123743300.959 6  96244792.855 5
      2815.333        2189.703
  22732196.425    22732197.833    22732201.859   121729872.909 7  94678816.335 5
     -3610.462       -2808.135
  22536965.794    22536967.478    22536973.013   120642161.195 5  93832842.092 5
      4642.192        3610.587
 05  3 17  0 19 30.0000000  0 13G 5G 7G 8G 9G10G18G26G28G29R 1R 2R 8
                                R21
  24695395.690    24695394.8254   24695400.0214  129775168.818 5 101123539.53941
      3938.125        3068.678
  22398492.303    22398492.2004   22398496.0294  117704913.050 7  91718122.02245
      1543.222        1202.512
  24631365.188    24631366.5994   24631369.6014  129438833.233 5 100861441.24041
     -2676.386       -2085.449
  22227230.229    22227229.5824   22227232.7464  116804897.240 7  91016827.52444
      3024.359        2356.649
  25286995.108    25286992.2004   25286994.4874  132884095.510 5 103546046.93041
     -3176.746       -2475.359
  23610956.415    23610956.5964   23610958.7274  124076397.897 6  96682934.27642
      1532.482        1194.138
  20319276.295    20319276.1244   20319278.6974  106778597.181 8  83204079.68847
       104.088          81.106
  22295603.163    22295602.1324   22295604.7114  117164239.320 7  91296846.64645
     -2122.859       -1654.174
  20634663.017    20634662.6374   20634665.5524  108435944.223 8  84495559.57647
      -540.071        -420.835
  21477512.493    21477513.691    21477517.568   114849987.876 7  89327744.429 6
      -768.225        -597.509
  23140849.425    23140847.652    23140854.194   123701153.480 6  96212011.473 5
      2803.815        2180.747
  22742314.960    22742316.148    22742321.002   121784058.844 7  94720960.945 6
     -3614.781       -2811.497
  22523964.981    22523965.730    22523969.935   120572554.710 5  93778703.738 5
      4638.254        3607.531
 05  3 17  0 19 45.0000000  0 13G 5G 7G 8G 9G10G18G26G28G29R 1R 2R 8
                                R21
  24684156.476    24684155.3004   24684161.0474  129716110.018 5 101077519.71941
      3936.444        3067.327
  22394098.611    22394098.2414   22394102.5314  117681822.754 7  91700129.59645
      1535.529        1196.509
  24639006.661    24639007.1924   24639011.5804  129478985.967 5 100892729.06041
     -2677.294       -2086.204
  22218601.374    22218601.4254   22218604.3654  116759554.579 7  90981495.59244
      3021.420        2354.352
  25296059.291    25296055.2694   25296065.9184  132931735.360 5 103583168.77441
     -3175.053       -2474.052
  23606595.300    23606594.6944   23606597.3844  124053479.589 6  96665075.84142
      1523.352        1187.013
  20318991.798    20318991.6314   20318994.3454  106777102.581 8  83202915.06147
        95.263          74.233
  22301668.430    22301667.9144   22301670.4834  117196113.900 7  91321683.98645
     -2127.010       -1657.409
  20636215.412    20636215.7444   20636218.7594  108444106.386 8  84501919.69746
      -548.168        -427.144
  21479684.125    21479685.973    21479690.584   114861606.850 7  89336781.401 6
      -780.898        -607.368
  23133000.330    23132997.296    23133001.734   123659177.064 7  96179363.156 5
      2793.036        2172.357
  22752446.630    22752447.303    22752451.905   121838308.566 7  94763155.161 5
     -3618.433       -2814.344
  22510970.527    22510972.685    22510977.364   120503006.144 5  93724610.426 5
      4634.928        3604.938
 05  3 17  0 20  0.0000000  0 13G 5G 7G 8G 9G10G18G26G28G29R 1R 2R 8
                                R21
  24672925.203    24672920.9174   24672927.3234  129657081.289 5 101031523.35541
      3934.098        3065.524
  22389727.012    22389726.8184   22389730.9054  117658851.776 7  91682230.13345
      1527.259        1190.075
  24646650.881    24646649.1264   24646653.9094  129519155.411 5 100924029.87641
     -2678.670       -2087.271
  22209982.126    22209982.1964   22209985.4654  116714260.168 7  90946201.24444
      3017.866        2351.583
  25305117.175    25305115.3004   25305126.5124  132979352.146 5 103620272.66541
     -3173.850       -2473.063
  23602261.745    23602260.2364   23602262.2324  124030701.678 6  96647326.82542
      1513.649        1179.467
  20318733.124    20318733.1104   20318735.8194  106775744.067 8  83201856.47447
        85.869          66.914
  22307746.608    22307745.9324   22307748.8034  117228054.847 7  91346573.02445
     -2131.773       -1661.125
  20637793.088    20637792.8234   20637795.7914  108452393.588 8  84508377.25247
      -556.811        -433.879
  21481894.090    21481894.786    21481899.827   114873420.256 7  89345969.595 6
      -794.201        -617.712
  23125178.232    23125175.052    23125180.300   123617366.550 6  96146843.867 5
      2781.620        2163.482
  22762587.797    22762588.987    22762593.961   121892617.256 7  94805395.247 6
     -3622.714       -2817.656
  22497987.783    22497990.934    22497994.186   120433512.027 6  93670559.436 5
      4631.007        3601.894
 05  3 17  0 20 15.0000000  0 13G 5G 7G 8G 9G10G18G26G28G29R 1R 2R 8
                                R21
  24661698.426    24661696.4534   24661702.5374  129598082.207 6 100985550.05941
      3932.217        3064.069
  22385378.407    22385378.3104   22385382.4664  117635999.560 7  91664423.22145
      1519.484        1184.010
  24654298.300    24654298.9124   24654301.6004  129559340.745 5 100955343.07341
     -2679.569       -2087.969
  22201372.388    22201371.5524   22201375.2244  116669013.407 7  90910944.05144
      3014.839        2349.231
  25314176.813    25314174.0184   25314180.3824  133026944.852 5 103657357.86241
     -3171.997       -2471.704
  23597952.882    23597952.9684   23597955.1664  124008063.541 6  96629686.71442
      1504.499        1172.326
  20318500.600    20318500.3964   20318503.1344  106774520.986 8  83200903.42747
        76.993          59.993
  22313837.538    22313836.8594   22313839.3384  117260061.079 7  91371512.93845
     -2135.945       -1664.369
  20639393.871    20639393.4454   20639396.4764  108460805.224 8  84514931.76547
      -564.970        -440.235
  21484139.761    21484140.724    21484144.725   114885426.787 7  89355308.014 6
      -806.887        -627.579
  23117383.563    23117383.689    23117389.873   123575722.046 6  96114453.701 5
      2770.726        2155.011
  22772740.309    22772741.426    22772746.197   121946983.940 7  94847680.426 6
     -3626.364       -2820.505
  22485018.533    22485019.119    22485023.530   120364073.161 5  93616551.434 5
      4627.406        3599.091
 05  3 17  0 20 30.0000000  0 13G 5G 7G 8G 9G10G18G26G28G29R 1R 2R 8
                                R21
  24650474.444    24650474.8164   24650479.7414  129539110.143 6 100939597.84941
      3930.832        3062.986
  22381052.080    22381051.5804   22381056.0914  117613263.546 7  91646706.85445
      1512.136        1178.288
  24661947.140    24661947.3754   24661952.0314  129599539.251 6 100986666.59841
     -2680.092       -2088.363
  22192770.588    22192770.0464   22192773.1584  116623811.732 7  90875721.97544
      3012.234        2347.193
  25323226.580    25323226.0874   25323232.5204  133074510.510 5 103694421.98441
     -3169.933       -2470.055
  23593671.467    23593670.1634   23593672.1674  123985562.409 6  96612153.36142
      1495.785        1165.540
  20318292.946    20318292.9454   20318295.6614  106773430.712 8  83200053.85847
        68.537          53.406
  22319940.019    22319939.4664   22319941.8204  117292129.618 7  91396501.41745
     -2139.694       -1667.298
  20641017.458    20641017.3174   20641020.2114  108469338.443 8  84521581.02146
      -572.653        -446.220
  21486420.556    21486421.267    21486425.800   114897623.189 7  89364794.095 6
      -819.146        -637.112
  23109625.151    23109624.669    23109630.156   123534241.781 6  96082191.272 5
      2760.160        2146.791
  22782903.162    22782903.653    22782908.748   122001404.499 6  94890007.502 5
     -3629.562       -2822.987
  22472055.915    22472056.679    22472061.147   120294686.259 5  93562583.847 5
      4624.363        3596.727
 05  3 17  0 20 45.0000000  0 13G 5G 7G 8G 9G10G18G26G28G29R 1R 2R 8
                                R21
  24639258.490    24639258.2694   24639262.3154  129480166.213 6 100893667.52241
      3928.589        3061.249
  22376748.085    22376747.5074   22376751.4654  117590644.822 7  91629081.88445
      1503.909        1171.882
  24669600.413    24669598.8144   24669605.7244  129639751.836 5 101018001.07041
     -2681.398       -2089.418
  22184177.855    22184177.2154   22184180.5164  116578656.157 7  90840535.82744
      3008.761        2344.489
  25332275.312    25332274.1414   25332278.7244  133122049.546 5 103731465.34341
     -3168.411       -2468.931
  23589416.060    23589415.3384   23589417.1184  123963199.442 6  96594727.66942
      1486.181        1158.056
  20318110.787    20318110.8584   20318113.6874  106772474.130 8  83199308.46847
        59.242          46.164
  22326054.606    22326053.9514   22326056.0024  117324261.218 7  91421539.03145
     -2144.286       -1670.876
  20642664.550    20642664.5434   20642667.3384  108477994.285 8  84528325.83147
      -581.212        -452.889
  21488737.489    21488738.010    21488742.506   114910010.376 7  89374428.563 6
      -832.242        -647.301
  23101895.644    23101895.814    23101900.693   123492927.151 6  96050057.688 5
      2748.689        2137.870
  22793075.147    22793076.203    22793081.189   122055879.489 6  94932376.923 5
     -3633.541       -2826.086
  22459103.067    22459105.049    22459109.361   120225352.777 5  93508657.825 5
      4620.393        3593.645
 05  3 17  0 21  0.0000000  0 13G 5G 7G 8G 9G10G18G26G28G29R 1R 2R 8
                                R21
  24628046.682    24628046.5844   24628051.0244  129421249.691 6 100847758.56041
      3926.967        3059.993
  22372466.040    22372465.4114   22372469.8864  117568142.718 7  91611547.77945
      1496.396        1166.024
  24677255.381    24677252.9604   24677260.4654  129679977.649 5 101049345.81941
     -2681.923       -2089.802
  22175593.672    22175592.9374   22175596.4184  116533545.921 7  90805385.00645
      3006.040        2342.371
  25341314.390    25341314.5404   25341323.2514  133169561.088 4 103768487.11341
     -3166.341       -2467.271
  23585185.545    23585185.8004   23585186.8554  123940973.947 6  96577409.08642
      1477.276        1151.122
  20317953.951    20317954.0384   20317956.8924  106771650.504 8  83198666.67647
        50.621          39.446
  22332180.700    22332179.8734   22332182.3124  117356454.749 7  91446624.90445
     -2148.160       -1673.891
  20644335.397    20644334.8224   20644337.6494  108486771.804 8  84535165.45047
      -589.057        -459.005
  21491088.759    21491089.791    21491094.327   114922587.243 7  89384210.556 6
      -844.599        -656.911
  23094198.160    23094197.511    23094203.118   123451777.431 6  96018052.333 5
      2737.949        2129.513
  22803257.498    22803259.219    22803264.087   122110407.837 6  94974787.845 5
     -3636.791       -2828.615
  22446162.907    22446163.694    22446167.736   120156072.478 6  93454773.149 5
      4617.099        3591.079
 05  3 17  0 21 15.0000000  0 13G 5G 7G 8G 9G10G18G26G28G29R 1R 2R 8
                                R21
  24616841.194    24616841.3374   24616845.7374  129362359.367 6 100801870.03841
      3924.946        3058.379
  22368205.691    22368205.2794   22368209.8394  117545755.946 7  91594103.54945
      1488.450        1159.834
  24684909.953    24684910.0954   24684914.4204  129720215.025 5 101080699.61241
     -2683.058       -2090.650
  22167017.337    22167017.2564   22167020.5434  116488479.596 7  90770268.40944
      3002.809        2339.850
  25350348.598    25350351.7984   25350350.9094  133217042.901 5 103805485.92741
     -3164.609       -2465.930
  23580983.066    23580981.8374   23580984.8724  123918884.378 6  96560196.44742
      1467.975        1143.862
  20317822.391    20317822.3624   20317825.1634  106770958.298 8  83198127.29747
        41.624          32.433
  22338317.981    22338317.7684   22338320.0404  117388708.367 7  91471757.60045
     -2152.399       -1677.197
  20646028.225    20646027.9394   20646030.8364  108495669.481 8  84542098.70147
      -597.340        -465.459
  21493475.981    21493476.610    21493481.107   114935351.757 7  89394138.505 6
      -857.377        -666.849
  23086530.506    23086530.843    23086536.045   123410791.672 6  95986174.528 5
      2726.750        2120.806
  22813451.363    22813451.858    22813456.770   122164987.093 7  95017238.372 5
     -3640.419       -2831.437
  22433230.161    22433230.680    22433235.413   120086844.172 6  93400928.927 5
      4613.295        3588.118
 05  3 17  0 21 30.0000000  0 13G 5G 7G 8G 9G10G18G26G28G29R 1R 2R 8
                                R21
  24605641.800    24605640.6054   24605644.8054  129303504.362 6 100756009.00241
      3922.651        3056.610
  22363969.776    22363968.8924   22363973.3744  117523493.534 7  91576756.22745
      1480.225        1153.420
  24692570.726    24692571.0224   24692575.1194  129760472.633 5 101112069.13741
     -2684.283       -2091.662
  22158451.571    22158451.6634   22158454.5744  116443466.230 7  90735193.06044
      2999.268        2337.091
  25359382.708    25359382.4404   25359386.5604  133264503.835 5 103842468.37541
     -3163.131       -2464.792
  23576806.831    23576806.5684   23576808.6344  123896939.905 6  96543096.85842
      1458.313        1136.332
  20317717.549    20317717.3614   20317720.1174  106770406.484 8  83197697.30847
        32.294          25.165
  22344469.106    22344468.5474   22344470.7484  117421030.857 7  91496943.95145
     -2156.960       -1680.741
  20647745.966    20647745.6734   20647748.6144  108504696.245 8  84549132.54147
      -605.895        -472.124
  21495899.600    21495900.967    21495905.018   114948312.723 7  89404219.251 6
      -870.424        -676.993
  23078896.877    23078895.805    23078901.080   123369978.443 6  95954430.917 5
      2715.294        2111.900
  22823653.617    22823655.433    22823659.886   122219626.078 6  95059735.360 5
     -3644.395       -2834.527
  22420308.476    22420309.818    22420314.051   120017678.616 6  93347133.509 5
      4609.156        3584.898
 05  3 17  0 21 45.0000000  0 13G 5G 7G 8G 9G10G18G26G28G29R 1R 2R 8
                                R21
  24594447.008    24594444.9864   24594448.9864  129244676.479 6 100710169.14541
      3921.117        3055.414
  22359755.272    22359754.6134   22359759.4014  117501347.363 7  91559499.47845
      1472.729        1147.572
  24700232.376    24700234.7104   24700240.4084  129800742.401 5 101143448.16641
     -2684.881       -2092.104
  22149895.130    22149894.3634   22149897.4334  116398497.526 7  90700152.52544
      2996.622        2335.029
  25368408.562    25368407.4424   25368412.1534  133311935.134 5 103879427.76241
     -3160.991       -2463.083
  23572655.118    23572655.0094   23572658.5284  123875132.221 6  96526103.85742
      1449.480        1129.460
  20317637.897    20317637.4574   20317640.3294  106769986.813 8  83197370.28647
        23.741          18.501
  22350631.521    22350631.0204   22350633.0964  117453413.485 7  91522177.16645
     -2160.662       -1683.634
  20649486.854    20649486.4664   20649489.2924  108513843.677 8  84556260.40447
      -613.683        -478.195
  21498358.517    21498359.334    21498363.692   114961461.734 7  89414446.249 6
      -882.681        -686.531
  23071292.584    23071290.911    23071297.154   123329330.274 6  95922815.660 5
      2704.520        2103.515
  22833864.862    22833867.525    22833873.109   122274315.474 6  95102271.545 5
     -3647.428       -2836.885
  22407397.988    22407398.792    22407402.901   119948565.837 6  93293379.138 5
      4605.832        3582.316
 05  3 17  0 22  0.0000000  0 13G 5G 7G 8G 9G10G18G26G28G29R 1R 2R 8
                                R21
  24583256.032    24583255.9714   24583258.8954  129185872.739 6 100664348.06741
      3919.125        3053.872
  22355562.495    22355561.9144   22355566.2534  117479314.377 7  91542330.92445
      1464.770        1141.374
  24707900.226    24707898.2534   24707904.7054  129841020.866 5 101174833.99041
     -2685.862       -2092.867
  22141345.521    22141344.9324   22141348.1854  116353570.604 7  90665144.55045
      2993.406        2332.520
  25377428.318    25377426.1874   25377432.4894  133359333.401 5 103916361.35141
     -3159.142       -2461.654
  23568533.517    23568532.2274   23568534.2174  123853458.463 6  96509215.22842
      1440.093        1122.137
  20317582.405    20317582.1974   20317584.8934  106769696.035 8  83197143.69847
        14.779          11.518
  22356804.788    22356803.9644   22356806.1204  117485852.912 7  91547454.64445
     -2164.835       -1686.889
  20651249.856    20651249.6064   20651252.3834  108523108.790 8  84563479.96347
      -621.892        -484.593
  21500852.147    21500852.666    21500857.222   114974795.007 7  89424816.560 6
      -895.346        -696.381
  23063721.353    23063718.358    23063723.493   123288844.173 6  95891326.472 5
      2693.337        2094.823
  22844087.387    22844089.680    22844094.830   122329051.467 6  95144843.973 5
     -3650.935       -2839.613
  22394496.567    22394497.148    22394502.248   119879505.034 6  93239665.193 5
      4601.968        3579.303
 05  3 17  0 22 15.0000000  0 13G 5G 7G 8G 9G10G18G26G28G29R 1R 2R 8
                                R21
  24572072.082    24572071.2584   24572075.4944  129127103.295 5 100618553.70641
      3916.519        3051.787
  22351393.286    22351392.6154   22351397.1044  117457404.864 7  91525258.58845
      1456.234        1134.726
  24715568.170    24715567.3954   24715571.5244  129881317.995 5 101206234.34541
     -2687.337       -2094.034
  22132805.577    22132805.7904   22132808.6184  116308695.345 7  90630176.83145
      2989.687        2329.627
  25386444.172    25386442.9274   25386446.1224  133406708.211 5 103953276.70741
     -3157.784       -2460.609
  23564435.879    23564434.6024   23564436.7754  123831928.525 6  96492438.64342
      1430.268        1114.489
  20317553.393    20317553.3144   20317556.0594  106769544.185 8  83197025.37147
         5.226           4.070
  22362990.123    22362989.3344   22362991.7244  117518358.829 7  91572783.93845
     -2169.537       -1690.547
  20653037.307    20653036.9554   20653039.7684  108532501.338 8  84570798.82947
      -630.702        -491.458
  21503382.039    21503382.665    21503386.789   114988322.290 7  89435337.779 6
      -908.547        -706.652
  23056177.276    23056176.006    23056182.251   123248530.459 6  95859971.370 5
      2681.529        2085.631
  22854319.079    22854321.303    22854326.540   122383843.688 6  95187460.128 5
     -3654.973       -2842.760
  22381605.914    22381607.551    22381612.251   119810506.170 5  93185999.423 5
      4597.539        3575.867
 05  3 17  0 22 30.0000000  0 13G 5G 7G 8G 9G10G18G26G28G29R 1R 2R 8
                                R21
  24560893.770    24560893.8834   24560899.0014  129068366.453 5 100572784.80241
      3914.735        3050.417
  22347246.920    22347246.3794   22347250.9654  117435617.093 7  91508281.10545
      1448.496        1128.695
  24723240.364    24723237.7044   24723244.8994  129921632.272 5 101237648.06941
     -2688.205       -2094.665
  22124276.033    22124275.7934   22124278.4344  116263870.093 7  90595248.07044
      2986.743        2327.337
  25395453.841    25395452.6924   25395460.5864  133454057.533 5 103990172.15041
     -3155.714       -2459.002
  23560365.749    23560365.4324   23560367.8034  123810540.853 6  96475772.90842
      1421.189        1107.419
  20317550.475    20317550.4834   20317553.2764  106769529.658 8  83197014.04747
        -3.568          -2.779
  22369188.228    22369187.5754   22369189.2104  117550929.077 7  91598163.35345
     -2173.455       -1693.598
  20654848.378    20654848.1944   20654851.0214  108542019.571 8  84578215.62947
      -638.694        -497.679
  21505947.500    21505948.125    21505952.268   115002041.515 7  89446008.284 6
      -921.006        -716.336
  23048668.730    23048667.010    23048672.722   123208388.253 6  95828749.652 5
      2670.464        2077.024
  22864561.766    22864563.894    22864568.583   122438689.768 6  95230118.180 5
     -3658.148       -2845.227
  22368727.159    22368729.097    22368734.453   119741567.715 5  93132380.639 5
      4593.946        3573.075
 05  3 17  0 22 45.0000000  0 13G 5G 7G 8G 9G10G18G26G28G29R 1R 2R 8
                                R21
  24549723.502    24549724.2334   24549726.6764  129009662.468 5 100527041.43941
      3912.649        3048.851
  22343124.291    22343123.5854   22343128.0584  117413951.296 7  91491398.67745
      1440.471        1122.446
  24730914.525    24730914.9654   24730918.4304  129961963.199 6 101269074.74641
     -2689.093       -2095.390
  22115755.509    22115754.9534   22115758.6464  116219095.036 7  90560358.43245
      2983.557        2324.846
  25404459.833    25404456.5724   25404462.3604  133501381.007 5 104027047.49441
     -3153.865       -2457.590
  23556322.598    23556322.3134   23556325.0394  123789295.514 6  96459218.12342
      1411.750        1100.058
  20317573.863    20317573.8174   20317576.6824  106769652.266 8  83197109.58547
       -12.596          -9.812
  22375398.228    22375397.5524   22375399.5064  117583563.535 7  91623592.79945
     -2177.608       -1696.831
  20656683.676    20656683.4954   20656686.2344  108551663.494 8  84585730.37447
      -646.966        -504.127
  21508548.495    21508549.952    21508553.855   115015952.624 7  89456828.025 6
      -933.648        -726.171
  23041191.108    23041189.744    23041195.411   123168417.566 6  95797661.324 5
      2659.179        2068.246
  22874814.635    22874815.874    22874820.957   122493589.209 6  95272817.717 5
     -3661.521       -2847.843
  22355862.868    22355862.758    22355867.476   119672690.147 6  93078809.216 5
      4589.961        3569.971
 05  3 17  0 23  0.0000000  0 13G 5G 7G 8G 9G10G18G26G28G29R 1R 2R 8
                                R21
  24538558.540    24538557.8074   24538561.2024  128950990.505 5 100481323.06741
      3909.797        3046.568
  22339024.291    22339023.6254   22339028.4114  117392406.624 7  91474610.62145
      1431.657        1115.576
  24738592.533    24738590.9754   24738597.0714  130002309.767 5 101300513.61841
     -2690.923       -2096.816
  22107243.646    22107243.8784   22107247.2014  116174369.266 7  90525507.19045
      2979.447        2321.646
  25413460.597    25413459.4674   25413463.1774  133548677.135 5 104063901.50641
     -3152.743       -2456.654
  23552306.641    23552306.6164   23552308.8764  123768191.568 6  96442773.48843
      1401.553        1092.123
  20317623.207    20317623.1364   20317625.9084  106769911.179 8  83197311.33147
       -22.441         -17.485
  22381620.089    22381620.0184   22381621.8144  117616260.821 7  91649071.20845
     -2182.549       -1700.688
  20658542.804    20658542.4294   20658545.1894  108561432.193 8  84593342.33847
      -656.019        -511.182
  21511185.952    21511186.317    21511191.006   115030054.219 7  89467795.918 6
      -947.107        -736.635
  23033745.498    23033743.952    23033749.455   123128617.727 6  95766705.887 5
      2646.904        2058.705
  22885077.254    22885077.838    22885082.352   122548540.138 7  95315557.315 5
     -3665.733       -2851.122
  22343007.591    22343007.511    22343012.030   119603873.691 6  93025285.300 5
      4585.083        3566.176
 05  3 17  0 23 15.0000000  0 13G 5G 7G 8G 9G10G18G26G28G29R 1R 2R 8
                                R21
  24527400.456    24527402.1804   24527405.2504  128892355.100 5 100435633.11841
      3907.247        3044.606
  22334948.468    22334947.8874   22334952.5224  117370987.597 7  91457920.47845
      1423.167        1108.958
  24746274.027    24746272.4714   24746277.3624  130042676.470 5 101331968.19241
     -2692.330       -2097.934
  22098743.753    22098743.0594   22098746.2554  116129697.261 7  90490697.85245
      2975.746        2318.762
  25422455.832    25422453.8384   25422463.0674  133595950.199 5 104100737.57441
     -3151.347       -2455.571
  23548319.319    23548318.9334   23548320.7874  123747233.504 6  96426442.51343
      1391.732        1084.447
  20317699.330    20317699.2024   20317701.9434  106770310.758 8  83197622.68647
       -31.893         -24.853
  22387854.882    22387854.7964   22387856.9954  117649025.064 7  91674601.79245
     -2187.074       -1704.215
  20660425.837    20660425.6944   20660428.5874  108571329.863 8  84601054.80347
      -664.733        -517.974
  21513858.763    21513860.090    21513864.537   115044350.246 7  89478915.052 6
      -960.124        -746.759
  23026333.505    23026331.485    23026337.343   123088994.039 6  95735887.468 5
      2635.133        2049.548
  22895349.015    22895349.398    22895354.478   122603546.634 6  95358340.120 5
     -3669.513       -2854.063
  22330162.872    22330164.130    22330168.456   119535122.494 6  92971812.174 5
      4580.618        3562.701
 05  3 17  0 23 30.0000000  0 13G 5G 7G 8G 9G10G18G26G28G29R 1R 2R 8
                                R21
  24516250.608    24516249.6004   24516254.9314  128833753.665 6 100389969.70841
      3906.079        3043.709
  22330895.870    22330895.4864   22330899.8894  117349691.644 7  91441326.24045
      1416.146        1103.480
  24753957.494    24753955.9894   24753963.1614  130083060.557 4 101363436.22041
     -2692.450       -2097.999
  22090252.206    22090251.9024   22090254.7614  116085076.349 7  90455928.31445
      2973.488        2317.005
  25431446.362    25431446.0244   25431449.8544  133643196.939 5 104137553.14041
     -3148.378       -2453.260
  23544358.170    23544357.3054   23544359.4824  123726418.595 6  96410223.12643
      1383.392        1077.967
  20317801.529    20317801.4984   20317804.3084  106770848.298 8  83198041.54447
       -39.940         -31.124
  22394101.752    22394101.4974   22394103.8874  117681853.400 7  91700182.31245
     -2190.200       -1706.651
  20662333.490    20662333.2624   20662336.1364  108581353.782 8  84608865.64347
      -671.948        -523.597
  21516568.386    21516568.942    21516573.942   115058837.600 7  89490182.992 6
      -971.677        -755.754
  23018953.500    23018951.494    23018957.242   123049543.045 6  95705203.370 5
      2624.777        2041.486
  22905632.396    22905631.815    22905636.765   122658605.312 7  95401163.518 5
     -3671.831       -2855.873
  22317330.060    22317331.926    22317336.440   119466434.135 5  92918387.916 5
      4577.590        3560.339
 05  3 17  0 23 45.0000000  0 13G 5G 7G 8G 9G10G18G26G28G29R 1R 2R 8
                                R21
  24505105.072    24505103.9444   24505107.5834  128775181.916 6 100344329.38541
      3903.991        3042.078
  22326865.990    22326865.8064   22326869.9204  117328514.592 7  91424824.64445
      1408.054        1097.180
  24761646.342    24761646.9774   24761647.0044  130123457.272 5 101394914.14041
     -2693.312       -2098.659
  22081770.414    22081769.7504   22081773.4564  116040502.319 7  90421195.31245
      2970.268        2314.498
  25440432.564    25440428.7694   25440437.7384  133690412.881 5 104174344.67641
     -3146.568       -2451.894
  23540422.688    23540422.8524   23540425.5664  123705742.750 6  96394112.07143
      1373.963        1070.618
  20317929.140    20317929.2564   20317932.0664  106771519.393 8  83198564.47047
       -48.984         -38.168
  22400360.206    22400359.7224   22400362.0064  117714741.084 7  91725809.07145
     -2194.260       -1709.819
  20664264.269    20664263.8374   20664266.8314  108591499.548 8  84616771.42947
      -680.224        -530.044
  21519313.515    21519313.769    21519318.134   115073511.633 7  89501596.122 6
      -984.261        -765.536
  23011603.563    23011603.501    23011608.510   123010261.279 6  95674650.897 5
      2613.430        2032.668
  22915921.833    22915922.184    22915926.691   122713711.079 7  95444023.539 5
     -3675.092       -2858.403
  22304511.519    22304511.819    22304515.694   119397806.042 5  92865010.530 5
      4573.431        3557.112
 05  3 17  0 24  0.0000000  0 13G 5G 7G 8G 9G10G18G26G28G29R 1R 2R 8
                                R21
  24493964.168    24493963.8684   24493966.1444  128716637.525 6 100298710.41642
      3901.624        3040.227
  22322858.692    22322858.1044   22322862.4154  117307453.936 7  91408413.74145
      1399.795        1090.756
  24769333.911    24769334.8014   24769339.1524  130163864.060 5 101426399.95141
     -2694.468       -2099.618
  22073296.574    22073296.3934   22073299.4694  115995972.630 7  90386496.86245
      2966.813        2311.800
  25449411.457    25449409.1604   25449413.1134  133737594.953 5 104211109.79741
     -3144.779       -2450.484
  23536514.712    23536514.1424   23536516.8034  123685203.401 6  96378107.38343
      1364.386        1063.167
  20318082.047    20318081.8284   20318084.6054  106772321.416 9  83199189.41447
       -58.215         -45.359
  22406629.670    22406628.7954   22406631.1134  117747685.285 7  91751479.87044
     -2198.522       -1713.127
  20666217.650    20666217.2764   20666220.1914  108601764.443 8  84624770.04047
      -688.659        -536.614
  21522091.283    21522091.786    21522096.743   115088369.392 7  89513152.140 6
      -997.001        -775.440
  23004286.798    23004285.248    23004291.227   122971146.495 6  95644228.281 5
      2601.745        2023.581
  22926218.849    22926220.393    22926224.904   122768860.832 6  95486917.792 5
     -3678.444       -2861.012
  22291701.998    22291702.854    22291706.098   119329235.402 6  92811677.814 5
      4569.075        3553.729
 05  3 17  0 24 15.0000000  0 13G 5G 7G 8G 9G10G18G26G28G29R 1R 2R 8
                                R21
  24482829.281    24482828.0754   24482833.1454  128658125.602 6 100253116.74742
      3899.565        3038.622
  22318874.102    22318873.4644   22318877.8094  117286514.882 7  91392097.60345
      1391.681        1084.435
  24777027.489    24777027.4054   24777031.9414  130204285.921 5 101457897.50941
     -2695.430       -2100.327
  22064832.802    22064832.0594   22064835.1574  115951492.455 7  90351836.99945
      2963.460        2309.189
  25458378.584    25458375.7524   25458388.4454  133784747.979 4 104247852.26941
     -3142.746       -2448.872
  23532632.874    23532632.5754   23532635.2984  123664805.625 6  96362213.01942
      1354.932        1055.779
  20318260.620    20318260.3734   20318263.1774  106773259.522 8  83199920.41047
       -67.267         -52.418
  22412910.117    22412909.5774   22412911.4424  117780690.677 7  91777198.36744
     -2202.607       -1716.316
  20668194.538    20668194.1804   20668197.1004  108612153.418 8  84632865.34347
      -696.917        -543.053
  21524904.526    21524905.218    21524910.423   115103415.512 7  89524854.673 6
     -1009.526        -785.184
  22997001.729    22997001.010    22997006.201   122932203.883 6  95613939.588 5
      2590.179        2014.588
  22936527.145    22936529.130    22936533.353   122824058.985 6  95529849.679 5
     -3681.718       -2863.563
  22278904.941    22278905.322    22278909.034   119260726.765 6  92758393.327 5
      4564.905        3550.482
 05  3 17  0 24 30.0000000  0 13G 5G 7G 8G 9G10G18G26G28G29R 1R 2R 8
                                R21
  24471700.939    24471700.9444   24471702.9354  128599646.111 6 100207548.32741
      3897.427        3036.954
  22314913.034    22314912.0934   22314916.2514  117265697.315 7  91375876.13445
      1383.657        1078.176
  24784721.942    24784721.3184   24784724.2024  130244722.525 5 101489406.60041
     -2696.403       -2101.107
  22056377.358    22056376.9414   22056379.9334  115907061.564 7  90317215.53645
      2960.290        2306.724
  25467350.140    25467347.8654   25467356.3054  133831871.326 5 104284571.65841
     -3140.646       -2447.268
  23528778.049    23528777.3534   23528780.4634  123644549.224 6  96346428.80642
      1345.585        1048.508
  20318464.932    20318464.7154   20318467.4594  106774333.394 8  83200757.18947
       -76.234         -59.402
  22419202.098    22419201.7344   22419203.8544  117813756.758 7  91802964.15045
     -2206.552       -1719.398
  20670195.018    20670194.8904   20670197.7034  108622666.375 8  84641057.25347
      -705.139        -549.460
  21527754.390    21527754.795    21527759.386   115118649.305 7  89536703.166 6
     -1021.981        -794.873
  22989748.315    22989748.260    22989754.047   122893434.200 6  95583785.390 5
      2578.766        2005.705
  22946843.550    22946845.515    22946850.250   122879304.671 6  95572818.542 5
     -3684.757       -2865.918
  22266118.570    22266118.877    22266122.181   119192280.872 6  92705157.648 5
      4560.791        3547.282
 05  3 17  0 24 45.0000000  0 13G 5G 7G 8G 9G10G18G26G28G29R 1R 2R 8
                                R21
  24460577.240    24460577.3664   24460582.0724  128541196.849 6 100162003.46342
      3896.006        3035.841
  22310973.210    22310973.1594   22310977.3944  117244999.072 7  91359747.63745
      1376.258        1072.407
  24792418.965    24792419.5184   24792423.3604  130285171.480 5 101520925.24741
     -2696.674       -2101.299
  22047930.994    22047930.5914   22047934.4334  115862677.708 7  90282630.71845
      2957.708        2304.706
  25476307.772    25476311.9034   25476314.3584  133878962.286 4 104321265.76941
     -3137.954       -2445.064
  23524949.256    23524950.2254   23524952.5664  123624431.824 6  96330752.90842
      1336.886        1041.729
  20318694.402    20318694.4244   20318697.2274  106775540.665 8  83201697.91847
       -84.581         -65.908
  22425505.473    22425504.9824   22425507.6214  117846880.920 7  91828775.19145
     -2209.850       -1721.959
  20672218.703    20672218.5554   20672221.3594  108633300.892 8  84649343.88346
      -712.658        -555.316
  21530637.044    21530637.506    21530643.544   115134068.305 7  89548695.707 6
     -1033.751        -804.028
  22982529.452    22982527.302    22982532.575   122854834.946 6  95553763.742 5
      2568.015        1997.350
  22957169.545    22957171.102    22957175.263   122934594.773 7  95615821.944 5
     -3687.161       -2867.792
  22253342.472    22253344.442    22253348.154   119123896.920 6  92651970.134 5
      4557.202        3544.491
 05  3 17  0 25  0.0000000  0 13G 5G 7G 8G 9G10G18G26G28G29R 1R 2R 8
                                R21
  24449462.397    24449460.5704   24449466.8334  128482781.249 6 100116484.85942
      3893.129        3033.610
  22307058.200    22307057.9774   22307061.9974  117224423.555 7  91343714.76745
      1367.423        1065.521
  24800119.773    24800117.6334   24800122.1024  130325635.946 5 101552455.99041
     -2698.367       -2102.605
  22039494.679    22039494.4984   22039498.0844  115818344.233 7  90248085.15345
      2953.653        2301.549
  25485266.937    25485267.0654   25485272.2394  133926023.626 5 104357936.91241
     -3136.632       -2444.159
  23521149.976    23521148.2924   23521150.3914  123604456.835 6  96315187.97343
      1326.699        1033.791
  20318950.344    20318950.1884   20318952.9974  106776884.617 8  83202745.14547
       -94.346         -73.515
  22431820.405    22431819.8044   22431822.3794  117880066.150 7  91854633.80044
     -2214.598       -1725.660
  20674266.369    20674266.0154   20674268.8374  108644060.158 8  84657727.72147
      -721.635        -562.312
  21533554.970    21533555.800    21533561.648   115149675.607 7  89560834.700 6
     -1046.958        -814.296
  22975341.530    22975339.126    22975344.515   122816409.558 6  95523877.348 5
      2555.686        1987.756
  22967502.502    22967504.422    22967509.868   122989932.125 7  95658862.098 5
     -3690.951       -2870.737
  22240581.315    22240581.109    22240586.184   119055578.606 6  92598833.688 5
      4552.179        3540.580
 05  3 17  0 25 15.0000000  0 13G 5G 7G 8G 9G10G18G26G28G29R 1R 2R 8
                                R21
  24438354.074    24438352.7954   24438356.9894  128424403.032 6 100070995.38342
      3890.753        3031.744
  22303167.237    22303166.5154   22303170.7934  117203974.485 7  91327780.43545
      1359.270        1059.170
  24807822.870    24807822.2024   24807826.0664  130366119.302 5 101584001.45141
     -2699.248       -2103.309
  22031068.677    22031068.5294   22031071.9674  115774064.860 7  90213581.76745
      2950.372        2298.988
  25494215.991    25494215.7354   25494223.8684  133973058.796 5 104394587.58041
     -3134.579       -2442.545
  23517375.497    23517375.6364   23517377.0724  123584628.076 6  96299736.99642
      1317.210        1026.407
  20319232.635    20319232.6314   20319235.4344  106778368.915 8  83203901.74147
      -103.385         -80.561
  22438147.538    22438147.0854   22438149.5574  117913315.718 7  91880542.55844
     -2218.544       -1728.733
  20676337.970    20676337.7674   20676340.5564  108654947.551 8  84666211.40147
      -729.868        -568.731
  21536510.100    21536510.389    21536516.344   115165474.259 7  89573122.524 6
     -1059.430        -824.002
  22968186.340    22968184.145    22968189.806   122778162.605 6  95494129.736 6
      2544.131        1978.769
  22977846.807    22977847.700    22977852.732   123045319.984 7  95701941.503 5
     -3693.977       -2873.089
  22227829.554    22227831.896    22227836.675   118987329.554 6  92545751.124 5
      4547.775        3537.158
 05  3 17  0 25 30.0000000  0 13G 5G 7G 8G 9G10G18G26G28G29R 1R 2R 8
                                R21
  24427251.262    24427249.7504   24427253.1204  128366055.816 6 100025530.04441
      3888.610        3030.094
  22299298.945    22299298.1604   22299302.2914  117183645.482 7  91311939.66145
      1351.025        1052.741
  24815528.781    24815527.3244   24815534.4994  130406615.242 5 101615556.71441
     -2700.382       -2104.213
  22022651.880    22022651.2154   22022654.8924  115729833.282 7  90179115.60745
      2946.957        2296.327
  25503160.387    25503161.1154   25503165.5994  134020061.022 5 104431212.49241
     -3132.645       -2441.030
  23513628.354    23513628.6214   23513630.7494  123564939.091 6  96284394.91542
      1307.744        1019.015
  20319540.598    20319540.5674   20319543.3314  106779986.983 8  83205162.56847
      -112.549         -87.700
  22444485.882    22444485.3624   22444487.2144  117946622.962 7  91906496.25344
     -2222.617       -1731.915
  20678432.874    20678432.8174   20678435.6064  108665956.711 8  84674789.96047
      -738.212        -575.230
  21539499.677    21539499.902    21539504.806   115181457.432 7  89585553.869 6
     -1071.879        -833.684
  22961063.500    22961061.605    22961067.342   122740087.582 6  95464515.815 6
      2532.311        1969.575
  22988197.876    22988199.350    22988204.822   123100750.993 7  95745054.498 5
     -3697.039       -2875.480
  22215092.619    22215094.633    22215098.258   118919144.649 6  92492718.435 5
      4543.299        3533.679
 05  3 17  0 25 45.0000000  0 13G 5G 7G 8G 9G10G18G26G28G29R 1R 2R 8
                                R21
  24416153.131    24416152.2394   24416155.8674  128307740.118 5  99980089.27141
      3886.883        3028.740
  22295452.650    22295452.4264   22295456.7324  117163436.834 7  91296192.67245
      1343.471        1046.862
  24823234.505    24823235.2574   24823240.5614  130447123.661 5 101647121.69441
     -2700.756       -2104.482
  22014243.687    22014243.6684   22014247.0514  115685649.673 7  90144686.82745
      2944.184        2294.167
  25512098.570    25512097.3444   25512105.5934  134067029.848 5 104467811.60041
     -3129.923       -2438.895
  23509908.918    23509908.4344   23509911.2874  123545390.041 6  96269161.89942
      1298.839        1012.087
  20319874.151    20319873.9564   20319876.6884  106781739.041 9  83206527.80447
      -121.068         -94.341
  22450835.060    22450834.1724   22450836.2884  117979987.686 7  91932494.74544
     -2225.990       -1734.536
  20680551.396    20680550.9074   20680553.6994  108677087.632 8  84683463.40147
      -745.881        -581.205
  21542522.190    21542522.898    21542528.652   115197624.575 7  89598128.294 6
     -1083.709        -842.885
  22953971.600    22953971.013    22953976.020   122702184.709 6  95435035.811 5
      2521.372        1961.070
  22998557.213    22998558.493    22998564.749   123156224.525 7  95788200.538 5
     -3699.420       -2877.326
  22202367.933    22202369.256    22202372.390   118851022.867 6  92439734.833 5
      4539.520        3530.737
 05  3 17  0 26  0.0000000  0 13G 5G 7G 8G 9G10G18G26G28G29R 1R 2R 8
                                R21
  24405062.914    24405060.6614   24405065.8124  128249456.951 6  99934673.83941
      3884.090        3026.525
  22291630.747    22291629.9364   22291634.0924  117143349.691 7  91280540.35945
      1334.688        1040.015
  24830948.231    24830945.3794   24830954.3364  130487645.679 5 101678697.14141
     -2702.371       -2105.700
  22005845.187    22005845.0134   22005848.1004  115641515.126 7  90110296.27945
      2940.277        2291.125
  25521027.744    25521032.5184   25521040.0594  134113966.303 5 104504385.15441
     -3128.439       -2437.732
  23506215.554    23506215.1664   23506217.7834  123525982.033 6  96254038.76643
      1288.774        1004.233
  20320233.280    20320232.9614   20320235.9184  106783626.026 8  83207998.17347
      -130.677        -101.824
  22457195.256    22457194.5014   22457196.7674  118013410.623 7  91958538.59244
     -2230.537       -1738.079
  20682692.773    20682692.4184   20682695.3284  108688341.331 8  84692232.50747
      -754.738        -588.105
  21545580.662    21545580.687    21545586.086   115213976.857 7  89610846.720 6
     -1096.669        -852.965
  22946913.092    22946913.333    22946918.829   122664455.657 6  95405690.989 5
      2509.061        1951.494
  23008923.867    23008925.449    23008931.941   123211741.150 7  95831380.117 5
     -3702.902       -2880.026
  22189655.085    22189655.488    22189658.773   118782966.960 6  92386802.463 5
      4534.414        3526.765
 05  3 17  0 26 15.0000000  0 13G 5G 7G 8G 9G10G18G26G28G29R 1R 2R 8
                                R21
  24393978.251    24393977.2954   24393980.7824  128191209.938 6  99889286.58042
      3882.049        3024.963
  22287831.825    22287831.1684   22287835.4644  117123387.662 7  91264985.54045
      1326.767        1033.845
  24838663.541    24838661.6124   24838667.1954  130528184.344 5 101710285.71041
     -2702.983       -2106.193
  21997457.045    21997456.4024   21997459.8934  115597433.099 7  90075946.67045
      2937.214        2288.739
  25529957.335    25529954.5684   25529963.9704  134160873.111 5 104540935.82141
     -3125.927       -2435.758
  23502549.912    23502549.4914   23502551.8704  123506718.440 6  96239028.17843
      1279.559         997.067
  20320618.539    20320618.3444   20320621.2844  106785651.381 8  83209576.36847
      -139.471        -108.677
  22463566.833    22463565.9094   22463568.3604  118046894.858 7  91984630.21044
     -2234.158       -1740.905
  20684857.858    20684857.9324   20684860.8094  108699721.166 8  84701099.90947
      -762.687        -594.301
  21548673.961    21548674.029    21548679.478   115230517.140 7  89623711.377 6
     -1108.782        -862.391
  22939888.577    22939887.721    22939894.006   122626904.177 6  95376484.274 6
      2497.621        1942.592
  23019299.457    23019301.559    23019306.453   123267303.946 6  95874595.602 5
     -3705.514       -2882.061
  22176953.404    22176954.832    22176959.016   118714981.691 6  92333925.050 5
      4530.188        3523.477
 05  3 17  0 26 30.0000000  0 13G 5G 7G 8G 9G10G18G26G28G29R 1R 2R 8
                                R21
  24382900.105    24382900.5664   24382904.9254  128132999.422 5  99843927.72241
      3879.493        3022.993
  22284056.906    22284056.3434   22284060.9464  117103551.177 7  91249528.54245
      1318.323        1027.265
  24846379.576    24846379.9464   24846385.5194  130568739.763 5 101741887.32641
     -2704.221       -2107.168
  21989077.848    21989077.8654   21989081.0834  115553404.018 7  90041638.29945
      2933.558        2285.891
  25538878.118    25538877.0354   25538881.5104  134207750.466 5 104577463.47741
     -3124.025       -2434.259
  23498912.867    23498911.6474   23498914.1064  123487599.801 6  96224130.53543
      1269.791         989.454
  20321030.135    20321030.1984   20321033.0274  106787815.262 8  83211262.50447
      -148.811        -115.955
  22469949.994    22469949.8584   22469951.8614  118080440.416 7  92010769.60244
     -2238.336       -1744.160
  20687047.618    20687047.4434   20687050.2834  108711227.301 8  84710065.71847
      -771.214        -600.944
  21551801.762    21551802.359    21551807.497   115247245.647 7  89636722.435 6
     -1121.408        -872.205
  22932899.766    22932897.741    22932902.678   122589530.830 6  95347416.130 6
      2485.661        1933.289
  23029684.276    23029686.183    23029690.919   123322912.427 7  95917846.621 5
     -3708.678       -2884.523
  22164266.527    22164268.099    22164272.001   118647066.483 6  92281102.134 5
      4525.375        3519.736
 05  3 17  0 26 45.0000000  0 12G 5G 7G 8G 9G18G26G28G29R 1R 2R 8R21
  24371829.077    24371827.9784   24371832.1164  128074817.689 6  99798591.36641
      3877.374        3021.327
  22280304.821    22280303.9974   22280308.1374  117083832.210 7  91234163.12345
      1310.228        1020.951
  24854100.234    24854100.0204   24854101.9714  130609303.977 5 101773495.79041
     -2705.134       -2107.905
  21980708.273    21980708.1334   21980711.2924  115509419.837 7  90007364.92445
      2930.327        2283.372
  23495300.753    23495300.1314   23495302.4374  123468617.943 6  96209339.48643
      1260.470         982.192
  20321466.776    20321466.8374   20321469.6634  106790109.725 8  83213050.39447
      -157.768        -122.936
  22476344.045    22476343.1704   22476345.6814  118114038.966 7  92036950.28344
     -2242.126       -1747.108
  20689259.979    20689259.4784   20689262.4664  108722851.673 8  84719123.66547
      -779.380        -607.308
  21554964.161    21554964.691    21554969.031   115264153.383 8  89649872.893 6
     -1133.600        -881.690
  22925938.683    22925937.329    22925942.528   122552327.616 6  95318480.306 5
      2474.064        1924.272
  23040077.367    23040077.788    23040081.766   123378557.621 7  95961126.218 5
     -3711.377       -2886.634
  22151590.285    22151592.442    22151597.124   118579214.192 6  92228328.144 5
      4520.894        3516.253
 05  3 17  0 27  0.0000000  0 12G 5G 7G 8G 9G18G26G28G29R 1R 2R 8R21
  24360763.006    24360762.4364   24360768.8574  128016669.944 6  99753281.43442
      3875.422        3019.811
  22276575.752    22276574.9784   22276579.2484  117064236.118 7  91218893.44645
      1302.288        1014.768
  24861820.384    24861821.5414   24861824.3104  130649882.061 5 101805115.14441
     -2705.614       -2108.283
  21972347.857    21972347.5244   21972351.2484  115465485.788 7  89973130.61145
      2927.252        2280.978
  23491714.153    23491714.4664   23491716.2794  123449778.146 6  96194659.11543
      1251.247         975.017
  20321929.187    20321929.2714   20321932.1284  106792539.857 8  83214943.99647
      -166.529        -129.762
  22482748.264    22482747.9314   22482750.3644  118147695.409 7  92063176.08444
     -2245.677       -1749.882
  20691495.092    20691495.1064   20691497.8114  108734599.446 8  84728277.76347
      -787.316        -613.495
  21558159.949    21558160.990    21558165.394   115281245.507 8  89663166.749 6
     -1145.603        -891.026
  22919011.938    22919009.438    22919015.573   122515299.782 6  95289680.876 6
      2462.669        1915.408
  23050476.724    23050477.010    23050481.828   123434244.352 7  96004438.113 5
     -3713.871       -2888.575
  22138928.640    22138930.459    22138934.355   118511430.234 6  92175607.311 5
      4516.612        3512.922
 05  3 17  0 27 15.0000000  0 12G 5G 7G 8G 9G18G26G28G29R 1R 2R 8R21
  24349705.501    24349704.3764   24349708.7274  127958556.448 6  99707998.22742
      3872.582        3017.585
  22272869.718    22272869.3354   22272873.6534  117044763.190 7  91203719.74645
      1293.556        1007.963
  24869544.163    24869544.9134   24869548.7644  130690474.186 5 101836745.40541
     -2707.177       -2109.475
  21963997.001    21963996.9314   21964000.0954  115421602.131 7  89938935.56545
      2923.344        2277.931
  23488157.325    23488156.4774   23488158.8474  123431080.575 6  96180089.58043
      1241.181         967.154
  20322417.532    20322417.5744   20322420.4554  106795105.916 8  83216943.52247
      -176.123        -137.243
  22489163.937    22489163.3234   22489165.7094  118181409.550 7  92089446.84744
     -2250.064       -1753.302
  20693754.495    20693754.0884   20693756.9054  108746470.572 8  84737527.99047
      -796.071        -620.317
  21561390.637    21561391.387    21561395.507   115298521.642 8  89676603.744 6
     -1158.451        -901.017
  22912118.353    22912117.165    22912121.958   122478447.724 6  95261018.187 6
      2450.420        1905.878
  23060883.515    23060883.572    23060889.175   123489972.428 7  96047782.166 5
     -3717.115       -2891.092
  22126279.313    22126280.468    22126284.207   118443714.950 6  92122939.887 5
      4511.518        3508.959
 05  3 17  0 27 30.0000000  0 12G 5G 7G 8G 9G18G26G28G29R 1R 2R 8R21
  24338651.314    24338651.7034   24338657.0674  127900476.305 6  99662741.01142
      3871.347        3016.635
  22269187.809    22269187.0084   22269191.3864  117025412.444 7  91188641.25145
      1286.423        1002.414
  24877270.986    24877270.8224   24877276.5464  130731079.177 4 101868385.63441
     -2707.008       -2109.344
  21955655.999    21955655.6924   21955658.7024  115377768.007 7  89904779.11245
      2921.065        2276.151
  23484625.508    23484624.9524   23484627.1844  123412524.321 6  96165630.16343
      1232.874         960.679
  20322931.604    20322931.5074   20322934.3294  106797806.783 8  83219048.09147
      -184.095        -143.453
  22495589.825    22495589.8544   22495592.1724  118215180.193 7  92115761.63044
     -2252.813       -1755.447
  20696036.894    20696036.3324   20696039.1974  108758464.089 8  84746873.58247
      -803.202        -625.876
  21564655.738    21564656.787    21564660.321   115315980.492 8  89690182.844 6
     -1169.552        -909.651
  22905255.548    22905254.207    22905261.047   122441771.561 6  95232492.263 6
      2439.637        1897.494
  23071297.635    23071298.477    23071303.295   123545739.723 7  96091156.707 5
     -3718.666       -2892.288
  22113643.547    22113644.069    22113647.200   118376069.328 6  92070326.621 5
      4507.903        3506.147
 05  3 17  0 27 45.0000000  0 12G 5G 7G 8G 9G18G26G28G29R 1R 2R 8R21
  24327607.876    24327606.4164   24327611.1084  127842434.116 5  99617513.33042
      3868.345        3014.302
  22265529.412    22265528.7894   22265533.0994  117006188.530 7  91173661.58245
      1277.457         995.426
  24885003.240    24885001.5464   24885008.1684  130771701.653 5 101900039.48941
     -2708.688       -2110.684
  21947324.977    21947324.6494   21947327.9284  115333987.907 7  89870664.75345
      2916.990        2272.983
  23481122.249    23481122.1584   23481124.6234  123394113.896 6  96151284.37543
      1222.650         952.723
  20323472.201    20323471.9684   20323474.8444  106800646.868 8  83221261.14247
      -193.851        -151.053
  22502027.743    22502027.5924   22502029.9204  118249011.469 7  92142123.66244
     -2257.306       -1758.949
  20698343.227    20698342.8154   20698345.6074  108770584.338 8  84756317.92647
      -812.100        -632.805
  21567955.423    21567956.361    21567960.476   115333626.165 7  89703907.250 6
     -1182.465        -919.695
  22898427.877    22898427.282    22898433.230   122405276.002 6  95204106.819 5
      2427.222        1887.840
  23081719.077    23081721.218    23081725.780   123601550.386 6  96134564.953 5
     -3721.995       -2894.880
  22101017.917    22101019.665    22101024.504   118308496.784 6  92017770.221 5
      4502.531        3501.967
 05  3 17  0 28  0.0000000  0 12G 5G 7G 8G 9G18G26G28G29R 1R 2R 8R21
  24316569.508    24316568.6314   24316574.0784  127784428.318 6  99572314.05042
      3865.427        3012.029
  22261894.762    22261894.3554   22261898.8704  116987089.863 7  91158779.50745
      1268.660         988.567
  24892735.515    24892736.5714   24892741.7664  130812339.421 5 101931705.22341
     -2710.138       -2111.793
  21939003.771    21939003.7944   21939007.0584  115290260.194 7  89836591.21645
      2913.015        2269.884
  23477646.245    23477645.6724   23477648.1994  123375847.631 6  96137050.91043
      1212.524         944.827
  20324038.638    20324038.7424   20324041.4194  106803624.411 8  83223581.29947
      -203.504        -158.575
  22508477.598    22508476.8534   22508478.9344  118282901.308 7  92168531.31944
     -2261.669       -1762.340
  20700673.386    20700673.0414   20700675.7674  108782829.522 8  84765859.61847
      -820.919        -639.677
  21571289.404    21571290.390    21571295.286   115351456.681 8  89717775.424 6
     -1195.261        -929.643
  22891634.367    22891633.955    22891639.767   122368958.789 6  95175860.109 6
      2414.712        1878.109
  23092148.868    23092150.866    23092155.622   123657402.122 6  96178005.149 5
     -3725.273       -2897.437
  22088408.662    22088410.424    22088414.807   118240996.980 6  91965270.383 5
      4497.178        3497.804
 05  3 17  0 28 15.0000000  0 13G 5G 7G 8G 9G18G22G26G28G29R 1R 2R 8
                                R21
  24305539.852    24305537.5554   24305543.2144  127726462.378 5  99527145.83142
      3862.849        3009.999
  22258285.405    22258284.6344   22258288.9544  116968119.921 7  91143997.74645
      1260.123         981.916
  24900472.728    24900470.1614   24900477.1714  130852995.935 5 101963385.61241
     -2711.314       -2112.746
  21930693.248    21930692.9004   21930696.5134  115246588.413 7  89802561.27045
      2909.350        2267.028
  23474198.494    23474198.1974   23474201.1614  123357728.937 6  96122932.45143
      1202.784         937.232
  25237235.928                                   132622607.305 4
      2523.347
  20324632.286    20324632.1974   20324634.7844  106806742.843 8  83226011.24747
      -212.843        -165.851
  22514938.552    22514937.8944   22514939.6894  118316852.865 7  92194987.08844
     -2265.721       -1765.497
  20703028.166    20703027.6294   20703030.4164  108795202.852 8  84775501.17447
      -829.394        -646.278
  21574659.785    21574660.910    21574664.327   115369474.917 8  89731789.606 6
     -1207.722        -939.344
  22884874.508    22884874.043    22884880.300   122332824.535 6  95147755.691 6
      2402.625        1868.704
  23102588.683    23102589.486    23102593.994   123713297.818 7  96221479.554 5
     -3728.045       -2899.586
  22075813.684    22075814.664    22075819.192   118173573.475 5  91912829.904 5
      4492.026        3493.798
 05  3 17  0 28 30.0000000  0 13G 5G 7G 8G 9G18G22G26G28G29R 1R 2R 8
                                R21
  24294515.504    24294515.4794   24294518.7834  127668537.416 5  99482009.54442
      3860.966        3008.520
  22254699.823    22254699.4814   22254703.6424  116949279.699 7  91129317.06345
      1252.406         975.902
  24908212.078    24908212.9734   24908217.7514  130893671.868 5 101995081.07541
     -2711.662       -2112.969
  21922394.025    21922393.3564   21922396.7544  115202973.500 7  89768575.63445
      2906.488        2264.792
  23470779.670    23470778.2804   23470780.7604  123339758.659 6  96108929.63243
      1193.734         930.171
  25230044.975                                   132584809.726 4
      2516.892
  20325252.485    20325252.5524   20325255.2114  106810002.874 8  83228551.52647
      -221.372        -172.502
  22521410.853    22521410.8204   22521412.7164  118350866.697 7  92221491.36944
     -2268.956       -1768.013
  20705407.213    20705406.7284   20705409.5364  108807705.255 8  84785243.30247
      -837.075        -652.266
  21578064.033    21578064.549    21578069.286   115387681.362 8  89745950.166 6
     -1219.310        -948.353
  22878151.343    22878148.957    22878155.057   122296874.478 6  95119794.529 6
      2391.240        1859.851
  23113033.525    23113035.109    23113039.702   123769237.616 7  96264988.277 5
     -3730.049       -2901.145
  22063233.824    22063234.017    22063239.250   118106227.755 5  91860449.916 5
      4487.853        3490.551
 05  3 17  0 28 45.0000000  0 13G 5G 7G 8G 9G18G22G26G28G29R 1R 2R 8
                                R21
  24283496.819    24283497.6864   24283502.0584  127610644.019 5  99436897.80542
      3858.491        3006.631
  22251137.338    22251137.0024   22251141.4274  116930559.587 7  91114729.97145
      1243.968         969.329
  24915955.221    24915954.6084   24915959.3834  130934357.539 5 102026784.14141
     -2712.722       -2113.807
  21914103.136    21914102.7624   21914105.8784  115159405.906 7  89734626.87145
      2902.884        2261.983
  23467385.475    23467385.1994   23467387.3574  123321927.202 6  96095034.99543
      1184.092         922.675
  25222868.262                                   132547110.804 4
      2509.931
  20325897.870    20325898.0484   20325900.7254  106813395.008 8  83231194.74647
      -230.592        -179.683
  22527893.579    22527893.4354   22527895.3284  118384932.892 7  92248036.46044
     -2272.852       -1771.055
  20707808.793    20707808.4804   20707811.3984  108820327.029 8  84795078.44346
      -845.474        -658.810
  21581502.387    21581503.176    21581507.618   115406065.764 7  89760249.130 6
     -1231.592        -957.912
  22871458.474    22871456.905    22871462.146   122261098.727 6  95091968.960 5
      2379.165        1850.458
  23123486.337    23123487.241    23123491.327   123825211.387 6  96308523.419 5
     -3732.745       -2903.250
  22050664.507    22050666.571    22050670.656   118038950.056 5  91808122.839 5
      4482.830        3486.641
 05  3 17  0 29  0.0000000  0 13G 5G 7G 8G 9G18G22G26G28G29R 1R 2R 8
                                R21
  24272488.041    24272487.2044   24272493.5294  127552784.283 6  99391812.34742
      3855.832        3004.545
  22247598.642    22247597.8554   22247602.1544  116911961.801 7  91100238.18945
      1235.435         962.675
  24923700.645    24923699.7434   24923704.3484  130975054.757 5 102058496.20041
     -2713.857       -2114.691
  21905821.711    21905821.3524   21905824.6224  115115887.626 7  89700716.52445
      2899.258        2259.160
  23464019.512    23464019.0564   23464020.6024  123304236.801 6  96081250.26043
      1174.351         915.075
  25215713.815                                   132509512.623 4
      2502.821
  20326568.995    20326569.0914   20326571.7154  106816921.085 8  83233942.33447
      -239.858        -186.903
  22534386.486    22534385.8554   22534388.2804  118419053.210 7  92274623.71244
     -2276.815       -1774.146
  20710233.646    20710233.3494   20710236.2784  108833070.018 8  84805008.03847
      -853.904        -665.378
  21584973.958    21584974.256    21584979.376   115424629.966 7  89774687.950 6
     -1243.925        -967.500
  22864797.546    22864796.297    22864802.651   122225499.148 6  95064280.404 6
      2367.033        1841.024
  23133946.582    23133947.057    23133950.711   123881220.313 7  96352085.913 5
     -3735.405       -2905.326
  22038111.892    22038112.253    22038116.689   117971744.665 6  91755851.975 5
      4477.636        3482.604
 05  3 17  0 29 15.0000000  0 13G 5G 7G 8G 9G18G22G26G28G29R 1R 2R 8
                                R21
  24261485.774    24261485.7814   24261491.1714  127494967.205 5  99346760.10942
      3853.105        3002.412
  22244084.924    22244084.0854   22244088.1094  116893495.380 7  91085848.78445
      1226.837         955.975
  24931448.631    24931446.2594   24931452.8604  131015772.412 6 102090224.25441
     -2715.125       -2115.676
  21897551.716    21897551.2074   21897554.2714  115072427.648 7  89666851.61745
      2895.454        2256.201
  23460682.139    23460680.5274   23460683.5534  123286696.260 6  96067582.30443
      1164.442         907.370
  25208580.149                                   132472024.609 4
      2495.678
  20327267.467    20327267.3364   20327269.9714  106820590.030 8  83236801.24847
      -249.296        -194.260
  22540891.362    22540890.7284   22540892.7984  118453236.210 7  92301259.82244
     -2280.848       -1777.285
  20712683.207    20712682.9424   20712686.0144  108845943.117 8  84815039.02447
      -862.459        -672.047
  21588480.227    21588480.916    21588486.304   115443382.614 7  89789273.331 6
     -1256.362        -977.168
  22858174.046    22858172.203    22858178.108   122190085.437 6  95036736.410 6
      2354.850        1831.549
  23144413.839    23144414.027    23144418.754   123937272.722 6  96395682.224 5
     -3738.247       -2907.523
  22025573.472    22025572.898    22025576.672   117904619.037 6  91703643.174 5
      4472.421        3478.552
 05  3 17  0 29 30.0000000  0 13G 5G 7G 8G 9G18G22G26G28G29R 1R 2R 8
                                R21
  24250491.207    24250491.2164   24250495.9394  127437187.714 6  99301737.14442
      3850.470        3000.379
  22240594.673    22240593.9494   22240598.1874  116875155.217 7  91071557.75545
      1218.270         949.297
  24939199.862    24939197.8774   24939202.8054  131056505.336 5 102121964.18541
     -2716.210       -2116.521
  21889291.442    21889291.3664   21889294.2744  115029020.884 7  89633028.17145
      2891.810        2253.364
  23457370.981    23457370.9834   23457372.6954  123269300.503 6  96054027.16643
      1154.652         899.738
  25201468.457                                   132434641.484 4
      2488.494
  20327991.674    20327991.6784   20327994.2904  106824396.604 8  83239767.40447
      -258.558        -201.473
  22547406.695    22547406.2414   22547408.2994  118487476.459 7  92327940.52844
     -2284.783       -1780.352
  20715156.448    20715156.2884   20715159.3354  108858941.033 8  84825167.26346
      -870.887        -678.610
  21592020.567    21592021.943    21592027.518   115462317.694 7  89804000.603 6
     -1268.619        -986.704
  22851582.845    22851581.187    22851586.347   122154852.380 6  95009332.925 6
      2342.603        1822.024
  23154888.397    23154888.464    23154893.529   123993362.861 6  96439307.855 5
     -3740.793       -2909.511
  22013045.721    22013046.928    22013051.015   117837570.047 5  91651493.967 5
      4467.189        3474.482
 05  3 17  0 29 45.0000000  0 13G 5G 7G 8G 9G18G22G26G28G29R 1R 2R 8
                                R21
  24239505.184    24239502.3364   24239508.2034  127379448.197 6  99256745.34142
      3848.196        2998.582
  22237128.673    22237128.1834   22237132.4884  116856943.601 7  91057366.89245
      1210.046         942.890
  24946955.202    24946954.2454   24946957.7494  131097255.674 5 102153717.69141
     -2716.974       -2117.111
  21881042.323    21881042.1364   21881045.1324  114985669.732 7  89599248.06045
      2888.470        2250.752
  23454088.150    23454088.3394   23454090.6614  123252051.732 6  96040586.55643
      1145.226         892.385
  25194374.685                                   132397365.551 4
      2481.735
  20328742.742    20328742.6444   20328745.2404  106828343.050 8  83242842.55547
      -267.498        -208.443
  22553933.947    22553933.1434   22553935.7654  118521775.960 7  92354667.40844
     -2288.375       -1783.153
  20717654.190    20717653.9614   20717656.8864  108872065.869 8  84835394.40447
      -879.005        -684.940
  21595596.565    21595597.126    21595602.930   115481437.544 7  89818871.585 6
     -1280.591        -996.015
  22845024.904    22845024.020    22845029.878   122119803.485 6  94982072.688 6
      2330.703        1812.770
  23165368.980    23165369.580    23165376.287   124049492.644 6  96482964.326 5
     -3743.056       -2911.263
  22000535.209    22000537.201    22000540.588   117770599.393 6  91599405.693 5
      4462.382        3470.741
 05  3 17  0 30  0.0000000  0 13G 5G 7G 8G 9G18G22G26G28G29R 1R 2R 8
                                R21
  24228523.481    24228523.0864   24228527.6874  127321745.631 6  99211782.31642
      3845.985        2996.886
  22233687.442    22233686.8854   22233691.0854  116838857.480 7  91043273.81445
      1201.911         936.552
  24954712.059    24954712.1884   24954713.3794  131138019.943 5 102185482.07341
     -2717.693       -2117.684
  21872802.509    21872802.2334   21872805.7334  114942371.005 7  89565508.79645
      2885.186        2248.201
  23450834.513    23450833.1094   23450835.7584  123234946.769 6  96027258.03343
      1135.882         885.114
  25187300.430                                   132360193.955 4
      2474.994
  20329519.793    20329519.5844   20329522.2444  106832426.056 8  83246024.11047
      -276.394        -215.371
  22560471.506    22560470.9014   22560473.0484  118556131.094 7  92381437.64244
     -2291.868       -1785.869
  20720175.392    20720175.1494   20720178.0574  108885314.430 8  84845717.94847
      -887.002        -691.168
  21599205.853    21599206.922    21599212.348   115500738.318 7  89833883.278 6
     -1292.395       -1005.193
  22838500.128    22838501.030    22838507.287   122084934.510 6  94954952.356 6
      2319.001        1803.671
  23175856.212    23175858.223    23175864.886   124105657.812 6  96526648.294 5
     -3745.191       -2912.923
  21988038.968    21988039.433    21988043.711   117703704.379 6  91547376.247 5
      4457.444        3466.892
 05  3 17  0 30 15.0000000  0 13G 5G 7G 8G 9G18G22G26G28G29R 1R 2R 8
                                R21
  24217550.163    24217549.5554   24217553.8564  127264078.756 6  99166847.11942
      3843.229        2994.750
  22230269.245    22230268.7484   22230272.8794  116820895.428 7  91029277.42445
      1193.299         929.843
  24962468.944    24962465.2664   24962469.1754  131178796.675 4 102217256.17541
     -2718.904       -2118.607
  21864573.110    21864572.5584   21864575.6994  114899123.394 7  89531809.36845
      2881.415        2245.260
  23447605.414    23447606.2284   23447607.5994  123217984.111 6  96014040.35743
      1126.022         877.426
  25180248.242                                   132323125.712 4
      2467.831
  20330322.458    20330322.1954   20330324.9074  106836644.251 8  83249311.01347
      -285.752        -222.663
  22567019.204    22567018.4154   22567020.7864  118590540.067 7  92408249.83244
     -2295.777       -1788.913
  20722719.865    20722719.6324   20722722.3564  108898685.087 8  84856136.64146
      -895.501        -697.791
  21602849.182    21602850.103    21602855.069   115520218.037 7  89849034.157 6
     -1304.641       -1014.723
  22832013.051    22832012.331    22832017.930   122050244.525 6  94927971.248 6
      2306.701        1794.101
  23186353.497    23186354.318    23186359.220   124161856.530 6  96570358.391 5
     -3747.696       -2914.873
  21975556.631    21975558.075    21975561.958   117636884.383 5  91495405.152 5
      4452.075        3462.724
 05  3 17  0 30 30.0000000  0 13G 5G 7G 8G 9G18G22G26G28G29R 1R 2R 8
                                R21
  24206582.266    24206583.0014   24206588.3324  127206447.036 5  99121939.32542
      3841.424        2993.307
  22226875.022    22226874.5944   22226878.4494  116803057.152 7  91015377.47345
      1185.510         923.779
  24970232.564    24970226.5734   24970234.8514  131219585.545 4 102249039.66041
     -2719.118       -2118.805
  21856353.266    21856352.4324   21856355.6714  114855926.501 7  89498149.45745
      2878.559        2243.036
  23444405.618    23444404.3134   23444407.2094  123201163.399 6  96000933.32443
      1117.119         870.482
  25173211.970                                   132286160.248 4
      2461.417
  20331150.550    20331150.5184   20331153.2844  106840996.925 8  83252702.69947
      -294.205        -229.249
  22573577.475    22573576.7524   22573578.7364  118625002.223 7  92435103.45144
     -2298.781       -1791.264
  20725287.421    20725287.0154   20725289.8304  108912177.297 8  84866650.04447
      -903.083        -703.696
  21606525.699    21606526.151    21606531.068   115539876.095 7  89864323.742 6
     -1315.983       -1023.541
  22825557.743    22825556.519    22825561.655   122015733.925 6  94901129.677 5
      2295.104        1785.081
  23196852.724    23196854.848    23196859.219   124218087.611 6  96614093.644 5
     -3749.287       -2916.108
  21963088.061    21963089.080    21963092.526   117570139.661 6  91443492.605 5
      4447.574        3459.225
 05  3 17  0 30 45.0000000  0 13G 5G 7G 8G 9G18G22G26G28G29R 1R 2R 8
                                R21
  24195623.183    24195621.7244   24195626.6144  127148851.314 5  99077059.58542
      3838.332        2990.898
  22223503.671    22223503.1154   22223507.7554  116785343.366 7  91001574.52845
      1176.614         916.843
  24977999.149    24977996.2434   24977998.7874  131260387.006 4 102280832.97241
     -2720.642       -2120.025
  21848141.469    21848142.0394   21848145.4724  114812780.998 7  89464529.59845
      2874.511        2239.877
  23441231.080    23441230.4754   23441233.1794  123184485.286 6  95987937.39143
      1107.011         862.607
  25166198.442                                   132249298.700 5
      2453.840
  20332004.575    20332004.5094   20332007.3914  106845484.839 8  83256199.76747
      -303.856        -236.770
  22580145.571    22580144.7854   22580146.9884  118659517.915 7  92461998.78444
     -2302.986       -1794.535
  20727878.201    20727877.8794   20727880.6234  108925791.741 8  84877258.69747
      -911.857        -710.541
  21610235.501    21610235.797    21610240.512   115559712.470 7  89879752.031 6
     -1328.495       -1033.279
  22819136.666    22819134.414    22819139.753   121981403.747 6  94874428.430 6
      2282.532        1775.304
  23207360.915    23207361.931    23207366.142   124274351.088 6  96657854.104 5
     -3752.164       -2918.353
  21950633.477    21950633.983    21950638.482   117503471.528 5  91391639.620 5
      4441.815        3454.746
 05  3 17  0 31  0.0000000  0 13G 5G 7G 8G 9G18G22G26G28G29R 1R 2R 8
                                R21
  24184671.029    24184669.6764   24184673.9484  127091297.324 6  99032212.33842
      3835.509        2988.720
  22220158.255    22220157.3604   22220161.6714  116767759.731 7  90987873.00145
      1167.889         910.048
  24985764.654    24985765.2124   24985770.8394  131301206.344 5 102312640.24141
     -2721.964       -2120.996
  21839942.489    21839942.4554   21839945.8644  114769692.463 7  89430954.11845
      2870.657        2236.876
  23438085.981    23438085.2914   23438086.8514  123167955.427 6  95975056.96443
      1097.011         854.814
  25159204.544                                   132212546.398 5
      2446.538
  20332885.353    20332885.2274   20332888.1224  106850113.378 8  83259806.41347
      -313.276        -244.109
  22586724.439    22586723.9964   22586726.4974  118694092.428 7  92488939.95144
     -2306.931       -1797.600
  20730492.895    20730492.8914   20730495.7484  108939533.699 8  84887966.71147
      -920.407        -717.200
  21613978.484    21613979.849    21613983.928   115579732.596 8  89895323.223 6
     -1340.824       -1042.860
  22812748.467    22812747.235    22812752.521   121947260.092 6  94847872.253 6
      2270.008        1765.562
  23217872.615    23217875.490    23217879.172   124330652.084 6  96701643.760 5
     -3754.693       -2920.310
  21938194.032    21938194.945    21938199.951   117436885.196 6  91339850.265 5
      4436.357        3450.500
 05  3 17  0 31 15.0000000  0 13G 5G 7G 8G 9G18G22G26G28G29R 1R 2R 8
                                R21
  24173725.855    24173724.9594   24173728.0484  127033781.850 5  98987395.12842
      3832.786        2986.573
  22216836.418    22216835.3554   22216839.5924  116750303.026 7  90974270.38645
      1159.273         903.332
  24993535.673    24993533.4284   24993539.0344  131342040.124 5 102344458.74041
     -2723.034       -2121.836
  21831753.879    21831753.3244   21831756.5964  114726657.678 7  89397420.53545
      2866.927        2233.969
  23434968.272    23434967.3174   23434969.2504  123151570.390 7  95962289.40843
      1087.187         847.164
  25152230.176                                   132175900.464 5
      2439.235
  20333792.003    20333792.2414   20333795.0894  106854879.253 8  83263520.08147
      -322.577        -251.358
  22593314.620    22593313.7364   22593315.9104  118728721.987 7  92515924.02244
     -2310.740       -1800.584
  20733131.890    20733131.5554   20733134.3224  108953399.766 8  84898771.43447
      -928.791        -723.732
  21617756.202    21617756.699    21617761.803   115599932.393 7  89911034.173 6
     -1352.918       -1052.272
  22806395.436    22806392.939    22806398.997   121913298.877 6  94821457.981 5
      2257.630        1755.929
  23228393.573    23228394.960    23228399.536   124386986.503 6  96745459.393 5
     -3757.026       -2922.139
  21925770.779    21925771.125    21925775.781   117370378.182 5  91288122.615 5
      4430.899        3446.248
 05  3 17  0 31 30.0000000  0 13G 5G 7G 8G 9G18G22G26G28G29R 1R 2R 8
                                R21
  24162789.237    24162787.8584   24162792.4434  126976305.539 6  98942608.41042
      3830.594        2984.889
  22213538.614    22213537.7564   22213542.0284  116732973.730 7  90960767.04945
      1151.214         897.045
  25001309.679    25001308.1894   25001311.6534  131382888.714 5 102376288.77841
     -2723.551       -2122.239
  21823574.570    21823574.1584   21823577.6334  114683677.197 7  89363929.25645
      2863.748        2231.494
  23431877.182    23431876.7964   23431879.3154  123135330.694 6  95949635.09043
      1077.928         839.942
  25145277.268                                   132139361.606 5
      2432.534
  20334725.438    20334725.2384   20334728.1464  106859782.918 8  83267341.11647
      -331.331        -258.179
  22599915.276    22599914.3974   22599916.1874  118763406.846 7  92542951.17844
     -2313.972       -1803.100
  20735794.168    20735793.8624   20735796.7454  108967390.321 8  84909673.15447
      -936.683        -729.881
  21621567.617    21621568.304    21621572.300   115620311.920 7  89926884.908 6
     -1364.469       -1061.254
  22800075.543    22800074.851    22800079.996   121879521.084 6  94795186.363 5
      2245.904        1746.813
  23238918.978    23238921.176    23238925.649   124443354.106 6  96789300.852 5
     -3758.729       -2923.439
  21913361.395    21913362.594    21913366.602   117303951.964 5  91236457.789 5
      4425.925        3442.384
 05  3 17  0 31 45.0000000  0 13G 5G 7G 8G 9G18G22G26G28G29R 1R 2R 8
                                R21
  24151860.377    24151859.2094   24151863.1354  126918871.857 6  98897854.92842
      3827.591        2982.540
  22210265.219    22210264.9434   22210269.3254  116715775.452 7  90947365.80345
      1142.281         890.087
  25009085.151    25009083.0254   25009089.7174  131423755.426 5 102408132.96341
     -2724.882       -2123.282
  21815407.035    21815406.4224   21815409.7994  114640754.579 7  89330483.06845
      2859.674        2228.316
  23428815.580    23428815.2664   23428817.5994  123119239.749 6  95937096.70043
      1067.883         832.120
  25138343.055                                   132102932.850 5
      2425.017
  20335685.135    20335685.1894   20335688.0644  106864827.573 8  83271272.01047
      -340.885        -265.621
  22606526.738    22606525.9854   22606527.8754  118798150.194 7  92570023.92044
     -2318.063       -1806.292
  20738480.592    20738480.4684   20738483.3514  108981508.771 8  84920674.53947
      -945.373        -736.654
  21625412.897    21625413.599    21625418.015   115640874.643 7  89942878.126 6
     -1376.829       -1070.868
  22793789.837    22793790.272    22793796.497   121845930.548 6  94769060.365 5
      2233.217        1736.948
  23249451.861    23249453.965    23249459.723   124499758.258 6  96833170.707 5
     -3761.376       -2925.506
  21900967.740    21900968.615    21900973.608   117237609.749 5  91184858.284 5
      4420.057        3437.822
 05  3 17  0 32  0.0000000  0 13G 5G 7G 8G 9G18G22G26G28G29R 1R 2R 8
                                R21
  24140936.498    24140937.6354   24140940.4944  126861478.216 5  98853132.61142
      3825.151        2980.641
  22207017.573    22207016.7164   22207020.8434  116698705.369 7  90934064.44245
      1133.956         883.603
  25016863.542    25016864.4324   25016869.2934  131464637.530 5 102439989.11541
     -2725.767       -2123.960
  21807249.249    21807249.1024   21807252.2214  114597887.068 7  89297079.81645
      2856.248        2225.648
  23425780.601    23425780.4064   23425783.1664  123103294.855 6  95924672.08643
      1058.349         824.684
  25131431.583                                   132066612.289 5
      2417.983
  20336671.567    20336671.4964   20336674.3104  106870010.429 8  83275310.59447
      -349.899        -272.649
  22613148.572    22613147.8434   22613149.5384  118832949.012 7  92597139.88244
     -2321.530       -1808.996
  20741191.114    20741190.8384   20741193.7354  108995752.082 8  84931773.21447
      -953.477        -742.967
  21629291.559    21629292.497    21629296.602   115661617.046 7  89959011.105 6
     -1388.567       -1079.997
  22787542.401    22787541.140    22787547.529   121812525.155 6  94743078.390 5
      2221.093        1727.515
  23259991.668    23259994.425    23259999.055   124556195.195 6  96877066.065 5
     -3763.374       -2927.066
  21888590.370    21888591.050    21888595.711   117171349.853 6  91133322.832 5
      4414.792        3433.722
 05  3 17  0 32 15.0000000  0 13G 5G 7G 8G 9G18G22G26G28G29R 1R 2R 8
                                R21
  24130023.241    24130022.7954   24130026.7294  126804121.737 6  98808439.29142
      3822.376        2978.479
  22203793.048    22203792.3164   22203796.5084  116681760.796 7  90920860.89045
      1125.293         876.852
  25024646.929    25024645.4924   25024650.6544  131505532.083 5 102471855.00541
     -2726.884       -2124.856
  21799102.085    21799101.6564   21799104.8414  114555071.731 7  89263717.22545
      2852.469        2222.701
  23422774.636    23422773.3484   23422776.1294  123087492.965 6  95912358.93143
      1048.526         817.038
  25124540.361                                   132030397.097 5
      2410.770
  20337683.577    20337683.5454   20337686.3724  106875328.624 8  83279454.64047
      -359.225        -279.915
  22619779.846    22619779.8174   22619781.9174  118867799.982 7  92624296.47544
     -2325.286       -1811.904
  20743924.472    20743924.4124   20743927.3144  109010117.322 8  84942966.90846
      -961.884        -749.519
  21633203.543    21633204.442    21633208.569   115682535.388 7  89975280.923 6
     -1400.634       -1089.384
  22781328.057    22781326.925    22781332.088   121779301.712 6  94717237.933 5
      2208.618        1717.818
  23270536.250    23270538.486    23270543.808   124612661.181 6  96920984.042 5
     -3765.556       -2928.759
  21876225.445    21876227.690    21876232.566   117105170.540 5  91081850.058 5
      4409.179        3429.363
 05  3 17  0 32 30.0000000  0 13G 5G 7G 8G 9G18G22G26G28G29R 1R 2R 8
                                R21
  24119116.607    24119115.4664   24119119.7654  126746803.734 6  98763775.94342
      3819.127        2975.945
  22200592.458    22200592.1034   22200596.0604  116664942.806 7  90907755.97245
      1116.227         869.787
  25032429.430    25032428.7334   25032435.8964  131546439.911 5 102503731.17141
     -2728.351       -2126.000
  21790965.070    21790964.3644   21790967.4554  114512309.811 7  89230396.26145
      2848.265        2219.427
  23419794.041    23419793.9344   23419795.6494  123071835.381 6  95900158.21843
      1038.275         809.042
  25117669.339                                   131994288.471 5
      2402.954
  20338721.715    20338721.4184   20338724.2484  106880783.118 8  83283704.89047
      -368.935        -287.481
  22626422.510    22626421.6544   22626423.8934  118902703.898 7  92651494.32444
     -2329.447       -1815.146
  20746681.749    20746681.4894   20746684.3944  109024605.476 8  84954256.37547
      -970.715        -756.398
  21637148.472    21637149.397    21637153.837   115703630.784 7  89991688.446 6
     -1413.011       -1099.010
  22775147.171    22775146.158    22775151.007   121746261.616 7  94691540.090 5
      2195.797        1707.845
  23281084.709    23281087.949    23281093.833   124669156.964 6  96964925.172 5
     -3768.118       -2930.762
  21863878.582    21863880.287    21863884.206   117039072.002 5  91030440.099 5
      4403.056        3424.599
 05  3 17  0 32 45.0000000  0 13G 5G 7G 8G 9G18G22G26G28G29R 1R 2R 8
                                R21
  24108217.741    24108215.8874   24108219.4884  126689529.825 6  98719146.96442
      3817.419        2974.604
  22197417.615    22197416.8064   22197420.8294  116648257.089 7  90894754.12345
      1108.594         863.838
  25040219.847    25040218.7084   25040221.5284  131587366.515 5 102535622.00641
     -2728.419       -2126.014
  21782838.568    21782838.0164   21782841.4864  114469606.978 7  89197121.33545
      2845.529        2217.294
  23416844.425    23416843.1974   23416845.7604  123056327.595 6  95888074.22443
      1029.510         802.222
  25110822.402                                   131958292.260 5
      2396.684
  20339786.429    20339786.4794   20339789.2064  106886379.480 8  83288065.68447
      -377.190        -293.914
  22633075.617    22633075.0144   22633076.3104  118937666.018 7  92678737.53444
     -2332.107       -1817.219
  20749463.318    20749462.8004   20749465.7244  109039222.031 8  84965645.89347
      -978.079        -762.140
  21641127.552    21641128.388    21641133.027   115724908.504 7  90008237.769 6
     -1423.905       -1107.478
  22769002.083    22769000.088    22769005.821   121713411.021 6  94665989.632 5
      2184.437        1699.005
  23291643.121    23291645.606    23291650.492   124725687.601 6  97008893.428 5
     -3769.167       -2931.575
  21851546.501    21851548.409    21851553.368   116973061.048 5  90979098.265 5
      4398.397        3420.973
 05  3 17  0 33  0.0000000  0 13G 5G 7G 8G 9G18G22G26G28G29R 1R 2R 8
                                R21
  24097324.515    24097324.1544   24097328.1724  126632291.740 6  98674545.89542
      3814.720        2972.499
  22194265.815    22194265.1234   22194269.3304  116631695.277 7  90881848.81745
      1100.013         857.153
  25048010.790    25048008.0284   25048014.8804  131628303.158 5 102567520.65441
     -2729.381       -2126.794
  21774722.013    21774721.8204   21774725.0154  114426954.842 7  89163885.91145
      2841.812        2214.402
  23413919.391    23413919.5304   23413921.2134  123040960.970 6  95876100.22543
      1019.835         794.678
  25103991.439    25103991.3214   25103989.5224  131922399.810 5 102796663.88141
      2389.397        1861.878
  20340877.068    20340876.7804   20340879.5324  106892109.059 9  83292530.28647
      -386.386        -301.083
  22639737.442    22639737.2794   22639739.2884  118972677.626 7  92706019.29944
     -2335.723       -1820.037
  20752267.429    20752267.1044   20752270.0364  109053958.407 8  84977128.77447
      -986.391        -768.619
  21645137.310    21645138.955    21645144.059   115746359.239 7  90024921.670 6
     -1435.795       -1116.726
  22762889.379    22762888.648    22762894.958   121680740.826 6  94640579.468 6
      2172.054        1689.376
  23302202.916    23302206.344    23302211.576   124782243.706 6  97052881.490 5
     -3771.149       -2933.112
  21839231.436    21839232.978    21839236.938   116907129.527 6  90927818.185 5
      4392.780        3416.604
 05  3 17  0 33 15.0000000  0 13G 5G 7G 8G 9G18G22G26G28G29R 1R 2R 8
                                R21
  24086440.038    24086438.8614   24086443.1584  126575088.539 6  98629971.99142
      3811.868        2970.290
  22191137.452    22191137.1594   22191140.7714  116615256.321 7  90869039.25045
      1091.296         850.361
  25055797.604    25055797.7384   25055805.7544  131669248.869 4 102599426.34941
     -2730.445       -2127.554
  21766615.445    21766614.9334   21766618.1804  114384352.327 7  89130689.15745
      2837.963        2211.399
  23411022.507    23411021.6204   23411023.1964  123025734.615 6  95864235.54043
      1009.843         786.896
  25097180.668    25097180.5004   25097177.0554  131886610.615 5 102768776.21841
      2381.925        1856.069
  20341992.406    20341992.1454   20341994.9314  106897970.791 8  83297097.86647
      -395.693        -308.328
  22646409.419    22646409.1084   22646411.0034  119007737.250 7  92733338.49444
     -2339.445       -1822.949
  20755094.124    20755093.8814   20755096.7904  109068813.476 8  84988704.15446
      -994.807        -775.172
  21649182.377    21649183.095    21649187.686   115767981.461 7  90041738.943 6
     -1447.709       -1125.999
  22756810.828    22756810.969    22756816.704   121648250.977 6  94615309.596 6
      2159.388        1679.521
  23312769.784    23312772.638    23312777.114   124838823.617 6  97096888.035 5
     -3773.265       -2934.752
  21826929.820    21826930.967    21826935.324   116841277.549 6  90876600.002 5
      4387.051        3412.154
 05  3 17  0 33 30.0000000  0 13G 5G 7G 8G 9G18G22G26G28G29R 1R 2R 8
                                R21
  24075563.927    24075562.5054   24075565.6134  126517931.414 6  98585433.98442
      3809.161        2968.168
  22188034.752    22188034.3644   22188038.2754  116598951.315 7  90856334.06345
      1082.760         843.708
  25063593.798    25063593.6364   25063598.2524  131710214.422 4 102631347.51741
     -2731.537       -2128.472
  21758519.815    21758519.4544   21758522.2044  114341810.540 7  89097539.71645
      2834.336        2208.568
  23408153.343    23408152.8324   23408154.9164  123010659.421 6  95852488.62843
      1000.219         779.383
  25090391.456    25090392.7554   25090393.7994  131850936.131 5 102740977.93041
      2374.725        1850.454
  20343135.267    20343134.9004   20343137.6384  106903975.626 8  83301776.95647
      -404.863        -315.477
  22653092.625    22653091.7864   22653093.7774  119042855.622 7  92760703.45444
     -2342.956       -1825.683
  20757945.787    20757945.3614   20757948.2274  109083798.001 8  85000380.40247
     -1003.055        -781.602
  21653259.749    21653260.635    21653265.626   115789786.011 7  90058698.027 6
     -1459.451       -1135.130
  22750768.957    22750768.853    22750773.764   121615951.963 7  94590188.131 6
      2147.061        1669.935
  23323342.159    23323345.257    23323349.201   124895437.828 6  97140921.309 5
     -3775.152       -2936.229
  21814644.196    21814645.310    21814649.151   116775513.852 5  90825450.470 5
      4381.562        3407.883
 05  3 17  0 33 45.0000000  0 13G 5G 7G 8G 9G18G22G26G28G29R 1R 2R 8
                                R21
  24064693.312    24064693.3614   24064697.5204  126460814.037 5  98540926.97242
      3806.583        2966.142
  22184956.482    22184955.6334   22184959.7794  116582773.972 7  90843728.35245
      1074.312         837.122
  25071396.421    25071393.1054   25071399.9404  131751193.388 5 102663279.12641
     -2732.231       -2128.959
  21750434.384    21750434.1824   21750437.6324  114299323.190 7  89064432.69345
      2830.772        2205.789
  23405312.386    23405311.6544   23405314.2324  122995729.233 6  95840854.71143
       990.565         771.872
  25083623.260    25083621.3764   25083624.4604  131815369.853 5 102713263.92241
      2367.555        1844.861
  20344303.662    20344303.6204   20344306.4384  106910117.097 8  83306562.51647
      -413.888        -322.510
  22659785.189    22659784.6914   22659786.7474  119078026.173 7  92788109.08344
     -2346.354       -1828.334
  20760820.498    20760820.2144   20760823.2014  109098905.540 8  85012152.50646
     -1011.168        -787.923
  21657370.202    21657371.102    21657376.289   115811765.965 7  90075793.537 6
     -1471.060       -1144.159
  22744762.247    22744761.197    22744766.905   121583838.547 7  94565211.029 6
      2134.823        1660.417
  23333921.933    23333922.800    23333927.920   124952079.409 6  97184975.850 5
     -3776.901       -2937.591
  21802374.860    21802376.330    21802380.963   116709834.299 6  90774366.383 5
      4375.888        3403.466
 05  3 17  0 34  0.0000000  0 13G 5G 7G 8G 9G18G22G26G28G29R 1R 2R 8
                                R21
  24053832.173    24053832.3874   24053836.5614  126403740.699 6  98496454.25642
      3803.760        2963.973
  22181902.957    22181902.3644   22181906.3004  116566728.474 7  90831225.37045
      1065.621         830.349
  25079195.466    25079195.3254   25079195.4434  131792189.943 5 102695224.55041
     -2733.338       -2129.896
  21742361.112    21742360.5214   21742363.5684  114256894.567 7  89031371.43545
      2826.934        2202.802
  23402500.181    23402499.5004   23402501.2574  122980948.039 6  95829336.89543
       980.796         764.251
  25076877.149    25076877.3734   25076876.5334  131779915.689 5 102685637.29641
      2360.123        1839.059
  20345499.060    20345499.0094   20345501.8264  106916399.305 8  83311457.73847
      -423.167        -329.741
  22666488.120    22666487.7354   22666489.7974  119113252.681 7  92815558.31344
     -2349.980       -1831.155
  20763719.526    20763719.3554   20763722.2554  109114140.132 8  85024023.60547
     -1019.569        -794.468
  21661514.692    21661515.126    21661519.950   115833925.050 8  90093028.366 6
     -1482.898       -1153.365
  22738790.425    22738789.680    22738795.005   121551915.325 7  94540381.839 6
      2122.299        1650.679
  23344504.606    23344505.679    23344511.213   125008752.104 6  97229054.583 5
     -3778.871       -2939.123
  21790121.885    21790123.423    21790127.742   116644244.719 6  90723352.280 5
      4369.914        3398.823
 05  3 17  0 34 15.0000000  0 13G 5G 7G 8G 9G18G22G26G28G29R 1R 2R 8
                                R21
  24042978.268    24042979.3274   24042983.6844  126346708.439 5  98452013.55842
      3800.775        2961.630
  22178874.413    22178873.8504   22178877.5774  116550811.919 7  90818822.86545
      1056.778         823.467
  25086999.203    25086999.6174   25087004.2784  131833200.649 5 102727180.96441
     -2734.545       -2130.821
  21734297.259    21734296.9324   21734300.3324  114214521.656 7  88998353.59545
      2823.002        2199.742
  23399714.634    23399714.4384   23399716.2294  122966312.755 6  95817932.78343
       970.805         756.464
  25070151.773    25070151.5604   25070154.4984  131744571.208 5 102658096.12541
      2352.690        1833.252
  20346720.920    20346720.7434   20346723.5584  106922819.107 8  83316460.18247
      -432.584        -337.077
  22673201.840    22673200.8554   22673203.6604  119148531.778 7  92843048.51544
     -2353.696       -1834.052
  20766642.420    20766642.0834   20766644.8964  109129498.625 8  85035991.25746
     -1028.041        -801.073
  21665690.219    21665691.289    21665696.548   115856259.766 7  90110399.807 6
     -1494.847       -1162.659
  22732854.500    22732852.092    22732857.695   121520178.450 7  94515697.610 6
      2109.518        1640.735
  23355095.145    23355094.703    23355099.935   125065452.031 6  97273154.491 5
     -3780.934       -2940.729
  21777886.234    21777887.367    21777891.896   116578742.792 6  90672406.352 5
      4363.968        3394.188
 05  3 17  0 34 30.0000000  0 13G 5G 7G 8G 9G18G22G26G28G29R 1R 2R 8
                                R21
  24032134.077    24032134.4264   24032138.0694  126289715.637 5  98407603.60842
      3798.348        2959.756
  22175869.602    22175869.0974   22175872.8754  116535022.531 7  90806519.46345
      1048.505         817.016
  25094806.136    25094805.9334   25094806.8754  131874223.677 5 102759147.01641
     -2735.197       -2131.361
  21726243.815    21726243.7904   21726247.2104  114172202.736 7  88965377.81945
      2819.594        2197.082
  23396957.483    23396956.8404   23396959.0654  122951821.535 7  95806640.91443
       961.450         749.184
  25063444.657    25063445.3354   25063444.7944  131709334.521 5 102630638.95441
      2345.637        1827.739
  20347968.219    20347968.1914   20347971.0794  106929374.642 8  83321568.38747
      -441.397        -343.947
  22679924.681    22679923.9404   22679925.7974  119183861.482 7  92870578.14944
     -2356.866       -1836.515
  20769588.017    20769587.8084   20769590.7164  109144979.103 8  85048053.95847
     -1035.967        -807.250
  21669900.303    21669900.721    21669905.906   115878767.977 7  90127906.180 6
     -1506.152       -1171.452
  22726950.426    22726949.936    22726955.174   121488627.528 6  94491158.002 5
      2097.393        1631.304
  23365686.319    23365687.210    23365692.764   125122176.720 6  97317273.659 5
     -3782.274       -2941.773
  21765664.123    21765666.082    21765670.750   116513325.672 6  90621526.387 5
      4358.459        3389.914
 05  3 17  0 34 45.0000000  0 13G 5G 7G 8G 9G18G22G26G28G29R 1R 2R 8
                                R21
  24021296.968    24021296.1784   24021299.4574  126232761.884 6  98363224.07442
      3795.189        2957.301
  22172889.285    22172888.6634   22172892.3294  116519360.005 7  90794314.89945
      1039.569         810.057
  25102615.139    25102613.6784   25102619.7254  131915258.577 5 102791122.24441
     -2736.376       -2132.231
  21718201.745    21718201.2904   21718204.3584  114129937.366 7  88932443.77145
      2815.527        2193.916
  23394226.235    23394225.7134   23394227.7714  122937473.961 6  95795460.98743
       951.367         741.337
  25056760.059    25056758.9724   25056763.5644  131674205.638 5 102603265.80041
      2337.994        1821.813
  20349241.668    20349241.4424   20349244.1834  106936065.356 8  83326781.92647
      -450.916        -351.363
  22686657.148    22686656.4674   22686658.7954  119219240.958 7  92898146.56344
     -2360.671       -1839.482
  20772556.818    20772556.7584   20772559.6334  109160580.978 8  85060211.26047
     -1044.526        -813.914
  21674141.703    21674142.008    21674147.535   115901448.489 7  90145546.565 6
     -1518.136       -1180.774
  22721083.026    22721082.237    22721087.971   121457261.506 6  94466762.195 6
      2084.506        1621.283
  23376281.194    23376283.267    23376289.932   125178925.146 6  97361411.291 5
     -3784.374       -2943.397
  21753459.921    21753461.940    21753466.222   116447993.388 6  90570712.398 5
      4352.224        3385.058
 05  3 17  0 35  0.0000000  0 13G 5G 7G 8G 9G18G22G26G28G29R 1R 2R 8
                                R21
  24010468.228    24010466.6394   24010471.0864  126175852.997 6  98318879.48142
      3792.399        2955.127
  22169933.931    22169933.1674   22169937.1484  116503829.982 7  90782213.58545
      1030.876         803.279
  25110427.255    25110423.0784   25110433.2814  131956311.048 5 102823111.19341
     -2737.449       -2133.053
  21710169.988    21710169.4394   21710172.9574  114087731.366 7  88899555.98145
      2811.743        2190.968
  23391524.500    23391524.3634   23391526.0634  122923275.921 6  95784397.57443
       941.569         733.686
  25050097.792    25050096.9754   25050096.7844  131639190.751 5 102575981.44641
      2330.529        1815.991
  20350541.603    20350541.4284   20350544.2304  106942896.914 8  83332105.21347
      -460.151        -358.559
  22693400.377    22693399.7284   22693401.4944  119254675.712 7  92925758.05244
     -2364.176       -1842.215
  20775550.239    20775549.8974   20775552.7714  109176309.903 8  85072467.56147
     -1052.821        -820.380
  21678415.334    21678416.902    21678421.851   115924306.896 7  90163325.307 6
     -1529.803       -1189.845
  22715251.048    22715250.244    22715255.785   121426086.783 6  94442515.186 6
      2071.907        1611.485
  23386884.497    23386886.190    23386893.653   125235702.400 6  97405571.333 5
     -3786.072       -2944.715
  21741272.734    21741274.094    21741278.583   116382751.845 6  90519968.984 5
      4346.363        3380.507
 05  3 17  0 35 15.0000000  0 13G 5G 7G 8G 9G18G22G26G28G29R 1R 2R 8
                                R21
  23999647.015    23999645.3074   23999650.6234  126118988.514 6  98274569.53242
      3789.646        2952.955
  22167004.128    22167003.0744   22167006.9724  116488432.093 7  90770215.24545
      1022.300         796.592
  25118242.230    25118240.2724   25118243.1934  131997380.183 5 102855113.06541
     -2738.350       -2133.761
  21702149.679    21702149.4084   21702152.4084  114045584.227 7  88866714.07245
      2808.059        2188.095
  23388851.760    23388851.1104   23388852.6964  122909226.642 6  95773450.08843
       931.864         726.135
  25043456.898    25043457.0324   25043458.5934  131604289.028 5 102548785.30841
      2323.253        1810.341
  20351868.493    20351868.1824   20351870.9204  106949868.654 8  83337537.74247
      -469.268        -365.666
  22700153.942    22700153.0424   22700155.0264  119290164.787 7  92953411.87644
     -2367.551       -1844.845
  20778567.292    20778567.0224   20778569.9544  109192165.078 8  85084822.23647
     -1061.045        -826.789
  21682722.807    21682723.937    21682729.484   115947342.111 7  90181241.576 6
     -1541.396       -1198.860
  22709455.085    22709454.586    22709459.805   121395102.473 7  94418416.269 5
      2059.453        1601.802
  23397492.867    23397494.770    23397499.428   125292507.606 6  97449753.149 5
     -3787.675       -2945.962
  21729103.410    21729104.409    21729108.034   116317602.738 6  90469297.475 5
      4340.320        3375.799
 05  3 17  0 35 30.0000000  0 13G 5G 7G 8G 9G18G22G26G28G29R 1R 2R 8
                                R21
  23988834.343    23988832.3054   23988835.7374  126062162.208 6  98230289.30842
      3787.201        2951.066
  22164097.348    22164096.8314   22164100.6894  116473159.821 7  90758314.77745
      1014.016         790.138
  25126056.838    25126059.4094   25126062.2014  132038459.545 5 102887122.91241
     -2738.963       -2134.231
  21694139.079    21694138.9274   21694142.1154  114003489.539 7  88833913.01445
      2804.638        2185.434
  23386205.196    23386204.8594   23386206.9744  122895319.609 6  95762613.43843
       922.508         718.833
  25036834.419    25036836.1954   25036834.6484  131569493.854 6 102521672.18641
      2316.120        1804.771
  20353220.375    20353220.2914   20353223.1284  106956974.074 8  83343074.42747
      -478.083        -372.527
  22706915.951    22706915.3644   22706917.3614  119325701.382 7  92981102.73044
     -2370.650       -1847.251
  20781606.930    20781606.9644   20781609.9104  109208139.998 8  85097270.21946
     -1068.924        -832.924
  21687063.680    21687064.141    21687068.459   115970547.024 7  90199289.837 6
     -1552.590       -1207.565
  22703694.222    22703692.660    22703697.679   121364302.102 7  94394460.430 6
      2047.280        1592.334
  23408104.804    23408107.357    23408110.755   125349333.149 6  97493950.796 5
     -3789.003       -2946.997
  21716947.634    21716949.967    21716953.528   116252538.995 6  90418692.356 5
      4334.812        3371.520
 05  3 17  0 35 45.0000000  0 13G 5G 7G 8G 9G18G22G26G28G29R 1R 2R 8
                                R21
  23978029.514    23978026.9244   23978030.7574  126005378.379 6  98186042.17242
      3783.975        2948.542
  22161216.532    22161215.5654   22161219.2644  116458017.513 7  90746515.59445
      1004.935         783.059
  25133877.506    25133879.4944   25133883.4564  132079553.484 4 102919144.10141
     -2740.276       -2135.258
  21686139.516    21686138.9624   21686142.7674  113961451.636 7  88801156.21645
      2800.425        2182.149
  23383586.615    23383586.4334   23383588.2944  122881559.191 7  95751891.02743
       912.278         710.865
  25030234.876    25030234.3174   25030233.9714  131534810.462 5 102494646.13641
      2308.299        1798.668
  20354598.692    20354598.6024   20354601.4234  106964217.237 8  83348718.45047
      -487.677        -380.008
  22713688.056    22713687.6294   22713689.4994  119361289.588 7  93008833.79644
     -2374.459       -1850.220
  20784670.724    20784670.4834   20784673.4644  109224238.752 8  85109814.69747
     -1077.595        -839.685
  21691434.699    21691435.697    21691440.404   115993925.541 7  90217473.120 6
     -1564.560       -1216.879
  22697965.774    22697965.688    22697971.118   121333690.454 6  94370651.378 6
      2034.246        1582.188
  23418721.545    23418723.372    23418728.239   125406183.109 6  97538167.414 5
     -3791.040       -2948.589
  21704810.643    21704812.279    21704816.072   116187565.749 6  90368157.618 5
      4328.295        3366.449
 05  3 17  0 36  0.0000000  0 13G 5G 7G 8G 9G18G22G26G28G29R 1R 2R 8
                                R21
  23967230.571    23967228.9464   23967233.3244  125948640.137 6  98141830.58142
      3781.141        2946.352
  22158359.715    22158359.0464   22158362.9834  116443008.314 8  90734820.11345
       996.295         776.338
  25141703.235    25141701.7544   25141704.9774  132120664.753 4 102951178.83941
     -2741.201       -2135.979
  21678151.540    21678151.3924   21678154.3814  113919473.627 7  88768446.08345
      2796.649        2179.210
  23380996.482    23380996.3454   23380998.7524  122867948.306 7  95741285.13543
       902.544         703.270
  25023656.698    25023657.1974   25023656.4724  131500241.628 5 102467709.39641
      2300.860        1792.914
  20356003.580    20356003.6604   20356006.4904  106971601.173 8  83354472.15647
      -496.827        -387.136
  22720470.523    22720470.2474   22720472.1994  119396932.096 7  93036607.16944
     -2377.852       -1852.868
  20787758.189    20787758.0584   20787760.9844  109240464.309 8  85122457.97947
     -1085.798        -846.075
  21695840.331    21695840.624    21695845.137   116017480.239 7  90235793.421 6
     -1575.996       -1225.775
  22692275.745    22692275.086    22692281.137   121303271.388 6  94346992.090 5
      2021.620        1572.374
  23429343.885    23429345.460    23429350.617   125463059.944 6  97582404.909 5
     -3792.517       -2949.729
  21692690.513    21692691.985    21692696.023   116122686.208 6  90317695.757 5
      4322.333        3361.819
 05  3 17  0 36 15.0000000  0 12G 5G 7G 9G18G22G26G28G29R 1R 2R 8R21
  23956441.230    23956440.8124   23956444.5154  125891944.998 6  98097652.58742
      3778.001        2943.897
  22155528.509    22155527.7884   22155531.6524  116428129.673 7  90723226.38145
       987.364         769.372
  21670174.374    21670174.0804   21670176.9214  113877552.993 7  88735780.66345
      2792.611        2176.062
  23378434.846    23378434.2184   23378436.6164  122854484.347 6  95730793.74543
       892.507         695.466
  25017099.578    25017098.5974   25017099.1494  131465784.518 6 102440859.67541
      2293.235        1786.938
  20357434.983    20357435.1174   20357437.8524  106979123.257 8  83360333.52347
      -506.270        -394.494
  22727262.661    22727262.5364   22727264.4814  119432625.910 7  93064420.52844
     -2381.479       -1855.694
  20790869.482    20790869.3054   20790872.2474  109256813.980 8  85135197.98146
     -1094.304        -852.703
  21700276.979    21700277.719    21700282.563   116041207.816 7  90254248.207 6
     -1587.779       -1234.939
  22686620.410    22686620.798    22686626.179   121273042.128 6  94323480.427 5
      2008.778        1562.385
  23439967.068    23439969.525    23439976.749   125519960.061 6  97626660.534 5
     -3794.322       -2951.142
  21680586.961    21680588.917    21680592.997   116057898.131 6  90267305.043 5
      4315.955        3356.857
 05  3 17  0 36 30.0000000  0 12G 5G 7G 9G18G22G26G28G29R 1R 2R 8R21
  23945660.022    23945660.6744   23945665.8494  125835296.606 6  98053510.99442
      3774.940        2941.515
  22152722.754    22152722.1204   22152725.9804  116413384.987 7  90711737.01845
       978.488         762.456
  21662209.162    21662208.4154   21662211.3154  113835693.108 7  88703162.57945
      2788.585        2172.920
  23375900.687    23375900.1314   23375902.8694  122841170.663 6  95720419.43343
       882.557         687.705
  25010564.358    25010564.7954   25010563.9804  131431442.968 6 102414100.01041
      2285.542        1780.967
  20358893.429    20358893.2924   20358896.1624  106986786.630 8  83366304.97947
      -515.627        -401.788
  22734066.007    22734065.4314   22734067.4464  119468374.188 7  93092276.32644
     -2385.066       -1858.488
  20794004.798    20794004.6284   20794007.5744  109273290.820 8  85148037.07746
     -1102.757        -859.289
  21704747.144    21704748.063    21704752.678   116065111.543 7  90272839.988 6
     -1599.499       -1244.050
  22681002.355    22681001.525    22681006.708   121243006.171 6  94300119.135 5
      1995.869        1552.343
  23450597.574    23450599.643    23450607.319   125576886.667 6  97670936.721 5
     -3795.988       -2952.427
  21668502.829    21668503.766    21668508.048   115993205.066 6  90216988.220 5
      4309.738        3352.023
 05  3 17  0 36 45.0000000  0 12G 5G 7G 9G18G22G26G28G29R 1R 2R 8R21
  23934888.069    23934887.9554   23934893.0844  125778687.574 6  98009400.06942
      3772.583        2939.659
  22149941.332    22149940.3744   22149944.3134  116398766.837 7  90700346.26045
       970.273         756.059
  21654252.982    21654252.8364   21654256.0514  113793886.573 7  88670586.06045
      2785.289        2170.355
  23373394.617    23373393.9504   23373395.8734  122827999.807 6  95710156.42743
       873.285         680.494
  25004049.895    25004050.6544   25004051.2834  131397209.796 6 102387424.82641
      2278.556        1775.482
  20360377.177    20360377.1054   20360379.9614  106994583.869 8  83372380.74547
      -524.318        -408.560
  22740877.427    22740876.7534   22740879.1954  119504169.155 7  93120168.50744
     -2387.928       -1860.710
  20797163.167    20797162.8474   20797165.8624  109289887.364 8  85160969.44446
     -1110.452        -865.287
  21709249.531    21709249.714    21709253.932   116089183.216 7  90291562.395 6
     -1610.408       -1252.542
  22675419.000    22675417.224    22675422.661   121213156.815 6  94276902.973 5
      1983.741        1542.914
  23461232.328    23461234.140    23461241.167   125633831.442 6  97715227.062 5
     -3796.922       -2953.164
  21656432.597    21656434.200    21656439.387   115928600.690 6  90166740.395 5
      4303.853        3347.433
 05  3 17  0 37  0.0000000  0 12G 5G 7G 9G18G22G26G28G29R 1R 2R 8R21
  23924124.924    23924124.0594   23924129.0364  125722119.581 6  97965321.12442
      3769.558        2937.313
  22147183.811    22147183.0944   22147187.1014  116384277.110 7  90689055.56945
       961.462         749.195
  21646308.073    21646307.6794   21646311.0934  113752135.291 7  88638052.60045
      2781.320        2167.261
  23370915.441    23370915.2124   23370916.7274  122814973.423 7  95700005.98843
       863.350         672.745
  24997557.477    24997556.0054   24997558.0464  131363087.314 6 102360835.88541
      2270.847        1769.466
  20361887.052    20361886.6614   20361889.4774  107002516.668 9  83378562.14247
      -533.598        -415.793
  22747698.351    22747697.4414   22747699.3214  119540012.262 7  93148098.19844
     -2391.387       -1863.419
  20800344.476    20800344.1214   20800347.2534  109306605.251 8  85173996.36446
     -1118.828        -871.812
  21713782.471    21713782.896    21713787.497   116113424.171 7  90310416.451 6
     -1621.955       -1261.516
  22669868.961    22669868.324    22669873.909   121183495.251 6  94253832.869 6
      1970.843        1532.880
  23471871.645    23471872.178    23471878.752   125690795.568 6  97759532.436 5
     -3798.484       -2954.376
  21644382.579    21644384.140    21644388.243   115864087.859 6  90116563.746 5
      4297.612        3342.583
 05  3 17  0 37 15.0000000  0 12G 5G 7G 9G18G22G26G28G29R 1R 2R 8R21
  23913367.664    23913366.4204   23913371.5454  125665591.839 6  97921273.55242
      3766.979        2935.313
  22144450.587    22144450.0524   22144453.7534  116369914.739 8  90677864.12145
       953.034         742.625
  21638373.633    21638373.4014   21638376.2444  113710438.287 7  88605561.43545
      2777.778        2164.506
  23368464.511    23368463.9394   23368465.1404  122802090.469 7  95689967.33943
       853.871         665.361
  24991084.433    24991084.2654   24991085.4434  131329074.160 6 102334332.12441
      2263.641        1763.864
  20363421.661    20363421.7014   20363424.6054  107010583.727 8  83384848.15747
      -542.500        -422.724
  22754527.699    22754526.9984   22754528.4804  119575902.087 7  93176064.29144
     -2394.423       -1865.784
  20803548.726    20803548.4694   20803551.3034  109323443.318 8  85187116.93247
     -1126.743        -877.982
  21718345.666    21718346.940    21718351.989   116137832.995 7  90329401.091 6
     -1633.073       -1270.163
  22664355.933    22664354.670    22664360.614   121154020.950 6  94230908.403 5
      1958.483        1523.265
  23482512.244    23482513.635    23482519.284   125747777.250 6  97803851.511 5
     -3799.551       -2955.200
  21632348.947    21632348.724    21632353.038   115799664.623 6  90066456.807 5
      4291.678        3337.973
 05  3 17  0 37 30.0000000  0 12G 5G 7G 9G18G22G26G28G29R 1R 2R 8R21
  23902619.239    23902617.8274   23902622.7714  125609106.582 6  97877259.07642
      3764.544        2933.408
  22141742.146    22141741.5984   22141745.6124  116355681.931 7  90666773.62845
       944.797         736.209
  21630449.725    21630449.0944   21630452.2014  113668797.869 7  88573114.36045
      2774.361        2161.839
  23366039.989    23366039.2934   23366042.0914  122789353.199 6  95680042.19543
       844.552         658.086
  24984633.821    24984634.0174   24984633.8914  131295172.937 6 102307915.59341
      2256.594        1758.389
  20364983.085    20364982.7884   20364985.7324  107018787.287 8  83391240.53747
      -551.210        -429.516
  22761366.328    22761365.6534   22761367.9364  119611840.680 7  93204068.39144
     -2397.293       -1868.023
  20806776.249    20806775.8794   20806778.9054  109340403.493 8  85200332.64546
     -1134.488        -884.016
  21722943.077    21722943.579    21722948.672   116162411.363 7  90348517.591 6
     -1643.957       -1278.637
  22658877.278    22658876.295    22658882.020   121124736.573 6  94208131.655 5
      1946.189        1513.705
  23493156.699    23493158.549    23493163.589   125804778.359 6  97848185.705 5
     -3800.470       -2955.924
  21620330.689    21620331.291    21620335.722   115735334.238 6  90016422.071 5
      4285.809        3333.402
 05  3 17  0 37 45.0000000  0 12G 5G 7G 9G18G22G26G28G29R 1R 2R 8R21
  23891878.870    23891878.1184   23891882.3834  125552665.988 6  97833279.41042
      3761.135        2930.762
  22139058.616    22139058.2254   22139062.5334  116341580.835 7  90655785.77445
       935.601         729.045
  21622536.844    21622536.3314   21622539.6704  113627216.041 7  88540712.94445
      2770.083        2158.506
  23363645.344    23363643.4894   23363646.0144  122776763.464 6  95670231.99843
       834.303         650.111
  24978204.241    24978204.2764   24978204.1574  131261385.607 6 102281587.80441
      2248.625        1752.136
  20366570.066    20366570.2624   20366573.1704  107027129.256 8  83397740.76847
      -560.869        -437.041
  22768214.322    22768214.1964   22768217.0484  119647829.646 7  93232111.73044
     -2401.062       -1870.955
  20810027.198    20810026.8064   20810029.7764  109357487.720 8  85213645.02746
     -1143.196        -890.804
  21727571.234    21727572.107    21727576.867   116187160.711 7  90367767.079 6
     -1655.761       -1287.814
  22653435.656    22653434.154    22653439.662   121095643.775 6  94185503.918 5
      1933.026        1503.464
  23503803.672    23503806.642    23503810.982   125861800.086 6  97892535.912 5
     -3802.266       -2957.316
  21608331.010    21608332.309    21608335.277   115671099.625 6  89966461.825 5
      4279.004        3328.115
 05  3 17  0 38  0.0000000  0 12G 5G 7G 9G18G22G26G28G29R 1R 2R 8R21
  23881147.330    23881146.8164   23881150.0534  125496269.468 6  97789334.07242
      3758.830        2928.947
  22136400.461    22136400.1224   22136403.6954  116327610.640 7  90644899.90745
       927.545         722.763
  21614635.230    21614634.9814   21614637.6164  113585692.220 7  88508356.72845
      2766.885        2156.017
  23361276.738    23361276.3114   23361277.9494  122764320.489 6  95660536.16343
       825.229         643.044
  24971795.319    24971795.5414   24971797.9814  131227711.559 6 102255348.29441
      2241.727        1746.820
  20368183.752    20368183.8004   20368186.7354  107035608.714 8  83404348.12847
      -569.324        -443.626
  22775072.297    22775072.1804   22775074.4994  119683868.012 7  93260193.55144
     -2403.627       -1872.945
  20813301.973    20813301.2994   20813304.2864  109374695.168 8  85227053.42046
     -1150.702        -896.651
  21732231.860    21732231.855    21732237.082   116212079.701 7  90387148.507 6
     -1666.345       -1296.049
  22648029.912    22648027.872    22648033.215   121066741.846 6  94163024.647 6
      1920.968        1494.087
  23514456.887    23514458.142    23514463.353   125918841.130 6  97936901.152 5
     -3802.822       -2957.756
  21596348.394    21596349.669    21596353.940   115606960.192 6  89916575.612 5
      4273.394        3323.747
 05  3 17  0 38 15.0000000  0 12G 5G 7G 9G18G22G26G28G29R 1R 2R 8R21
  23870422.177    23870421.8304   23870426.2034  125439914.163 6  97745420.86142
      3755.427        2926.301
  22133766.521    22133765.9674   22133769.6734  116313768.569 7  90634113.89145
       918.319         715.574
  21606744.193    21606743.2054   21606746.6134  113544223.478 7  88476043.43345
      2762.526        2152.613
  23358935.552    23358935.3314   23358938.2354  122752021.301 6  95650952.39143
       814.924         635.002
  24965410.163    24965408.0734   24965408.1204  131194148.080 6 102229194.92541
      2233.660        1740.516
  20369822.816    20369823.0154   20369825.9914  107044222.665 8  83411060.29747
      -578.951        -451.127
  22781939.295    22781938.5644   22781941.2094  119719952.468 7  93288311.30844
     -2407.364       -1875.859
  20816599.199    20816598.6934   20816601.5834  109392022.670 8  85240555.36346
     -1159.360        -903.394
  21736921.300    21736922.836    21736927.884   116237164.986 7  90406659.276 6
     -1678.072       -1305.164
  22642656.053    22642655.073    22642661.392   121038028.106 6  94140691.730 5
      1907.786        1483.832
  23525112.017    23525113.283    23525119.807   125975898.000 6  97981278.678 5
     -3804.504       -2959.059
  21584383.630    21584385.326    21584389.559   115542913.216 6  89866761.308 5
      4266.464        3318.359
 05  3 17  0 38 30.0000000  0 12G 5G 7G 9G18G22G26G28G29R 1R 2R 8R21
  23859708.235    23859707.1934   23859711.9524  125383605.195 6  97701543.75842
      3752.293        2923.884
  22131157.553    22131157.2654   22131161.0444  116300059.644 7  90623431.61745
       909.435         708.650
  21598863.997    21598863.5244   21598866.8154  113502814.858 7  88443776.98945
      2758.501        2149.482
  23356623.921    23356623.0014   23356625.6474  122739871.039 6  95641484.65243
       804.963         627.242
  24959043.940    24959043.9514   24959043.7254  131160700.060 6 102203131.52341
      2225.955        1734.521
  20371488.768    20371488.6974   20371491.6714  107052976.099 8  83417881.15247
      -588.256        -458.381
  22788816.173    22788815.2904   22788817.7364  119756087.740 7  93316468.66144
     -2410.790       -1878.539
  20819919.893    20819919.8424   20819922.6914  109409475.054 8  85254154.61546
     -1167.705        -909.898
  21741644.549    21741645.720    21741650.878   116262421.276 7  90426303.047 6
     -1689.542       -1314.087
  22637320.812    22637320.740    22637326.310   121009508.768 6  94118509.996 5
      1894.827        1473.753
  23535768.859    23535771.443    23535778.279   126032975.233 6  98025672.030 5
     -3805.912       -2960.149
  21572438.685    21572439.381    21572443.612   115478964.569 6  89817023.486 5
      4259.907        3313.258
 05  3 17  0 38 45.0000000  0 12G 5G 7G 9G18G22G26G28G29R 1R 2R 8R21
  23849000.780    23848999.4984   23849004.3234  125327339.352 6  97657700.27842
      3749.574        2921.749
  22128573.750    22128573.2844   22128577.0004  116286480.671 8  90612850.60545
       900.885         701.981
  21590994.773    21590994.7664   21590997.8234  113461463.219 7  88411554.93345
      2754.840        2146.629
  23354339.314    23354338.8484   23354341.1764  122727866.145 6  95632130.18743
       795.463         619.837
  24952699.455    24952700.4764   24952701.3734  131127364.541 6 102177155.80541
      2218.560        1728.738
  20373180.422    20373180.3804   20373183.2994  107061865.538 8  83424807.98347
      -597.199        -465.350
  22795701.375    22795700.4574   22795702.6284  119792270.181 7  93344662.77044
     -2413.754       -1880.855
  20823264.690    20823264.0464   20823266.9564  109427049.069 8  85267848.64746
     -1175.687        -916.118
  21746398.738    21746399.617    21746405.487   116287844.723 7  90446076.825 6
     -1700.462       -1322.580
  22632022.000    22632021.897    22632026.889   120981179.415 6  94096476.063 5
      1882.257        1463.980
  23546433.195    23546433.338    23546440.016   126090068.776 6  98070078.073 5
     -3806.782       -2960.818
  21560509.101    21560509.939    21560514.890   115415111.552 6  89767360.039 5
      4253.663        3308.407
 05  3 17  0 39  0.0000000  0 12G 5G 7G 9G18G22G26G28G29R 1R 2R 8R21
  23838302.259    23838300.7034   23838306.2324  125271118.116 6  97613891.54342
      3746.135        2919.062
  22126014.601    22126014.2134   22126018.1584  116273032.853 8  90602371.79145
       891.686         694.820
  21583136.485    21583136.6364   21583140.0154  113420169.878 7  88379378.30745
      2750.486        2143.232
  23352082.811    23352082.5684   23352084.1224  122716007.976 6  95622890.05943
       785.189         611.829
  24946378.431    24946378.5194   24946379.0154  131094143.111 6 102151268.98341
      2210.503        1722.461
  20374898.050    20374898.0984   20374901.0584  107070892.208 8  83431841.74747
      -606.817        -472.848
  22802595.310    22802594.9084   22802596.9294  119828500.967 7  93372894.53144
     -2417.442       -1883.723
  20826632.091    20826631.6974   20826634.5814  109444745.790 8  85281638.29047
     -1184.325        -922.852
  21751185.058    21751185.947    21751191.108   116313436.042 7  90465981.166 6
     -1712.109       -1331.638
  22626758.713    22626757.726    22626763.080   120953043.197 6  94074592.345 5
      1868.874        1453.565
  23557098.529    23557100.274    23557104.923   126147179.188 6  98114497.241 5
     -3808.352       -2962.050
  21548599.658    21548600.815    21548605.740   115351356.168 6  89717772.529 5
      4246.709        3302.991
 05  3 17  0 39 15.0000000  0 12G 5G 7G 9G18G22G26G28G29R 1R 2R 8R21
  23827612.155    23827611.3754   23827616.6754  125214944.762 6  97570120.08542
      3743.170        2916.749
  22123481.044    22123480.9824   22123484.5874  116259719.532 7  90591997.79145
       883.021         688.068
  21575291.157    21575290.6014   21575293.9164  113378938.138 7  88347249.69345
      2746.690        2140.280
  23349855.195    23349854.2704   23349856.5464  122704299.748 6  95613766.76643
       775.564         604.324
  24940079.723    24940078.8324   24940080.5394  131061039.444 6 102125473.92641
      2202.939        1716.589
  20376642.778    20376642.4984   20376645.3814  107080059.211 8  83438984.86247
      -615.821        -479.857
  22809499.656    22809499.1264   22809500.9844  119864782.960 7  93401166.21944
     -2420.546       -1886.130
  20830023.280    20830023.0874   20830026.0864  109462568.288 8  85295525.94846
     -1192.392        -929.136
  21756002.391    21756002.799    21756008.726   116339198.164 7  90486018.358 6
     -1723.144       -1340.227
  22621531.704    22621530.853    22621536.264   120925102.545 6  94052860.719 5
      1856.184        1443.702
  23567766.139    23567768.316    23567773.925   126204309.417 6  98158931.845 5
     -3809.379       -2962.850
  21536708.345    21536710.139    21536713.207   115287701.121 6  89668263.056 5
      4240.236        3297.966
 05  3 17  0 39 30.0000000  0 12G 5G 7G 9G18G22G26G28G29R 1R 2R 8R21
  23816932.044    23816931.5024   23816934.9634  125158817.427 6  97526384.51442
      3740.290        2914.521
  22120972.935    22120972.6044   22120976.1474  116246538.833 7  90581727.12645
       874.341         681.304
  21567456.206    21567455.8574   21567459.1574  113337766.139 7  88315167.62045
      2742.872        2137.301
  23347656.086    23347654.9914   23347656.6194  122692739.531 6  95604758.79243
       765.766         596.703
  24933802.429    24933800.8844   24933803.1644  131028051.265 6 102099768.84741
      2195.381        1710.705
  20378413.198    20378413.2094   20378416.2074  107089364.691 8  83446235.87947
      -624.911        -486.943
  22816413.388    22816413.0594   22816414.8274  119901113.908 7  93429476.03744
     -2423.608       -1888.528
  20833438.080    20833438.1704   20833441.1764  109480514.563 8  85309510.05546
     -1200.467        -935.426
  21760852.380    21760852.287    21760857.488   116365128.447 7  90506186.344 6
     -1734.204       -1348.828
  22616339.727    22616340.471    22616346.082   120897355.365 6  94031279.570 5
      1843.340        1433.706
  23578438.677    23578441.259    23578444.659   126261456.935 6  98203379.894 5
     -3810.333       -2963.588
  21524837.307    21524837.325    21524840.560   115224146.569 6  89618831.749 5
      4233.731        3292.900
 05  3 17  0 39 45.0000000  0 12G 5G 7G 9G18G22G26G28G29R 1R 2R 8R21
  23806259.246    23806258.4114   23806263.3594  125102734.224 6  97482683.33942
      3737.451        2912.285
  22118489.728    22118489.1564   22118492.8144  116233488.659 7  90571558.16545
       865.683         674.553
  21559631.994    21559631.6444   21559635.4274  113296651.829 7  88283130.50845
      2739.088        2134.353
  23345483.764    23345482.8954   23345485.1274  122681325.002 6  95595864.36043
       756.160         589.198
  24927546.185    24927547.2424   24927544.2134  130995176.728 6 102074152.32841
      2187.842        1704.801
  20380209.924    20380209.8514   20380212.8474  107098806.075 8  83453592.79347
      -633.917        -493.961
  22823335.425    22823334.7184   22823336.6704  119937491.372 7  93457822.10844
     -2426.671       -1890.916
  20836876.334    20836876.2884   20836879.4334  109498582.249 8  85323588.76546
     -1208.532        -941.715
  21765731.583    21765732.426    21765737.621   116391224.408 7  90526483.189 6
     -1745.203       -1357.384
  22611185.637    22611185.269    22611191.432   120869800.057 6  94009847.659 6
      1830.634        1423.824
  23589112.515    23589115.010    23589119.905   126318618.725 6  98247839.034 5
     -3811.221       -2964.277
  21512980.589    21512982.529    21512986.911   115160689.710 6  89569476.424 5
      4227.171        3287.794
 05  3 17  0 40  0.0000000  0 12G 5G 7G 9G18G22G26G28G29R 1R 2R 8R21
  23795596.333    23795595.8334   23795600.2524  125046700.812 6  97439020.93742
      3733.791        2909.452
  22116031.896    22116031.4264   22116035.3084  116220574.585 8  90561495.25545
       856.309         667.257
  21551820.876    21551820.5354   21551823.7934  113255600.885 7  88251142.76545
      2734.518        2130.798
  23343339.590    23343340.0054   23343341.9454  122670061.777 7  95587087.80243
       745.715         581.070
  24921312.046    24921314.1464   24921313.9974  130962421.880 5 102048629.05641
      2179.543        1698.365
  20382033.558    20382033.4094   20382036.5134  107108389.019 8  83461060.01347
      -643.694        -501.577
  22830267.967    22830267.6024   22830269.7924  119973920.688 7  93486208.57444
     -2430.456       -1893.855
  20840338.398    20840338.5114   20840341.6994  109516776.767 8  85337766.30846
     -1217.323        -948.562
  21770644.093    21770645.032    21770649.217   116417491.265 7  90546912.961 6
     -1756.882       -1366.465
  22606068.544    22606067.553    22606073.278   120842442.328 6  93988569.420 6
      1817.093        1413.295
  23599792.168    23599792.734    23599797.278   126375800.001 6  98292313.333 5
     -3812.814       -2965.515
  21501146.941    21501148.789    21501151.352   115097337.409 6  89520202.417 5
      4219.884        3282.133
 05  3 17  0 40 15.0000000  0 12G 5G 7G 9G18G22G26G28G29R 1R 2R 8R21
  23784943.031    23784941.2634   23784946.8414  124990712.906 6  97395394.01242
      3731.062        2907.345
  22113599.918    22113599.2274   22113602.7064  116207792.406 7  90551535.13145
       847.811         660.629
  21544020.281    21544019.6644   21544022.9134  113214609.018 7  88219201.06145
      2730.865        2127.941
  23341225.332    23341224.3924   23341226.6644  122658945.448 6  95578425.72543
       736.246         573.694
  24915102.290    24915101.8674   24915101.0054  130929782.506 5 102023195.79541
      2172.205        1692.620
  20383883.219    20383883.1434   20383886.1564  107118109.106 8  83468634.10547
      -652.536        -508.469
  22837209.518    22837208.8444   22837210.4124  120010397.178 7  93514631.81244
     -2433.279       -1896.065
  20843824.520    20843824.2414   20843827.1944  109535093.722 8  85352039.26046
     -1225.151        -954.662
  21775587.504    21775588.058    21775592.224   116443923.967 7  90567471.721 6
     -1767.639       -1374.836
  22600987.222    22600985.951    22600991.985   120815278.066 6  93967441.663 6
      1804.602        1403.576
  23610472.006    23610473.352    23610477.811   126432995.664 6  98336798.821 4
     -3813.463       -2966.029
  21489330.373    21489331.748    21489335.607   115034084.355 6  89471005.608 5
      4213.633        3277.273
 05  3 17  0 40 30.0000000  0 12G 5G 7G 9G18G22G26G28G29R 1R 2R 8R21
  23774296.883    23774295.7854   23774300.7764  124934769.176 6  97351801.50842
      3727.844        2904.789
  22111192.082    22111191.3734   22111195.5374  116195140.625 7  90541676.60845
       838.832         653.636
  21536230.784    21536230.3204   21536233.5064  113173674.881 7  88187304.33845
      2726.723        2124.716
  23339137.890    23339136.5884   23339138.8774  122647974.627 6  95569877.01843
       726.253         565.906
  24908912.847    24908912.3574   24908914.1614  130897257.046 5 101997851.26641
      2164.233        1686.406
  20385758.733    20385758.6174   20385761.6104  107127964.827 8  83476313.88047
      -661.853        -515.729
  22844159.297    22844158.6114   22844160.4894  120046919.078 7  93543090.43944
     -2436.593       -1898.651
  20847333.246    20847332.8744   20847335.8014  109553531.551 8  85366406.39246
     -1233.508        -961.172
  21780560.944    21780561.593    21780566.121   116470520.309 7  90588157.761 6
     -1778.839       -1383.543
  22595940.817    22595940.136    22595946.156   120788305.601 6  93946463.083 6
      1791.457        1393.352
  23621155.591    23621157.157    23621162.369   126490203.760 6  98381293.975 5
     -3814.573       -2966.894
  21477533.036    21477534.925    21477538.196   114970929.825 6  89421885.425 5
      4206.660        3271.844
 05  3 17  0 40 45.0000000  0 12G 5G 7G 9G18G22G26G28G29R 1R 2R 8R21
  23763659.684    23763658.6204   23763663.5284  124878871.480 6  97308244.87742
      3725.102        2902.675
  22108809.540    22108808.9704   22108812.9014  116182620.975 7  90531921.03845
       830.389         647.055
  21528452.961    21528452.1874   21528455.1614  113132800.240 7  88155453.96845
      2723.138        2121.930
  23337076.671    23337076.8884   23337078.2824  122637150.819 6  95561442.87843
       716.839         558.567
  24902745.275    24902746.5004   24902745.2784  130864847.508 5 101972597.09841
      2156.969        1680.757
  20387660.363    20387660.2274   20387663.3124  107137957.698 8  83484100.52647
      -670.591        -522.537
  22851118.061    22851117.2204   22851118.8584  120083487.792 7  93571585.53043
     -2439.311       -1900.766
  20850864.955    20850864.7404   20850867.7644  109572091.718 8  85380868.85946
     -1241.235        -967.197
  21785565.779    21785566.393    21785570.340   116497281.921 7  90608972.344 6
     -1789.399       -1391.757
  22590930.568    22590931.160    22590936.325   120761526.893 6  93925635.189 6
      1778.977        1383.649
  23631841.189    23631843.430    23631848.656   126547425.325 6  98425799.601 5
     -3815.102       -2967.303
  21465754.042    21465755.345    21465759.312   114907877.313 6  89372844.591 5
      4200.246        3266.863
 05  3 17  0 41  0.0000000  0 12G 5G 7G 9G18G22G26G28G29R 1R 2R 8R21
  23753030.996    23753029.8124   23753035.8804  124823017.313 6  97264722.16342
      3722.284        2900.468
  22106451.464    22106451.1274   22106455.0794  116170230.900 7  90522266.43845
       821.794         640.358
  21520685.145    21520684.8494   21520687.9204  113091982.572 7  88123647.99745
      2719.365        2118.990
  23335044.965    23335044.3784   23335047.1944  122626471.459 6  95553121.30143
       707.223         551.093
  24896599.855    24896600.5864   24896599.8804  130832551.231 5 101947431.14741
      2149.410        1674.854
  20389587.536    20389587.4414   20389590.3764  107148085.070 8  83491991.98047
      -679.548        -529.516
  22858085.479    22858084.3264   22858086.3984  120120100.563 6  93600114.94543
     -2442.215       -1903.009
  20854419.799    20854419.4044   20854422.3584  109590771.446 8  85395424.48146
     -1249.210        -973.407
  21790599.545    21790600.587    21790605.855   116524205.413 7  90629912.832 6
     -1800.238       -1400.180
  22585957.135    22585956.942    22585962.520   120734939.971 6  93904956.458 6
      1766.169        1373.690
  23642529.065    23642530.495    23642535.009   126604657.323 6  98470313.309 5
     -3815.712       -2967.774
  21453994.383    21453995.660    21453998.959   114844924.172 6  89323881.044 5
      4193.702        3261.771
 05  3 17  0 41 15.0000000  0 12G 5G 7G 9G18G22G26G28G29R 1R 2R 8R21
  23742411.022    23742409.6554   23742414.6144  124767207.080 6  97221233.69842
      3719.446        2898.275
  22104119.127    22104118.3554   22104122.3094  116157970.770 7  90512713.09945
       813.242         633.699
  21512928.588    21512928.4174   21512931.3414  113051222.181 7  88091886.65845
      2715.690        2116.124
  23333040.564    23333039.1734   23333041.4684  122615936.652 6  95544912.36043
       697.741         543.698
  24890476.046    24890475.8124   24890475.2944  130800368.660 6 101922353.83041
      2141.969        1669.050
  20391540.384    20391540.2554   20391543.1734  107158346.944 8  83499988.24447
      -688.394        -536.410
  22865060.899    22865060.1744   22865062.3974  120156757.224 7  93628678.57444
     -2445.017       -1905.208
  20857997.434    20857996.8364   20857999.7654  109609570.897 8  85410073.40246
     -1257.071        -979.533
  21795666.902    21795666.494    21795670.726   116551290.866 7  90650979.305 6
     -1810.834       -1408.422
  22581020.432    22581019.711    22581025.273   120708545.196 7  93884427.194 6
      1753.518        1363.850
  23653221.597    23653220.668    23653225.239   126661899.259 6  98514834.771 5
     -3816.231       -2968.184
  21442252.779    21442253.641    21442257.496   114782070.993 6  89274995.249 5
      4187.001        3256.554
 05  3 17  0 41 30.0000000  0 12G 5G 7G 9G18G22G26G28G29R 1R 2R 8R21
  23731798.310    23731798.2354   23731803.2614  124711442.790 6  97177781.00842
      3715.934        2895.523
  22101810.745    22101810.4114   22101814.2764  116145842.604 8  90503262.58545
       804.012         626.502
  21505183.787    21505183.3074   21505186.2944  113010521.195 7  88060171.61345
      2711.272        2112.682
  23331063.950    23331063.2544   23331065.1844  122605548.483 7  95536817.68143
       687.526         535.733
  24884373.725    24884371.9504   24884374.6404  130768301.968 5 101897366.79441
      2133.731        1662.644
  20393519.225    20393519.0764   20393521.8724  107168745.440 8  83508090.96647
      -697.911        -543.825
  22872045.455    22872044.8314   22872046.4144  120193459.589 7  93657277.81844
     -2448.467       -1907.896
  20861598.140    20861597.3354   20861600.3464  109628491.882 8  85424817.02146
     -1265.568        -986.156
  21800761.281    21800761.862    21800765.742   116578539.720 7  90672172.850 6
     -1822.160       -1417.234
  22576119.617    22576117.923    22576123.699   120682344.256 6  93864048.679 6
      1740.127        1353.431
  23663912.149    23663912.767    23663916.373   126719152.553 6  98559365.087 5
     -3817.449       -2969.120
  21430529.770    21430531.804    21430535.076   114719320.233 6  89226189.120 5
      4179.886        3251.021
 05  3 17  0 41 45.0000000  0 12G 5G 7G 9G18G22G26G28G29R 1R 2R 8R21
  23721196.980    23721196.0264   23721200.5244  124655726.830 6  97134366.00542
      3712.708        2893.001
  22099528.255    22099528.0544   22099531.9744  116133848.575 8  90493916.59745
       795.064         619.525
  21497450.293    21497449.7724   21497452.9554  112969881.806 7  88028504.56645
      2707.194        2109.502
  23329115.155    23329113.7084   23329116.4244  122595308.927 7  95528838.80043
       677.626         528.015
  24878292.515    24878293.1114   24878294.7994  130736353.751 6 101872472.07041
      2125.913        1656.540
  20395524.450    20395524.2294   20395527.1174  107179282.636 8  83516301.76647
      -707.148        -551.025
  22879038.112    22879037.4314   22879039.9304  120230209.447 7  93685914.06544
     -2451.615       -1910.343
  20865221.680    20865221.4594   20865224.2674  109647536.540 8  85439657.00846
     -1273.822        -992.589
  21805886.766    21805888.366    21805893.184   116605953.375 7  90693494.577 6
     -1833.131       -1425.769
  22571253.837    22571253.034    22571259.074   120656339.945 6  93843823.097 6
      1727.016        1343.231
  23674607.457    23674607.308    23674611.299   126776418.919 6  98603905.559 5
     -3818.238       -2969.733
  21418827.387    21418828.478    21418832.263   114656674.012 6  89177464.282 5
      4172.802        3245.516
 05  3 17  0 42  0.0000000  0 12G 5G 7G 9G18G22G26G28G29R 1R 2R 8R21
  23710602.413    23710601.9864   23710606.3874  124600056.019 6  97090986.16642
      3709.592        2890.581
  22097271.235    22097270.4754   22097274.2814  116121985.485 8  90484672.63045
       786.229         612.643
  21489728.431    21489727.7244   21489730.6394  112929300.993 7  87996883.15245
      2703.182        2106.373
  23327193.727    23327193.5544   23327195.7004  122585214.766 6  95520973.21943
       667.828         520.379
  24872235.235    24872235.5824   24872236.5994  130704520.469 6 101847666.88842
      2118.100        1650.467
  20397555.448    20397555.2244   20397557.9644  107189954.982 8  83524617.87147
      -716.263        -558.125
  22886039.567    22886039.3704   22886041.0144  120267003.434 7  93714584.68244
     -2454.676       -1912.729
  20868868.987    20868868.4524   20868871.2874  109666701.375 8  85454590.63546
     -1281.948        -998.919
  21811044.395    21811045.007    21811049.771   116633528.413 7  90714941.807 6
     -1843.964       -1434.190
  22566425.017    22566425.319    22566430.807   120630529.819 7  93823748.544 6
      1713.921        1333.047
  23685303.058    23685302.177    23685306.916   126833694.378 6  98648453.122 5
     -3818.897       -2970.242
  21407144.150    21407145.204    21407148.975   114594130.851 6  89128819.615 5
      4165.813        3240.070
 05  3 17  0 42 15.0000000  0 12G 5G 7G 9G18G22G26G28G29R 1R 2R 8R21
  23700017.416    23700018.2514   23700021.9124  124544433.389 6  97047643.85942
      3706.385        2888.102
  22095039.489    22095038.8444   22095042.3754  116110256.212 7  90475532.95145
       777.332         605.717
  21482017.255    21482017.0034   21482020.1864  112888781.610 7  87965309.61845
      2699.085        2103.183
  23325302.257    23325300.9554   23325303.3024  122575268.790 6  95513223.10843
       657.922         512.670
  24866201.128    24866200.8114   24866201.9284  130672805.773 6 101822954.11542
      2110.197        1644.316
  20399612.427    20399612.3354   20399615.0504  107200765.299 8  83533041.49447
      -725.436        -565.273
  22893050.295    22893049.4904   22893051.8344  120303843.973 6  93743291.59544
     -2457.771       -1915.149
  20872538.859    20872538.7684   20872541.6254  109685989.085 8  85469620.01346
     -1290.079       -1005.257
  21816230.681    21816232.019    21816237.382   116661267.050 7  90736516.299 6
     -1854.861       -1442.670
  22561636.055    22561633.856    22561639.018   120604915.969 6  93803826.669 6
      1700.969        1322.979
  23695997.185    23695999.650    23696005.254   126890981.392 6  98693009.642 5
     -3819.706       -2970.887
  21395480.913    21395481.065    21395484.586   114531693.282 6  89080257.071 5
      4158.796        3234.615
 05  3 17  0 42 30.0000000  0 12G 5G 7G 9G18G22G26G28G29R 1R 2R 8R21
  23689440.915    23689440.9444   23689444.9934  124488852.571 6  97004334.14342
      3703.800        2886.081
  22092831.431    22092830.9894   22092834.7654  116098654.404 8  90466492.58345
       768.986         599.210
  21474317.171    21474316.8324   21474320.2224  112848317.309 7  87933778.99745
      2695.559        2100.436
  23323435.095    23323435.5214   23323437.3444  122565464.527 6  95505583.42243
       648.668         505.451
  24860187.479    24860187.2894   24860188.4024  130641202.820 6 101798328.44242
      2102.869        1638.606
  20401694.384    20401694.5354   20401697.2424  107211707.128 8  83541567.59147
      -734.037        -571.975
  22900067.987    22900067.7664   22900069.9004  120340724.466 7  93772029.63244
     -2460.230       -1917.072
  20876231.244    20876231.2514   20876234.0324  109705393.176 8  85484740.08346
     -1297.707       -1011.201
  21821447.732    21821448.723    21821454.045   116689162.124 7  90758212.454 6
     -1865.049       -1450.595
  22556878.445    22556877.400    22556882.996   120579491.724 6  93784052.259 6
      1688.389        1313.189
  23706697.423    23706698.849    23706703.877   126948272.654 6  98737569.482 4
     -3819.747       -2970.911
  21383835.260    21383836.450    21383839.939   114469355.484 6  89031772.123 5
      4152.285        3229.554
 05  3 17  0 42 45.0000000  0 12G 5G 7G 9G18G22G26G28G29R 1R 2R 8R21
  23678875.372    23678874.6614   23678878.1994  124433323.621 6  96961064.82742
      3700.642        2883.618
  22090650.023    22090649.1214   22090653.1714  116087189.878 7  90457559.20245
       760.158         592.329
  21466629.047    21466629.0384   21466632.3894  112807918.026 7  87902299.04045
      2691.553        2097.316
  23321598.581    23321598.4144   23321600.5274  122555811.814 6  95498061.82743
       638.899         497.845
  24854196.805    24854196.5334   24854197.0264  130609721.973 6 101773797.91142
      2095.069        1632.543
  20403803.669    20403803.4774   20403806.2794  107222790.194 8  83550203.74347
      -743.121        -579.054
  22907095.553    22907094.9384   22907097.0924  120377654.365 6  93800806.15943
     -2463.211       -1919.383
  20879947.616    20879947.6934   20879950.5274  109724923.347 8  85499958.39346
     -1305.788       -1017.494
  21826695.678    21826696.048    21826701.589   116717223.470 7  90780037.934 6
     -1875.842       -1458.984
  22552159.718    22552158.907    22552164.732   120554268.255 6  93764433.989 6
      1675.349        1303.054
  23717398.190    23717399.399    23717406.088   127005577.645 6  98782139.986 5
     -3820.324       -2971.361
  21372210.049    21372210.935    21372214.868   114407128.423 6  88983373.311 5
      4145.269        3224.104
 05  3 17  0 43  0.0000000  0 12G 5G 7G 9G18G22G26G28G29R 1R 2R 8R21
  23668318.311    23668316.4814   23668321.2304  124377844.173 6  96917834.09642
      3696.534        2880.414
  22088494.213    22088493.2824   22088497.0924  116075860.298 8  90448730.95145
       750.364         584.697
  21458953.119    21458953.1054   21458956.2984  112767581.426 7  87870867.92745
      2686.588        2093.442
  23319790.599    23319789.5464   23319791.7094  122546308.183 6  95490656.37343
       628.189         489.516
  24848229.318    24848228.8164   24848230.0284  130578360.848 6 101749360.66142
      2086.326        1625.709
  20405939.139    20405938.8584   20405941.6784  107234011.885 8  83558947.91147
      -753.167        -586.882
  22914132.225    22914131.5464   22914133.9774  120414631.056 6  93829619.16243
     -2467.108       -1922.410
  20883687.833    20883687.5714   20883690.5904  109744577.120 8  85515273.01446
     -1314.797       -1024.518
  21831973.562    21831974.013    21831980.051   116745448.012 7  90801990.339 6
     -1887.508       -1468.064
  22547478.392    22547477.448    22547483.127   120529243.100 6  93744969.987 6
      1661.257        1292.092
  23728101.785    23728102.132    23728109.152   127062893.436 6  98826718.874 5
     -3821.823       -2972.521
  21360605.652    21360607.310    21360610.563   114345009.152 6  88935058.327 5
      4137.167        3217.794
 05  3 17  0 43 15.0000000  0 12G 5G 7G 9G18G22G26G28G29R 1R 2R 8R21
  23657771.080    23657769.6364   23657773.3744  124322418.010 6  96874644.89442
      3694.153        2878.569
  22086363.948    22086363.8554   22086367.4584  116064669.315 8  90440010.71645
       742.278         578.401
  21451290.694    21451290.1584   21451293.3034  112727311.255 7  87839488.58645
      2683.291        2090.873
  23318010.256    23318010.0784   23318013.3794  122536957.207 6  95483369.91843
       619.171         482.453
  24842283.900    24842284.3834   24842284.6544  130547122.858 6 101725019.35943
      2079.245        1620.193
  20408101.624    20408101.3744   20408104.1894  107245375.876 8  83567802.96747
      -761.498        -593.377
  22921177.613    22921177.3884   22921180.0284  120451657.855 7  93858471.21143
     -2469.299       -1924.131
  20887451.896    20887451.7584   20887454.7034  109764357.839 8  85530686.55946
     -1322.118       -1030.223
  21837282.948    21837283.577    21837288.771   116773838.590 7  90824071.888 6
     -1897.391       -1475.754
  22542836.142    22542833.367    22542839.188   120504419.326 6  93725662.616 6
      1649.073        1282.609
  23738809.725    23738809.492    23738815.781   127120223.080 6  98871308.554 5
     -3821.556       -2972.323
  21349022.343    21349023.359    21349027.444   114283002.841 6  88886831.217 5
      4130.854        3212.879
 05  3 17  0 43 30.0000000  0 12G 5G 7G 9G18G22G26G28G29R 1R 2R 8R21
  23647231.236    23647229.8044   23647235.1044  124267035.289 6  96831489.55042
      3690.880        2876.001
  22084259.326    22084258.7944   22084262.2534  116053607.002 8  90431390.73845
       733.398         571.482
  21443638.123    21443637.6854   21443640.7964  112687097.551 7  87808153.23945
      2679.248        2087.723
  23316257.943    23316258.8094   23316260.6684  122527748.887 6  95476194.58943
       609.331         474.809
  24836361.339    24836361.2184   24836362.5724  130515998.558 6 101700766.66143
      2071.374        1614.056
  20410289.144    20410289.0174   20410291.7974  107256871.952 8  83576760.94147
      -770.586        -600.450
  22928231.775    22928231.1724   22928233.4464  120488724.495 6  93887354.31143
     -2472.241       -1926.421
  20891238.182    20891238.1034   20891241.1884  109784255.270 8  85546191.04646
     -1330.176       -1036.497
  21842622.960    21842622.508    21842626.710   116802384.943 7  90846274.599 6
     -1908.053       -1484.040
  22538226.794    22538225.259    22538231.104   120479786.829 6  93706504.010 6
      1636.028        1272.469
  23749517.493    23749517.832    23749521.909   127177556.055 6  98915900.819 5
     -3822.092       -2972.731
  21337457.105    21337459.081    21337463.205   114221099.014 6  88838683.805 5
      4123.735        3207.344
 05  3 17  0 43 45.0000000  0 12G 5G 7G 9G18G22G26G28G29R 1R 2R 8R21
  23636699.815    23636698.1814   23636703.5634  124211694.765 6  96788367.08842
      3687.487        2873.363
  22082178.145    22082177.7544   22082181.4614  116042672.062 8  90422870.01445
       724.263         564.359
  21435996.323    21435995.8894   21435998.9604  112646939.021 7  87776860.88545
      2674.902        2084.338
  23314533.384    23314533.2024   23314534.9174  122518681.682 6  95469129.23943
       599.247         466.946
  24830459.545    24830460.2464   24830460.8484  130484986.964 6 101676601.78043
      2063.266        1607.736
  20412501.533    20412501.5194   20412504.2734  107268498.656 8  83585820.71247
      -779.963        -607.765
  22935292.760    22935291.7794   22935294.4074  120525829.376 7  93916267.18544
     -2475.408       -1928.894
  20895046.586    20895046.3044   20895049.4884  109804268.190 8  85561785.52846
     -1338.523       -1043.007
  21847989.499    21847989.283    21847994.187   116831084.937 7  90868596.801 6
     -1918.964       -1492.530
  22533654.282    22533653.669    22533659.180   120455345.309 7  93687493.940 6
      1622.576        1262.002
  23760222.962    23760223.421    23760227.952   127234890.181 6  98960493.978 5
     -3822.790       -2973.282
  21325913.426    21325914.128    21325918.219   114159296.861 6  88790615.459 5
      4116.151        3201.454
 05  3 17  0 44  0.0000000  0 12G 5G 7G 9G18G22G26G28G29R 1R 2R 8R21
  23626177.640    23626178.2274   23626183.5604  124156406.321 6  96745285.17842
      3684.192        2870.798
  22080124.278    22080123.3704   22080126.8704  116031874.170 7  90414456.07845
       715.240         557.325
  21428366.729    21428366.3664   21428369.3764  112606845.618 7  87745619.27845
      2670.681        2081.048
  23312836.012    23312836.4054   23312838.3084  122509765.331 7  95462181.42843
       589.386         459.257
  24824582.530    24824582.1914   24824583.3764  130454097.473 6 101652532.04143
      2055.185        1601.445
  20414740.727    20414740.7634   20414743.4114  107280265.671 8  83594989.80847
      -789.191        -614.956
  22942362.113    22942361.5524   22942364.5374  120562981.963 6  93945217.23944
     -2478.482       -1931.284
  20898879.019    20898878.4954   20898881.6714  109824406.008 8  85577477.32646
     -1346.702       -1049.379
  21853385.129    21853386.524    21853391.479   116859948.209 7  90891046.005 6
     -1929.684       -1500.866
  22529118.849    22529117.931    22529124.253   120431104.861 6  93668640.254 6
      1609.288        1251.667
  23770930.394    23770931.500    23770936.234   127292234.689 6  99005095.210 5
     -3823.362       -2973.719
  21314388.765    21314390.048    21314394.274   114097607.748 6  88742635.055 5
      4108.881        3195.797
 05  3 17  0 44 15.0000000  0 12G 5G 7G 9G18G22G26G28G29R 1R 2R 8R21
  23615666.869    23615666.7854   23615670.5894  124101168.341 6  96702242.61543
      3681.279        2868.535
  22078094.863    22078094.2554   22078097.7084  116021211.635 7  90406147.61645
       706.750         550.717
  21420749.314    21420748.7514   21420752.1184  112566815.637 7  87714427.09445
      2666.967        2078.159
  23311168.513    23311167.9284   23311170.0384  122500998.049 6  95455349.77543
       579.943         451.898
  24818727.144    24818727.1974   24818727.3794  130423328.825 6 101628556.47743
      2047.665        1595.573
  20417006.666    20417006.2324   20417008.9104  107292171.160 8  83604266.81247
      -797.884        -621.727
  22949441.082    22949440.4704   22949443.1654  120600180.184 7  93974202.85844
     -2480.967       -1933.216
  20902734.874    20902734.0654   20902737.1284  109844666.940 8  85593265.06446
     -1354.383       -1055.364
  21858813.084    21858814.311    21858819.136   116888972.303 7  90913620.302 6
     -1939.864       -1508.783
  22524622.944    22524621.096    22524626.651   120407063.479 6  93649941.406 6
      1596.569        1241.778
  23781640.653    23781642.936    23781645.086   127349587.615 6  99049703.015 4
     -3823.366       -2973.723
  21302884.842    21302886.730    21302890.775   114036029.843 6  88694741.138 5
      4101.910        3190.377
 05  3 17  0 44 30.0000000  0 12G 5G 7G 9G18G22G26G28G29R 1R 2R 8R21
  23605165.331    23605164.7814   23605168.6494  124045978.815 6  96659237.82042
      3677.279        2865.411
  22076091.666    22076090.6524   22076094.0344  116010682.500 7  90397943.10645
       697.097         543.196
  21413143.454    21413142.9684   21413146.0674  112526847.146 7  87683282.82045
      2662.118        2074.380
  23309527.937    23309527.3344   23309529.5484  122492377.593 6  95448632.52143
       569.394         443.689
  24812893.993    24812894.2634   24812895.1994  130392679.105 6 101604673.57543
      2038.939        1588.774
  20419297.769    20419297.6944   20419300.4704  107304212.905 8  83613649.98447
      -807.727        -629.396
  22956528.123    22956527.3074   22956530.3454  120637421.796 7  94003222.26944
     -2484.612       -1936.069
  20906612.981    20906612.6134   20906615.6084  109865048.713 8  85609146.95646
     -1363.211       -1062.240
  21864272.019    21864271.392    21864276.084   116918154.681 7  90936317.705 6
     -1951.182       -1517.587
  22520159.872    22520160.739    22520166.282   120383219.475 6  93631396.066 6
      1582.618        1230.924
  23792352.034    23792353.454    23792359.535   127406945.939 6  99094315.000 5
     -3824.491       -2974.598
  21291402.551    21291403.733    21291408.089   113974561.223 6  88646932.226 5
      4093.830        3184.091
 05  3 17  0 44 45.0000000  0 12G 5G 7G 9G18G22G26G28G29R 1R 2R 8R21
  23594671.775    23594671.5154   23594674.6444  123990833.024 6  96616267.08043
      3674.986        2863.628
  22074111.686    22074111.2524   22074114.7224  116000281.892 7  90389838.74245
       689.169         537.016
  21405548.090    21405547.9844   21405551.1594  112486935.388 7  87652182.75045
      2658.976        2071.928
  23307914.472    23307913.8394   23307916.3714  122483899.167 6  95442025.96443
       560.586         436.824
  24807083.762    24807083.7244   24807085.3354  130362143.601 6 101580879.68943
      2031.961        1583.340
  20421614.418    20421614.2634   20421616.8884  107316386.039 8  83623135.53847
      -815.836        -635.717
  22963622.699    22963621.8304   22963625.2664  120674701.590 7  94032271.46144
     -2486.517       -1937.559
  20910513.388    20910513.2794   20910516.1914  109885546.371 8  85625119.15546
     -1370.318       -1067.778
  21869757.114    21869757.576    21869762.008   116947489.999 7  90959134.053 6
     -1960.716       -1525.001
  22515737.130    22515736.182    22515741.934   120359567.737 7  93613000.282 6
      1570.494        1221.494
  23803062.529    23803063.427    23803070.101   127464304.278 6  99138927.016 5
     -3823.847       -2974.113
  21279939.684    21279940.392    21279944.262   113913197.753 6  88599205.092 5
      4087.444        3179.118
 05  3 17  0 45  0.0000000  0 12G 5G 7G 9G18G22G26G28G29R 1R 2R 8R21
  23584186.948    23584185.8014   23584190.5204  123935732.461 6  96573331.58243
      3671.606        2860.995
  22072157.209    22072156.6324   22072160.2814  115990011.132 7  90381835.56045
       680.169         530.000
  21397965.132    21397964.2104   21397967.3464  112447081.679 7  87621127.91745
      2654.746        2068.632
  23306328.716    23306327.4674   23306330.2534  122475564.037 6  95435531.03843
       550.680         429.111
  24801295.499    24801294.8264   24801296.9594  130331723.476 6 101557175.68043
      2023.915        1577.076
  20423956.239    20423955.9994   20423958.6884  107328691.702 8  83632724.36247
      -825.004        -642.862
  22970723.738    22970722.8624   22970724.7734  120712020.706 7  94061351.29343
     -2489.452       -1939.831
  20914436.207    20914435.9904   20914439.0924  109906160.988 8  85641182.48646
     -1378.430       -1074.103
  21875271.494    21875271.947    21875276.033   116976978.776 7  90982069.759 6
     -1971.251       -1533.193
  22511346.853    22511347.028    22511353.121   120336109.313 6  93594754.839 6
      1557.215        1211.167
  23813774.536    23813774.572    23813781.741   127521663.294 6  99183539.542 5
     -3824.247       -2974.406
  21268496.112    21268496.952    21268502.177   113851941.529 6  88551561.366 5
      4080.001        3173.332
 05  3 17  0 45 15.0000000  0 12G 5G 7G 9G18G22G26G28G29R 1R 2R 8R21
  23573711.068    23573710.1044   23573713.9064  123880681.145 6  96530434.46643
      3668.523        2858.581
  22070228.213    22070227.6894   22070231.3174  115979874.227 7  90373936.67645
       671.419         523.183
  21390392.975    21390392.0624   21390395.1124  112407290.109 7  87590121.50645
      2650.823        2065.575
  23304770.293    23304770.1894   23304772.6784  122467376.151 6  95429150.86843
       541.076         421.617
  24795529.174    24795528.9324   24795529.7894  130301423.190 6 101533565.08043
      2016.126        1571.011
  20426323.391    20426323.5814   20426326.3194  107341133.693 8  83642419.41547
      -833.902        -649.791
  22977833.914    22977833.2394   22977834.9844  120749382.778 7  94090464.59643
     -2492.123       -1941.929
  20918381.975    20918381.9124   20918384.9174  109926896.360 8  85657339.91646
     -1386.278       -1080.218
  21880816.027    21880816.255    21880820.380   117006624.815 7  91005127.787 6
     -1981.507       -1541.176
  22506996.928    22506996.765    22507002.086   120312849.251 7  93576663.668 6
      1544.155        1201.008
  23824487.087    23824487.416    23824494.871   127579026.551 6  99228155.368 5
     -3824.168       -2974.362
  21257072.926    21257074.296    21257078.557   113790796.013 6  88504003.753 5
      4072.666        3167.626
 05  3 17  0 45 30.0000000  0 12G 5G 7G 9G18G22G26G28G29R 1R 2R 8R21
  23563244.268    23563244.0364   23563246.7054  123825678.769 6  96487575.48443
      3665.700        2856.386
  22068325.182    22068324.1834   22068327.4634  115969870.700 7  90366141.73045
       662.965         516.590
  21382832.328    21382831.6364   21382834.6694  112367560.268 7  87559163.19945
      2647.137        2062.701
  23303239.858    23303239.4134   23303242.0004  122459334.798 6  95422884.88243
       531.708         414.320
  24789786.448    24789785.7444   24789785.6074  130271242.322 7 101510047.51543
      2008.585        1565.125
  20428716.962    20428716.9504   20428719.7944  107353711.441 8  83652220.25447
      -842.524        -656.514
  22984950.992    22984951.1064   22984952.5594  120786787.023 7  94119610.76743
     -2494.490       -1943.769
  20922350.433    20922350.6464   20922353.6134  109947751.914 8  85673590.99146
     -1393.891       -1086.146
  21886388.963    21886389.495    21886393.687   117036426.954 7  91028307.227 6
     -1991.463       -1548.919
  22502683.023    22502682.708    22502688.071   120289786.916 7  93558726.306 6
      1531.336        1191.041
  23835197.949    23835199.681    23835206.643   127636393.021 6  99272773.663 5
     -3824.024       -2974.221
  21245671.438    21245673.017    21245677.715   113729762.660 6  88456533.373 5
      4065.762        3162.257
 05  3 17  0 45 45.0000000  0 12G 5G 7G 9G18G22G26G28G29R 1R 2R 8R21
  23552786.827    23552786.6544   23552789.7914  123770727.720 6  96444756.50043
      3661.563        2853.177
  22066446.991    22066446.3584   22066449.9244  115960002.932 8  90358452.56945
       653.232         509.009
  21375284.369    21375283.5664   21375286.6254  112327894.667 7  87528254.94545
      2642.134        2058.803
  23301738.052    23301737.9064   23301739.3294  122451442.362 6  95416734.92443
       521.101         406.058
  24784065.957    24784066.5594   24784067.1274  130241183.245 6 101486624.84943
      1999.737        1558.231
  20431136.864    20431136.6844   20431139.4974  107366427.122 8  83662128.57247
      -852.394        -664.203
  22992076.924    22992076.7664   22992079.5904  120824235.468 7  94148791.37243
     -2498.091       -1946.567
  20926342.848    20926342.6304   20926345.5554  109968729.775 8  85689937.37346
     -1402.655       -1092.979
  21891991.195    21891992.227    21891996.286   117066387.283 7  91051609.704 6
     -2002.709       -1557.667
  22498405.622    22498405.390    22498410.933   120266924.836 7  93540944.696 6
      1517.378        1180.184
  23845912.910    23845913.228    23845919.869   127693764.452 6  99317395.831 5
     -3824.999       -2974.991
  21234291.288    21234293.005    21234296.962   113668843.435 6  88409151.763 5
      4057.381        3155.737
 05  3 17  0 46  0.0000000  0 12G 5G 7G 9G18G22G26G28G29R 1R 2R 8R21
  23542340.523    23542339.5594   23542343.9224  123715831.221 6  96401980.03143
      3657.850        2850.273
  22064595.475    22064594.8414   22064598.4904  115950273.951 8  90350871.54845
       643.920         501.760
  21367748.568    21367748.1064   21367751.3774  112288296.361 8  87497399.12345
      2637.572        2055.250
  23300265.800    23300265.2314   23300266.8064  122443701.721 7  95410703.23443
       510.946         398.154
  24778369.833    24778369.1534   24778370.6614  130211249.083 7 101463299.52543
      1991.382        1551.733
  20433583.037    20433583.0934   20433586.0334  107379283.671 8  83672146.65247
      -861.833        -671.559
  22999212.400    22999212.0654   22999214.8134  120861730.943 7  94178008.60343
     -2501.315       -1949.087
  20930358.880    20930358.5534   20930361.3514  109989832.863 8  85706381.32846
     -1411.100       -1099.558
  21897624.602    21897624.739    21897629.225   117096508.059 7  91075036.960 6
     -2013.432       -1566.001
  22494166.255    22494166.139    22494171.954   120244266.154 7  93523321.267 6
      1503.721        1169.562
  23856628.087    23856628.570    23856635.662   127751143.518 6  99362023.942 5
     -3825.624       -2975.493
  21222933.045    21222934.257    21222938.650   113608041.240 6  88361861.167 5
      4049.564        3149.663
 05  3 17  0 46 15.0000000  0 12G 5G 7G 9G18G22G26G28G29R 1R 2R 8R21
  23531902.766    23531902.7914   23531905.7434  123660983.337 6  96359241.43043
      3655.188        2848.212
  22062769.675    22062768.7604   22062772.5224  115940677.753 7  90343393.99245
       635.618         495.290
  21360224.594    21360224.4464   21360227.6834  112248759.342 7  87466591.06945
      2634.067        2052.520
  23298820.338    23298819.2664   23298821.6214  122436106.815 6  95404785.11443
       501.789         391.002
  24772695.614    24772696.6124   24772697.3484  130181434.055 6 101440067.04443
      1983.954        1545.930
  20436055.091    20436055.1874   20436058.2434  107392274.969 8  83682269.73847
      -870.263        -678.124
  23006355.766    23006355.5454   23006357.1294  120899267.091 7  94207257.55043
     -2503.445       -1950.738
  20934397.424    20934396.9034   20934399.7694  110011055.033 8  85722918.07946
     -1418.445       -1105.280
  21903284.812    21903285.475    21903291.020   117126782.866 7  91098584.020 6
     -2023.124       -1573.538
  22489965.804    22489965.041    22489970.068   120221804.929 7  93505851.428 6
      1491.150        1159.783
  23867344.263    23867343.654    23867350.853   127808523.213 6  99406652.555 5
     -3824.992       -2974.990
  21211595.507    21211596.823    21211601.052   113547351.198 6  88314657.813 5
      4042.547        3144.207
 05  3 17  0 46 30.0000000  0 12G 5G 7G 9G18G22G26G28G29R 1R 2R 8R21
  23521474.965    23521474.7834   23521477.7304  123606183.019 6  96316539.89943
      3651.850        2845.591
  22060968.653    22060967.8474   22060971.3154  115931213.247 8  90336019.06845
       626.612         488.270
  21352712.578    21352712.4824   21352715.6274  112209282.665 8  87435830.02645
      2629.792        2049.187
  23297402.372    23297401.3674   23297403.6084  122428656.586 6  95398979.73643
       491.897         383.299
  24767044.712    24767044.5204   24767045.4104  130151737.194 6 101416926.61743
      1975.865        1539.637
  20438552.933    20438552.7294   20438555.8534  107405399.906 8  83692496.95847
      -879.409        -685.254
  23013506.243    23013505.3684   23013507.6744  120936842.579 7  94236537.13843
     -2506.275       -1952.938
  20938458.002    20938457.6754   20938460.6354  110032394.952 8  85739546.58546
     -1426.536       -1111.586
  21908974.830    21908975.495    21908981.224   117157209.864 7  91122249.446 6
     -2033.513       -1581.618
  22485802.100    22485800.095    22485805.007   120199539.469 7  93488533.865 6
      1477.821        1149.415
  23878055.872    23878058.150    23878065.079   127865902.108 6  99451280.511 5
     -3825.174       -2975.126
  21200279.721    21200281.044    21200285.249   113486773.826 6  88267542.089 5
      4034.812        3138.180
 05  3 17  0 46 45.0000000  0 12G 5G 7G 9G18G22G26G28G29R 1R 2R 8R21
  23511057.128    23511055.5974   23511059.8514  123551433.177 6  96273877.69643
      3648.707        2843.131
  22059192.567    22059192.3584   22059195.8614  115921883.144 7  90328748.86245
       617.923         481.496
  21345212.911    21345212.2724   21345215.6474  112169869.220 7  87405118.25145
      2625.820        2046.094
  23296012.849    23296011.1834   23296014.2124  122421353.512 6  95393289.04243
       482.372         375.869
  24761416.450    24761417.0374   24761417.2194  130122161.369 6 101393880.53543
      1968.081        1533.560
  20441076.436    20441076.2454   20441079.3224  107418660.882 8  83702830.17947
      -888.208        -692.109
  23020664.295    23020664.0544   23020666.1804  120974459.893 7  94265849.33143
     -2508.868       -1954.976
  20942541.536    20942541.3074   20942544.4624  110053855.269 8  85756268.90246
     -1434.324       -1117.656
  21914694.417    21914694.942    21914700.145   117187791.282 7  91146034.980 6
     -2043.517       -1589.403
  22481671.091    22481671.490    22481677.287   120177473.449 7  93471371.400 6
      1464.840        1139.325
  23888773.246    23888774.736    23888781.430   127923282.310 6  99495909.496 5
     -3824.962       -2974.974
  21188984.605    21188985.252    21188989.903   113426311.631 6  88220515.952 5
      4027.421        3132.438
 05  3 17  0 47  0.0000000  0 12G 5G 7G 9G18G22G26G28G29R 1R 2R 8R21
  23500646.400    23500645.4694   23500649.6324  123496728.561 6  96231250.72343
      3645.230        2840.426
  22057442.197    22057441.4924   22057444.9544  115912682.248 8  90321579.33545
       608.868         474.442
  21337723.962    21337723.1834   21337726.2834  112130513.703 8  87374451.61445
      2621.532        2042.753
  23294650.009    23294649.1414   23294651.3714  122414192.187 7  95387708.77743
       472.465         368.159
  24755810.662    24755810.1614   24755810.3794  130092701.717 6 101370924.94643
      1959.848        1527.154
  20443624.812    20443624.6264   20443627.7174  107432052.519 8  83713265.21547
      -897.354        -699.237
  23027829.660    23027829.1334   23027831.3864  121012113.447 7  94295189.74943
     -2511.677       -1957.158
  20946646.978    20946646.9834   20946650.1054  110075430.385 8  85773080.67346
     -1442.406       -1123.953
  21920440.208    21920441.234    21920446.725   117218521.167 7  91169935.979 6
     -2053.854       -1597.436
  22477581.235    22477579.354    22477585.259   120155600.957 7  93454359.446 6
      1451.512        1128.953
  23899487.616    23899488.922    23899494.853   127980657.623 6  99540534.700 5
     -3825.101       -2975.083
  21177711.089    21177711.727    21177715.631   113365959.050 6  88173575.050 5
      4019.623        3126.376
 05  3 17  0 47 15.0000000  0 12G 5G 7G 9G18G22G26G28G29R 1R 2R 8R21
  23490246.264    23490245.2884   23490249.6154  123442072.149 6  96188661.31643
      3641.715        2837.706
  22055716.463    22055715.6364   22055718.9434  115903613.236 8  90314512.58745
       599.773         467.356
  21330246.067    21330245.8884   21330248.7894  112091218.937 7  87343832.31945
      2617.214        2039.385
  23293314.628    23293313.5044   23293315.7444  122407175.374 6  95382241.12343
       462.569         360.443
  24750227.686    24750227.2434   24750228.5444  130063361.039 6 101348062.08243
      1951.666        1520.784
  20446198.534    20446198.3594   20446201.4904  107445577.536 8  83723804.18747
      -906.525        -706.384
  23035002.002    23035001.0874   23035004.1444  121049805.672 6  94324560.31643
     -2514.514       -1959.364
  20950774.716    20950774.7434   20950777.9774  110097123.002 8  85789984.00946
     -1450.508       -1130.264
  21926215.508    21926216.391    21926221.888   117249402.183 7  91193954.543 6
     -2064.211       -1605.498
  22473526.543    22473525.869    22473530.871   120133925.887 7  93437501.061 6
      1437.968        1118.417
  23910198.439    23910202.053    23910208.890   128038030.731 5  99585158.197 4
     -3825.229       -2975.186
  21166456.614    21166458.508    21166461.937   113305719.001 6  88126721.697 5
      4011.728        3120.234
 05  3 17  0 47 30.0000000  0 12G 5G 7G 9G18G22G26G28G29R 1R 2R 8R21
  23479855.133    23479853.7744   23479859.2834  123387470.216 6  96146114.38343
      3638.423        2835.129
  22054016.893    22054016.3624   22054019.8434  115894682.402 8  90307553.49745
       590.930         460.464
  21322781.144    21322781.1114   21322784.0714  112051991.259 8  87313265.29645
      2613.095        2036.178
  23292007.331    23292007.2174   23292009.2914  122400309.137 6  95376890.82743
       452.862         352.881
  24744667.842    24744667.2364   24744668.8174  130034145.290 6 101325296.58842
      1943.712        1514.583
  20448798.670    20448798.5374   20448801.7674  107459241.858 8  83734451.70847
      -915.461        -713.347
  23042182.768    23042182.6664   23042184.7944  121087542.583 7  94353965.70243
     -2517.112       -1961.374
  20954926.703    20954926.3684   20954929.4674  110118939.125 8  85806983.58246
     -1458.405       -1136.419
  21932020.432    21932020.285    21932026.026   117280439.726 7  91218094.836 6
     -2074.197       -1613.263
  22469508.545    22469508.782    22469514.213   120112454.438 7  93420801.057 6
      1424.823        1108.197
  23920915.292    23920917.474    23920924.187   128095407.214 5  99629784.284 5
     -3825.096       -2975.076
  21155225.806    21155227.428    21155231.799   113245598.970 6  88079961.682 5
      4004.189        3114.366
 05  3 17  0 47 45.0000000  0 12G 5G 7G 9G18G22G26G28G29R 1R 2R 8R21
  23469473.230    23469473.5074   23469478.3264  123332919.656 6  96103607.47043
      3635.406        2832.781
  22052343.106    22052342.5074   22052345.9614  115885886.455 7  90300699.52345
       582.363         453.786
  21315328.591    21315328.1884   21315331.6204  112012827.523 8  87282748.09945
      2609.234        2033.169
  23290729.802    23290728.0444   23290731.0814  122393590.259 6  95371655.33043
       443.431         345.520
  24739131.062    24739131.2794   24739131.3194  130005051.274 6 101302625.93042
      1935.999        1508.549
  20451424.558    20451424.7764   20451427.8714  107473042.275 8  83745205.27547
      -924.122        -720.095
  23049372.106    23049371.0814   23049373.6474  121125320.625 7  94383403.11843
     -2519.459       -1963.239
  20959101.128    20959100.7174   20959103.9014  110140875.313 8  85824076.70946
     -1465.968       -1142.312
  21937852.988    21937853.756    21937858.761   117311629.935 7  91242353.881 6
     -2083.979       -1620.882
  22465527.407    22465528.537    22465535.175   120091183.012 6  93404256.613 6
      1411.851        1098.105
  23931630.467    23931631.691    23931638.239   128152783.153 6  99674409.966 5
     -3824.502       -2974.610
  21144016.600    21144018.208    21144022.204   113185596.308 6  88033292.952 5
      3996.674        3108.519
 05  3 17  0 48  0.0000000  0 12G 5G 7G 9G18G22G26G28G29R 1R 2R 8R21
  23459101.759    23459102.1064   23459107.3684  123278417.818 6  96061138.49643
      3631.737        2829.937
  22050694.425    22050693.7674   22050697.1164  115877222.671 8  90293948.52745
       573.079         446.559
  21307887.952    21307887.4954   21307890.5484  111973725.090 8  87252278.67346
      2604.680        2029.623
  23289478.568    23289477.5124   23289479.7624  122387015.848 7  95366532.38643
       433.396         337.717
  24733617.539    24733617.7134   24733618.7684  129976077.111 6 101280048.65442
      1927.535        1501.984
  20454076.449    20454076.2954   20454079.2764  107486975.769 8  83756062.53347
      -933.441        -727.353
  23056568.566    23056567.8504   23056570.2144  121163136.769 6  94412870.23143
     -2522.436       -1965.534
  20963297.750    20963297.2904   20963300.3884  110162928.802 8  85841261.23846
     -1474.242       -1148.756
  21943714.016    21943714.570    21943719.118   117342969.762 7  91266729.287 6
     -2094.405       -1628.977
  22461588.547    22461587.485    22461592.565   120070109.381 7  93387865.993 6
      1398.251        1087.528
  23942344.122    23942345.940    23942353.157   128210155.163 6  99719032.558 5
     -3824.772       -2974.826
  21132828.938    21132830.720    21132834.547   113125708.010 6  87986713.169 5
      3988.604        3102.248
 05  3 17  0 48 15.0000000  0 12G 5G 7G 9G18G22G26G28G29R 1R 2R 8R21
  23448740.644    23448739.3994   23448744.2634  123223962.572 6  96018705.86743
      3628.583        2827.462
  22049070.455    22049069.7784   22049073.0744  115868688.760 7  90287298.73445
       564.407         439.796
  21300457.808    21300457.4764   21300460.8004  111934681.680 7  87221855.24345
      2600.742        2026.554
  23288253.489    23288253.0204   23288255.4544  122380583.467 6  95361520.15343
       423.918         330.322
  24728126.586    24728126.4184   24728126.7444  129947220.186 6 101257562.73442
      1919.725        1495.883
  20456752.895    20456752.6534   20456755.7004  107501040.061 8  83767021.72447
      -942.155        -734.147
  23063771.134    23063771.0404   23063773.3834  121200988.415 6  94442365.02743
     -2524.835       -1967.412
  20967516.061    20967515.8674   20967518.8864  110185096.921 8  85858535.09746
     -1481.873       -1154.704
  21949601.790    21949602.432    21949607.194   117374456.088 7  91291218.642 6
     -2104.114       -1636.538
  22457683.049    22457681.261    22457686.739   120049230.520 7  93371626.884 6
      1385.185        1077.364
  23953059.484    23953058.583    23953064.605   128267520.269 6  99763649.796 5
     -3824.272       -2974.430
  21121662.771    21121664.432    21121668.143   113065933.437 6  87940221.848 5
      3980.933        3096.283
 05  3 17  0 48 30.0000000  0 12G 5G 7G 9G18G22G26G28G29R 1R 2R 8R21
  23438388.384    23438387.2754   23438392.0394  123169562.526 6  95976316.24143
      3624.486        2824.273
  22047472.767    22047472.1694   22047475.5554  115860293.292 7  90280756.82045
       554.716         432.246
  21293041.372    21293040.7874   21293043.9944  111895706.114 8  87191484.68545
      2595.755        2022.663
  23287057.822    23287057.6874   23287060.7544  122374301.661 6  95356625.23443
       413.461         322.178
  24722658.948    24722658.7644   24722660.4184  129918488.843 6 101235174.67742
      1910.857        1488.975
  20459455.665    20459455.5714   20459458.5014  107515243.534 8  83778089.36047
      -951.869        -741.717
  23070983.176    23070982.1024   23070985.0034  121238883.828 7  94471893.90943
     -2528.146       -1969.988
  20971757.894    20971757.7134   20971760.7244  110207388.186 8  85875904.91446
     -1490.520       -1161.447
  21955518.624    21955519.428    21955523.741   117406097.208 7  91315828.398 6
     -2114.882       -1644.911
  22453813.707    22453813.464    22453819.105   120028555.756 7  93355546.525 6
      1371.104        1066.413
  23963771.569    23963773.049    23963777.737   128324886.753 6  99808268.126 5
     -3824.814       -2974.864
  21110519.873    21110520.801    21110524.846   113006281.396 6  87893825.829 5
      3972.372        3089.622
 05  3 17  0 48 45.0000000  0 12G 5G 7G 9G18G22G26G28G29R 1R 2R 8R21
  23428046.639    23428045.6474   23428050.3634  123115216.760 6  95933968.90643
      3621.110        2821.632
  22045901.205    22045900.5204   22045904.1634  115852035.149 7  90274321.91045
       545.867         425.350
  21285637.294    21285636.5924   21285639.7784  111856797.299 7  87161166.13045
      2591.566        2019.398
  23285891.957    23285891.2334   23285893.2554  122368169.066 6  95351846.57943
       403.730         314.608
  24717215.524    24717215.7054   24717215.7054  129889882.913 6 101212884.34842
      1902.754        1482.660
  20462184.760    20462184.6334   20462187.5384  107529584.951 8  83789264.48147
      -960.810        -748.683
  23078202.036    23078201.6124   23078203.9104  121276821.704 6  94501455.86143
     -2530.727       -1971.995
  20976023.064    20976022.7364   20976025.8184  110229801.325 8  85893369.68946
     -1498.431       -1167.605
  21961463.902    21961465.293    21961469.573   117437891.683 7  91340557.423 6
     -2124.875       -1652.681
  22449983.815    22449983.957    22449989.546   120008084.139 7  93339624.149 6
      1357.911        1056.147
  23974481.661    23974484.528    23974491.582   128382252.944 6  99852886.187 5
     -3824.573       -2974.646
  21099398.233    21099400.131    21099404.108   112946751.167 6  87847524.546 5
      3964.480        3083.487
 05  3 17  0 49  0.0000000  0 12G 5G 7G 9G18G22G26G28G29R 1R 2R 8R21
  23417714.616    23417713.5864   23417716.6634  123060918.571 6  95891658.61543
      3618.281        2819.443
  22044354.463    22044354.0324   22044357.6744  115843907.700 8  90267988.83645
       537.488         418.823
  21278243.880    21278244.0134   21278247.0664  111817948.625 8  87130894.43646
      2587.919        2016.561
  23284752.144    23284751.7184   23284754.4274  122362179.091 6  95347179.06543
       394.589         307.475
  24711795.181    24711794.2004   24711795.4404  129861395.421 6 101190686.30042
      1895.236        1476.823
  20464938.927    20464938.6634   20464941.6534  107544057.459 8  83800541.75647
      -969.202        -755.222
  23085427.903    23085427.7264   23085430.3254  121314795.142 7  94531045.54343
     -2532.774       -1973.598
  20980310.030    20980309.7774   20980312.9334  110252329.429 8  85910924.04646
     -1505.682       -1173.257
  21967437.546    21967437.876    21967442.608   117469831.957 7  91365399.844 6
     -2134.209       -1659.935
  22446192.403    22446190.861    22446196.252   119987808.424 7  93323854.145 6
      1345.144        1046.223
  23985196.503    23985197.673    23985202.554   128439611.355 6  99897498.211 5
     -3823.602       -2973.906
  21088299.541    21088300.796    21088305.224   112887335.738 6  87801312.544 5
      3957.156        3077.789
 05  3 17  0 49 15.0000000  0 12G 5G 7G 9G18G22G26G28G29R 1R 2R 8R21
  23407391.638    23407391.2264   23407394.8164  123006672.305 6  95849388.80943
      3614.588        2816.541
  22042833.761    22042833.1364   22042836.6214  115835915.111 7  90261760.85245
       528.214         411.596
  21270863.931    21270863.5964   21270866.6534  111779164.421 8  87100672.99045
      2583.315        2012.970
  23283639.682    23283639.2704   23283641.1874  122356335.949 6  95342625.96943
       384.525         299.646
  24706397.162    24706397.1284   24706396.1994  129833030.712 6 101168583.96142
      1886.759        1470.193
  20467718.650    20467718.4904   20467721.3504  107558665.206 8  83811924.41547
      -978.490        -762.462
  23092661.773    23092660.7524   23092663.6154  121352807.983 6  94560665.92743
     -2535.606       -1975.787
  20984619.826    20984619.4014   20984622.2964  110274976.426 8  85928571.05546
     -1513.916       -1179.677
  21973438.209    21973438.983    21973443.717   117501921.604 7  91390358.457 6
     -2144.439       -1667.896
  22442436.762    22442435.398    22442441.035   119967733.663 7  93308240.451 6
      1331.480        1035.595
  23995905.196    23995906.439    23995912.278   128496965.851 6  99942107.208 5
     -3823.660       -2973.948
  21077223.325    21077223.873    21077228.077   112828039.972 6  87755193.637 6
      3948.868        3071.342
